<?xml version="1.0" encoding="UTF-8" standalone="no" ?>
<gpx xmlns="http://www.topografix.com/GPX/1/1" xmlns:xsi="http://www.w3.org/2001/XMLSchema-instance" xsi:schemaLocation="http://www.topografix.com/GPX/1/1 http://www.topografix.com/GPX/1/1/gpx.xsd" version="1.1" creator="VisuGPX - https://www.visugpx.com">
  <metadata>
    <name>Velo-Relax_2022-02-01-Rumes-A</name>
    <desc><![CDATA[Vélo Relax sortie du .er février 2022 au départ de Rumes]]></desc>
  </metadata>
  <trk>
    <name><![CDATA[Velo-Relax_2022-02-01-Rumes-A_1]]></name>
    <trkseg>
      <trkpt lat="50.55569" lon="3.30384">
        <ele>56.2</ele>
        <time>2021-11-05T12:38:48Z</time>
      </trkpt>
      <trkpt lat="50.55558" lon="3.3039">
        <ele>56.4</ele>
        <time>2021-11-05T12:38:49Z</time>
      </trkpt>
      <trkpt lat="50.55564" lon="3.30413">
        <ele>56.6</ele>
        <time>2021-11-05T12:38:52Z</time>
      </trkpt>
      <trkpt lat="50.55555" lon="3.30426">
        <ele>57</ele>
        <time>2021-11-05T12:38:54Z</time>
      </trkpt>
      <trkpt lat="50.55549" lon="3.30431">
        <ele>57.6</ele>
        <time>2021-11-05T12:38:55Z</time>
      </trkpt>
      <trkpt lat="50.55526" lon="3.30448">
        <ele>58.2</ele>
        <time>2021-11-05T12:38:59Z</time>
      </trkpt>
      <trkpt lat="50.55504" lon="3.30465">
        <ele>58.4</ele>
        <time>2021-11-05T12:39:03Z</time>
      </trkpt>
      <trkpt lat="50.55481" lon="3.30481">
        <ele>58.6</ele>
        <time>2021-11-05T12:39:07Z</time>
      </trkpt>
      <trkpt lat="50.55457" lon="3.305">
        <ele>59.2</ele>
        <time>2021-11-05T12:39:11Z</time>
      </trkpt>
      <trkpt lat="50.55433" lon="3.30519">
        <ele>59.4</ele>
        <time>2021-11-05T12:39:16Z</time>
      </trkpt>
      <trkpt lat="50.55408" lon="3.3054">
        <ele>59.8</ele>
        <time>2021-11-05T12:39:20Z</time>
      </trkpt>
      <trkpt lat="50.55379" lon="3.30566">
        <ele>60.2</ele>
        <time>2021-11-05T12:39:25Z</time>
      </trkpt>
      <trkpt lat="50.55362" lon="3.30544">
        <ele>60.4</ele>
        <time>2021-11-05T12:39:29Z</time>
      </trkpt>
      <trkpt lat="50.55356" lon="3.30533">
        <ele>60.4</ele>
        <time>2021-11-05T12:39:30Z</time>
      </trkpt>
      <trkpt lat="50.55345" lon="3.3051">
        <ele>60.4</ele>
        <time>2021-11-05T12:39:33Z</time>
      </trkpt>
      <trkpt lat="50.55336" lon="3.30488">
        <ele>60.4</ele>
        <time>2021-11-05T12:39:36Z</time>
      </trkpt>
      <trkpt lat="50.55326" lon="3.30446">
        <ele>60.4</ele>
        <time>2021-11-05T12:39:41Z</time>
      </trkpt>
      <trkpt lat="50.5532" lon="3.30414">
        <ele>60.2</ele>
        <time>2021-11-05T12:39:44Z</time>
      </trkpt>
      <trkpt lat="50.55315" lon="3.30382">
        <ele>60.2</ele>
        <time>2021-11-05T12:39:47Z</time>
      </trkpt>
      <trkpt lat="50.55311" lon="3.30367">
        <ele>60</ele>
        <time>2021-11-05T12:39:49Z</time>
      </trkpt>
      <trkpt lat="50.55305" lon="3.30355">
        <ele>59.8</ele>
        <time>2021-11-05T12:39:51Z</time>
      </trkpt>
      <trkpt lat="50.55296" lon="3.30341">
        <ele>59.6</ele>
        <time>2021-11-05T12:39:53Z</time>
      </trkpt>
      <trkpt lat="50.55284" lon="3.30332">
        <ele>59.4</ele>
        <time>2021-11-05T12:39:55Z</time>
      </trkpt>
      <trkpt lat="50.5526" lon="3.30317">
        <ele>59.4</ele>
        <time>2021-11-05T12:39:59Z</time>
      </trkpt>
      <trkpt lat="50.55235" lon="3.30301">
        <ele>59.2</ele>
        <time>2021-11-05T12:40:03Z</time>
      </trkpt>
      <trkpt lat="50.55211" lon="3.30286">
        <ele>59.2</ele>
        <time>2021-11-05T12:40:07Z</time>
      </trkpt>
      <trkpt lat="50.55187" lon="3.3027">
        <ele>58.8</ele>
        <time>2021-11-05T12:40:11Z</time>
      </trkpt>
      <trkpt lat="50.55164" lon="3.3026">
        <ele>58.6</ele>
        <time>2021-11-05T12:40:15Z</time>
      </trkpt>
      <trkpt lat="50.5514" lon="3.3025">
        <ele>58.4</ele>
        <time>2021-11-05T12:40:19Z</time>
      </trkpt>
      <trkpt lat="50.55119" lon="3.30246">
        <ele>58.4</ele>
        <time>2021-11-05T12:40:23Z</time>
      </trkpt>
      <trkpt lat="50.55102" lon="3.30247">
        <ele>58.2</ele>
        <time>2021-11-05T12:40:25Z</time>
      </trkpt>
      <trkpt lat="50.55086" lon="3.30248">
        <ele>58.2</ele>
        <time>2021-11-05T12:40:28Z</time>
      </trkpt>
      <trkpt lat="50.55055" lon="3.30245">
        <ele>57.8</ele>
        <time>2021-11-05T12:40:33Z</time>
      </trkpt>
      <trkpt lat="50.5504" lon="3.3024">
        <ele>57.6</ele>
        <time>2021-11-05T12:40:35Z</time>
      </trkpt>
      <trkpt lat="50.55024" lon="3.30235">
        <ele>57.6</ele>
        <time>2021-11-05T12:40:38Z</time>
      </trkpt>
      <trkpt lat="50.55" lon="3.3022">
        <ele>57.2</ele>
        <time>2021-11-05T12:40:42Z</time>
      </trkpt>
      <trkpt lat="50.54976" lon="3.30205">
        <ele>57</ele>
        <time>2021-11-05T12:40:46Z</time>
      </trkpt>
      <trkpt lat="50.54952" lon="3.3019">
        <ele>57</ele>
        <time>2021-11-05T12:40:50Z</time>
      </trkpt>
      <trkpt lat="50.54929" lon="3.30176">
        <ele>56.8</ele>
        <time>2021-11-05T12:40:54Z</time>
      </trkpt>
      <trkpt lat="50.54916" lon="3.3017">
        <ele>56.6</ele>
        <time>2021-11-05T12:40:57Z</time>
      </trkpt>
      <trkpt lat="50.54889" lon="3.30165">
        <ele>56.2</ele>
        <time>2021-11-05T12:41:01Z</time>
      </trkpt>
      <trkpt lat="50.54863" lon="3.3016">
        <ele>56.2</ele>
        <time>2021-11-05T12:41:05Z</time>
      </trkpt>
      <trkpt lat="50.54848" lon="3.30153">
        <ele>55.8</ele>
        <time>2021-11-05T12:41:08Z</time>
      </trkpt>
      <trkpt lat="50.54838" lon="3.30145">
        <ele>55.4</ele>
        <time>2021-11-05T12:41:09Z</time>
      </trkpt>
      <trkpt lat="50.54841" lon="3.30147">
        <ele>55.2</ele>
        <time>2021-11-05T12:41:10Z</time>
      </trkpt>
      <trkpt lat="50.54848" lon="3.30153">
        <ele>55</ele>
        <time>2021-11-05T12:41:11Z</time>
      </trkpt>
      <trkpt lat="50.54844" lon="3.30171">
        <ele>54.8</ele>
        <time>2021-11-05T12:41:13Z</time>
      </trkpt>
      <trkpt lat="50.54839" lon="3.3021">
        <ele>54.8</ele>
        <time>2021-11-05T12:41:17Z</time>
      </trkpt>
      <trkpt lat="50.54834" lon="3.30248">
        <ele>54.6</ele>
        <time>2021-11-05T12:41:21Z</time>
      </trkpt>
      <trkpt lat="50.54828" lon="3.30272">
        <ele>54.6</ele>
        <time>2021-11-05T12:41:24Z</time>
      </trkpt>
      <trkpt lat="50.54816" lon="3.30287">
        <ele>54.6</ele>
        <time>2021-11-05T12:41:26Z</time>
      </trkpt>
      <trkpt lat="50.54808" lon="3.30293">
        <ele>54.8</ele>
        <time>2021-11-05T12:41:28Z</time>
      </trkpt>
      <trkpt lat="50.54782" lon="3.30303">
        <ele>55</ele>
        <time>2021-11-05T12:41:32Z</time>
      </trkpt>
      <trkpt lat="50.54756" lon="3.30314">
        <ele>55</ele>
        <time>2021-11-05T12:41:36Z</time>
      </trkpt>
      <trkpt lat="50.5474" lon="3.30348">
        <ele>55.2</ele>
        <time>2021-11-05T12:41:41Z</time>
      </trkpt>
      <trkpt lat="50.54724" lon="3.30383">
        <ele>55.4</ele>
        <time>2021-11-05T12:41:45Z</time>
      </trkpt>
      <trkpt lat="50.54711" lon="3.30415">
        <ele>55.6</ele>
        <time>2021-11-05T12:41:49Z</time>
      </trkpt>
      <trkpt lat="50.54699" lon="3.30447">
        <ele>55.6</ele>
        <time>2021-11-05T12:41:53Z</time>
      </trkpt>
      <trkpt lat="50.54688" lon="3.30479">
        <ele>55.8</ele>
        <time>2021-11-05T12:41:56Z</time>
      </trkpt>
      <trkpt lat="50.54677" lon="3.3051">
        <ele>55.8</ele>
        <time>2021-11-05T12:42:00Z</time>
      </trkpt>
      <trkpt lat="50.54672" lon="3.30535">
        <ele>56</ele>
        <time>2021-11-05T12:42:03Z</time>
      </trkpt>
      <trkpt lat="50.54668" lon="3.30559">
        <ele>56</ele>
        <time>2021-11-05T12:42:05Z</time>
      </trkpt>
      <trkpt lat="50.54665" lon="3.30561">
        <ele>56</ele>
        <time>2021-11-05T12:42:06Z</time>
      </trkpt>
      <trkpt lat="50.54655" lon="3.30568">
        <ele>55.8</ele>
        <time>2021-11-05T12:42:07Z</time>
      </trkpt>
      <trkpt lat="50.54635" lon="3.30585">
        <ele>55.4</ele>
        <time>2021-11-05T12:42:11Z</time>
      </trkpt>
      <trkpt lat="50.54616" lon="3.30602">
        <ele>55.4</ele>
        <time>2021-11-05T12:42:15Z</time>
      </trkpt>
      <trkpt lat="50.54596" lon="3.30619">
        <ele>55.2</ele>
        <time>2021-11-05T12:42:18Z</time>
      </trkpt>
      <trkpt lat="50.54577" lon="3.30636">
        <ele>54.8</ele>
        <time>2021-11-05T12:42:22Z</time>
      </trkpt>
      <trkpt lat="50.54552" lon="3.30646">
        <ele>54.2</ele>
        <time>2021-11-05T12:42:26Z</time>
      </trkpt>
      <trkpt lat="50.54528" lon="3.30644">
        <ele>53.6</ele>
        <time>2021-11-05T12:42:30Z</time>
      </trkpt>
      <trkpt lat="50.54503" lon="3.30643">
        <ele>53.2</ele>
        <time>2021-11-05T12:42:34Z</time>
      </trkpt>
      <trkpt lat="50.54479" lon="3.30642">
        <ele>53</ele>
        <time>2021-11-05T12:42:38Z</time>
      </trkpt>
      <trkpt lat="50.54454" lon="3.3064">
        <ele>52.8</ele>
        <time>2021-11-05T12:42:42Z</time>
      </trkpt>
      <trkpt lat="50.5444" lon="3.3064">
        <ele>52.2</ele>
        <time>2021-11-05T12:42:44Z</time>
      </trkpt>
      <trkpt lat="50.54417" lon="3.30644">
        <ele>51.6</ele>
        <time>2021-11-05T12:42:48Z</time>
      </trkpt>
      <trkpt lat="50.54397" lon="3.30655">
        <ele>51</ele>
        <time>2021-11-05T12:42:51Z</time>
      </trkpt>
      <trkpt lat="50.5437" lon="3.30678">
        <ele>50.6</ele>
        <time>2021-11-05T12:42:56Z</time>
      </trkpt>
      <trkpt lat="50.54351" lon="3.30701">
        <ele>50</ele>
        <time>2021-11-05T12:43:00Z</time>
      </trkpt>
      <trkpt lat="50.54334" lon="3.30735">
        <ele>49.6</ele>
        <time>2021-11-05T12:43:04Z</time>
      </trkpt>
      <trkpt lat="50.54317" lon="3.30768">
        <ele>49.4</ele>
        <time>2021-11-05T12:43:08Z</time>
      </trkpt>
      <trkpt lat="50.54299" lon="3.30801">
        <ele>49</ele>
        <time>2021-11-05T12:43:13Z</time>
      </trkpt>
      <trkpt lat="50.5428" lon="3.30832">
        <ele>48.8</ele>
        <time>2021-11-05T12:43:17Z</time>
      </trkpt>
      <trkpt lat="50.54262" lon="3.3085">
        <ele>48.6</ele>
        <time>2021-11-05T12:43:21Z</time>
      </trkpt>
      <trkpt lat="50.5424" lon="3.30869">
        <ele>48.4</ele>
        <time>2021-11-05T12:43:25Z</time>
      </trkpt>
      <trkpt lat="50.54224" lon="3.30879">
        <ele>48.2</ele>
        <time>2021-11-05T12:43:27Z</time>
      </trkpt>
      <trkpt lat="50.54202" lon="3.30887">
        <ele>48.2</ele>
        <time>2021-11-05T12:43:31Z</time>
      </trkpt>
      <trkpt lat="50.54172" lon="3.30891">
        <ele>48.2</ele>
        <time>2021-11-05T12:43:36Z</time>
      </trkpt>
      <trkpt lat="50.54142" lon="3.30894">
        <ele>48.2</ele>
        <time>2021-11-05T12:43:41Z</time>
      </trkpt>
      <trkpt lat="50.54112" lon="3.30898">
        <ele>48.2</ele>
        <time>2021-11-05T12:43:45Z</time>
      </trkpt>
      <trkpt lat="50.54089" lon="3.30898">
        <ele>48.2</ele>
        <time>2021-11-05T12:43:49Z</time>
      </trkpt>
      <trkpt lat="50.54065" lon="3.30899">
        <ele>48.2</ele>
        <time>2021-11-05T12:43:53Z</time>
      </trkpt>
      <trkpt lat="50.54036" lon="3.30897">
        <ele>48</ele>
        <time>2021-11-05T12:43:58Z</time>
      </trkpt>
      <trkpt lat="50.54006" lon="3.30895">
        <ele>48</ele>
        <time>2021-11-05T12:44:02Z</time>
      </trkpt>
      <trkpt lat="50.53977" lon="3.30894">
        <ele>48.2</ele>
        <time>2021-11-05T12:44:07Z</time>
      </trkpt>
      <trkpt lat="50.53948" lon="3.30892">
        <ele>48.2</ele>
        <time>2021-11-05T12:44:12Z</time>
      </trkpt>
      <trkpt lat="50.53919" lon="3.3089">
        <ele>48.2</ele>
        <time>2021-11-05T12:44:17Z</time>
      </trkpt>
      <trkpt lat="50.53889" lon="3.30889">
        <ele>48.2</ele>
        <time>2021-11-05T12:44:21Z</time>
      </trkpt>
      <trkpt lat="50.5386" lon="3.30887">
        <ele>48.2</ele>
        <time>2021-11-05T12:44:26Z</time>
      </trkpt>
      <trkpt lat="50.53835" lon="3.30887">
        <ele>48.2</ele>
        <time>2021-11-05T12:44:30Z</time>
      </trkpt>
      <trkpt lat="50.5381" lon="3.30886">
        <ele>48.2</ele>
        <time>2021-11-05T12:44:34Z</time>
      </trkpt>
      <trkpt lat="50.53784" lon="3.30886">
        <ele>48.2</ele>
        <time>2021-11-05T12:44:38Z</time>
      </trkpt>
      <trkpt lat="50.53759" lon="3.30886">
        <ele>48.4</ele>
        <time>2021-11-05T12:44:42Z</time>
      </trkpt>
      <trkpt lat="50.5374" lon="3.30886">
        <ele>48.4</ele>
        <time>2021-11-05T12:44:45Z</time>
      </trkpt>
      <trkpt lat="50.53721" lon="3.30886">
        <ele>48.4</ele>
        <time>2021-11-05T12:44:48Z</time>
      </trkpt>
      <trkpt lat="50.53696" lon="3.30885">
        <ele>48.2</ele>
        <time>2021-11-05T12:44:52Z</time>
      </trkpt>
      <trkpt lat="50.53671" lon="3.30884">
        <ele>48.2</ele>
        <time>2021-11-05T12:44:56Z</time>
      </trkpt>
      <trkpt lat="50.53645" lon="3.30883">
        <ele>48.2</ele>
        <time>2021-11-05T12:45:00Z</time>
      </trkpt>
      <trkpt lat="50.53628" lon="3.30882">
        <ele>48</ele>
        <time>2021-11-05T12:45:03Z</time>
      </trkpt>
      <trkpt lat="50.53611" lon="3.30881">
        <ele>47.8</ele>
        <time>2021-11-05T12:45:06Z</time>
      </trkpt>
      <trkpt lat="50.53592" lon="3.30877">
        <ele>47.6</ele>
        <time>2021-11-05T12:45:09Z</time>
      </trkpt>
      <trkpt lat="50.53577" lon="3.30871">
        <ele>47.4</ele>
        <time>2021-11-05T12:45:11Z</time>
      </trkpt>
      <trkpt lat="50.53562" lon="3.30864">
        <ele>47</ele>
        <time>2021-11-05T12:45:14Z</time>
      </trkpt>
      <trkpt lat="50.53535" lon="3.30841">
        <ele>46.8</ele>
        <time>2021-11-05T12:45:19Z</time>
      </trkpt>
      <trkpt lat="50.53519" lon="3.30824">
        <ele>46.6</ele>
        <time>2021-11-05T12:45:22Z</time>
      </trkpt>
      <trkpt lat="50.53493" lon="3.30804">
        <ele>46.2</ele>
        <time>2021-11-05T12:45:26Z</time>
      </trkpt>
      <trkpt lat="50.53466" lon="3.30795">
        <ele>46</ele>
        <time>2021-11-05T12:45:31Z</time>
      </trkpt>
      <trkpt lat="50.53439" lon="3.30785">
        <ele>45.8</ele>
        <time>2021-11-05T12:45:35Z</time>
      </trkpt>
      <trkpt lat="50.53412" lon="3.30776">
        <ele>45.6</ele>
        <time>2021-11-05T12:45:40Z</time>
      </trkpt>
      <trkpt lat="50.53385" lon="3.30767">
        <ele>45.4</ele>
        <time>2021-11-05T12:45:44Z</time>
      </trkpt>
      <trkpt lat="50.53353" lon="3.30755">
        <ele>44.6</ele>
        <time>2021-11-05T12:45:49Z</time>
      </trkpt>
      <trkpt lat="50.53358" lon="3.30757">
        <ele>43.6</ele>
        <time>2021-11-05T12:45:50Z</time>
      </trkpt>
      <trkpt lat="50.5335" lon="3.30785">
        <ele>43.2</ele>
        <time>2021-11-05T12:45:53Z</time>
      </trkpt>
      <trkpt lat="50.53335" lon="3.30828">
        <ele>42.8</ele>
        <time>2021-11-05T12:45:58Z</time>
      </trkpt>
      <trkpt lat="50.5332" lon="3.30871">
        <ele>42.6</ele>
        <time>2021-11-05T12:46:03Z</time>
      </trkpt>
      <trkpt lat="50.53306" lon="3.30906">
        <ele>42.2</ele>
        <time>2021-11-05T12:46:08Z</time>
      </trkpt>
      <trkpt lat="50.53291" lon="3.30941">
        <ele>42</ele>
        <time>2021-11-05T12:46:12Z</time>
      </trkpt>
      <trkpt lat="50.53276" lon="3.30973">
        <ele>41.4</ele>
        <time>2021-11-05T12:46:16Z</time>
      </trkpt>
      <trkpt lat="50.53261" lon="3.31006">
        <ele>41.2</ele>
        <time>2021-11-05T12:46:20Z</time>
      </trkpt>
      <trkpt lat="50.53246" lon="3.31038">
        <ele>41</ele>
        <time>2021-11-05T12:46:24Z</time>
      </trkpt>
      <trkpt lat="50.53236" lon="3.31062">
        <ele>40.6</ele>
        <time>2021-11-05T12:46:27Z</time>
      </trkpt>
      <trkpt lat="50.53226" lon="3.31085">
        <ele>40.4</ele>
        <time>2021-11-05T12:46:30Z</time>
      </trkpt>
      <trkpt lat="50.53211" lon="3.31126">
        <ele>40</ele>
        <time>2021-11-05T12:46:35Z</time>
      </trkpt>
      <trkpt lat="50.53196" lon="3.31166">
        <ele>39.8</ele>
        <time>2021-11-05T12:46:40Z</time>
      </trkpt>
      <trkpt lat="50.53186" lon="3.31191">
        <ele>39.6</ele>
        <time>2021-11-05T12:46:43Z</time>
      </trkpt>
      <trkpt lat="50.53177" lon="3.31216">
        <ele>39.4</ele>
        <time>2021-11-05T12:46:46Z</time>
      </trkpt>
      <trkpt lat="50.53165" lon="3.31231">
        <ele>39.2</ele>
        <time>2021-11-05T12:46:48Z</time>
      </trkpt>
      <trkpt lat="50.53146" lon="3.31246">
        <ele>39</ele>
        <time>2021-11-05T12:46:51Z</time>
      </trkpt>
      <trkpt lat="50.53126" lon="3.31261">
        <ele>38.8</ele>
        <time>2021-11-05T12:46:55Z</time>
      </trkpt>
      <trkpt lat="50.53107" lon="3.31275">
        <ele>38.8</ele>
        <time>2021-11-05T12:46:58Z</time>
      </trkpt>
      <trkpt lat="50.5308" lon="3.31301">
        <ele>38.6</ele>
        <time>2021-11-05T12:47:03Z</time>
      </trkpt>
      <trkpt lat="50.53064" lon="3.31326">
        <ele>38.6</ele>
        <time>2021-11-05T12:47:07Z</time>
      </trkpt>
      <trkpt lat="50.53048" lon="3.31328">
        <ele>38.6</ele>
        <time>2021-11-05T12:47:09Z</time>
      </trkpt>
      <trkpt lat="50.53045" lon="3.31327">
        <ele>38.6</ele>
        <time>2021-11-05T12:47:10Z</time>
      </trkpt>
      <trkpt lat="50.53035" lon="3.31326">
        <ele>38.6</ele>
        <time>2021-11-05T12:47:12Z</time>
      </trkpt>
      <trkpt lat="50.53016" lon="3.31314">
        <ele>38.6</ele>
        <time>2021-11-05T12:47:15Z</time>
      </trkpt>
      <trkpt lat="50.52994" lon="3.31296">
        <ele>38.4</ele>
        <time>2021-11-05T12:47:19Z</time>
      </trkpt>
      <trkpt lat="50.52973" lon="3.31277">
        <ele>38.4</ele>
        <time>2021-11-05T12:47:23Z</time>
      </trkpt>
      <trkpt lat="50.5295" lon="3.31261">
        <ele>38.2</ele>
        <time>2021-11-05T12:47:27Z</time>
      </trkpt>
      <trkpt lat="50.52924" lon="3.31246">
        <ele>38</ele>
        <time>2021-11-05T12:47:31Z</time>
      </trkpt>
      <trkpt lat="50.52899" lon="3.3123">
        <ele>37.8</ele>
        <time>2021-11-05T12:47:36Z</time>
      </trkpt>
      <trkpt lat="50.52873" lon="3.31214">
        <ele>37.8</ele>
        <time>2021-11-05T12:47:40Z</time>
      </trkpt>
      <trkpt lat="50.52866" lon="3.31199">
        <ele>37.6</ele>
        <time>2021-11-05T12:47:42Z</time>
      </trkpt>
      <trkpt lat="50.52848" lon="3.31171">
        <ele>37.2</ele>
        <time>2021-11-05T12:47:46Z</time>
      </trkpt>
      <trkpt lat="50.52831" lon="3.31143">
        <ele>37.2</ele>
        <time>2021-11-05T12:47:50Z</time>
      </trkpt>
      <trkpt lat="50.52813" lon="3.31115">
        <ele>37</ele>
        <time>2021-11-05T12:47:54Z</time>
      </trkpt>
      <trkpt lat="50.52796" lon="3.31087">
        <ele>37</ele>
        <time>2021-11-05T12:47:58Z</time>
      </trkpt>
      <trkpt lat="50.52781" lon="3.31067">
        <ele>36.8</ele>
        <time>2021-11-05T12:48:01Z</time>
      </trkpt>
      <trkpt lat="50.52767" lon="3.31048">
        <ele>36.6</ele>
        <time>2021-11-05T12:48:04Z</time>
      </trkpt>
      <trkpt lat="50.52753" lon="3.31023">
        <ele>36.4</ele>
        <time>2021-11-05T12:48:07Z</time>
      </trkpt>
      <trkpt lat="50.52739" lon="3.30999">
        <ele>36.4</ele>
        <time>2021-11-05T12:48:11Z</time>
      </trkpt>
      <trkpt lat="50.52724" lon="3.30973">
        <ele>36.4</ele>
        <time>2021-11-05T12:48:14Z</time>
      </trkpt>
      <trkpt lat="50.5271" lon="3.30948">
        <ele>36.2</ele>
        <time>2021-11-05T12:48:18Z</time>
      </trkpt>
      <trkpt lat="50.52696" lon="3.30917">
        <ele>36.2</ele>
        <time>2021-11-05T12:48:22Z</time>
      </trkpt>
      <trkpt lat="50.52683" lon="3.30886">
        <ele>36</ele>
        <time>2021-11-05T12:48:25Z</time>
      </trkpt>
      <trkpt lat="50.52669" lon="3.30855">
        <ele>36</ele>
        <time>2021-11-05T12:48:29Z</time>
      </trkpt>
      <trkpt lat="50.52655" lon="3.30825">
        <ele>35.8</ele>
        <time>2021-11-05T12:48:33Z</time>
      </trkpt>
      <trkpt lat="50.52643" lon="3.30794">
        <ele>35.8</ele>
        <time>2021-11-05T12:48:37Z</time>
      </trkpt>
      <trkpt lat="50.5263" lon="3.30763">
        <ele>35.6</ele>
        <time>2021-11-05T12:48:40Z</time>
      </trkpt>
      <trkpt lat="50.52618" lon="3.30732">
        <ele>35.6</ele>
        <time>2021-11-05T12:48:44Z</time>
      </trkpt>
      <trkpt lat="50.52616" lon="3.30723">
        <ele>35.4</ele>
        <time>2021-11-05T12:48:45Z</time>
      </trkpt>
      <trkpt lat="50.52626" lon="3.30696">
        <ele>35.4</ele>
        <time>2021-11-05T12:48:48Z</time>
      </trkpt>
      <trkpt lat="50.52637" lon="3.30669">
        <ele>35.2</ele>
        <time>2021-11-05T12:48:52Z</time>
      </trkpt>
      <trkpt lat="50.52653" lon="3.30634">
        <ele>35.2</ele>
        <time>2021-11-05T12:48:56Z</time>
      </trkpt>
      <trkpt lat="50.52648" lon="3.30627">
        <ele>35</ele>
        <time>2021-11-05T12:48:57Z</time>
      </trkpt>
      <trkpt lat="50.52642" lon="3.3062">
        <ele>34.6</ele>
        <time>2021-11-05T12:48:58Z</time>
      </trkpt>
      <trkpt lat="50.52631" lon="3.30598">
        <ele>34.6</ele>
        <time>2021-11-05T12:49:01Z</time>
      </trkpt>
      <trkpt lat="50.5262" lon="3.30577">
        <ele>34.6</ele>
        <time>2021-11-05T12:49:04Z</time>
      </trkpt>
      <trkpt lat="50.52599" lon="3.30547">
        <ele>34.6</ele>
        <time>2021-11-05T12:49:09Z</time>
      </trkpt>
      <trkpt lat="50.52583" lon="3.30518">
        <ele>34.6</ele>
        <time>2021-11-05T12:49:12Z</time>
      </trkpt>
      <trkpt lat="50.52579" lon="3.30515">
        <ele>34.4</ele>
        <time>2021-11-05T12:49:13Z</time>
      </trkpt>
      <trkpt lat="50.52556" lon="3.30494">
        <ele>34.4</ele>
        <time>2021-11-05T12:49:17Z</time>
      </trkpt>
      <trkpt lat="50.52534" lon="3.30473">
        <ele>34.4</ele>
        <time>2021-11-05T12:49:22Z</time>
      </trkpt>
      <trkpt lat="50.52511" lon="3.30452">
        <ele>34.2</ele>
        <time>2021-11-05T12:49:26Z</time>
      </trkpt>
      <trkpt lat="50.52492" lon="3.30436">
        <ele>34.2</ele>
        <time>2021-11-05T12:49:29Z</time>
      </trkpt>
      <trkpt lat="50.52474" lon="3.30419">
        <ele>34.2</ele>
        <time>2021-11-05T12:49:33Z</time>
      </trkpt>
      <trkpt lat="50.52455" lon="3.30402">
        <ele>34</ele>
        <time>2021-11-05T12:49:36Z</time>
      </trkpt>
      <trkpt lat="50.52438" lon="3.30374">
        <ele>34</ele>
        <time>2021-11-05T12:49:40Z</time>
      </trkpt>
      <trkpt lat="50.52434" lon="3.30369">
        <ele>33.6</ele>
        <time>2021-11-05T12:49:41Z</time>
      </trkpt>
      <trkpt lat="50.52411" lon="3.30342">
        <ele>33.4</ele>
        <time>2021-11-05T12:49:46Z</time>
      </trkpt>
      <trkpt lat="50.52385" lon="3.30326">
        <ele>33</ele>
        <time>2021-11-05T12:49:50Z</time>
      </trkpt>
      <trkpt lat="50.52361" lon="3.30315">
        <ele>32.6</ele>
        <time>2021-11-05T12:49:54Z</time>
      </trkpt>
      <trkpt lat="50.52338" lon="3.30303">
        <ele>32.2</ele>
        <time>2021-11-05T12:49:58Z</time>
      </trkpt>
      <trkpt lat="50.52315" lon="3.30299">
        <ele>31.8</ele>
        <time>2021-11-05T12:50:02Z</time>
      </trkpt>
      <trkpt lat="50.52293" lon="3.30294">
        <ele>31.6</ele>
        <time>2021-11-05T12:50:05Z</time>
      </trkpt>
      <trkpt lat="50.5227" lon="3.30289">
        <ele>31.4</ele>
        <time>2021-11-05T12:50:09Z</time>
      </trkpt>
      <trkpt lat="50.52247" lon="3.30269">
        <ele>31</ele>
        <time>2021-11-05T12:50:13Z</time>
      </trkpt>
      <trkpt lat="50.52223" lon="3.30249">
        <ele>31</ele>
        <time>2021-11-05T12:50:17Z</time>
      </trkpt>
      <trkpt lat="50.522" lon="3.30229">
        <ele>30.8</ele>
        <time>2021-11-05T12:50:22Z</time>
      </trkpt>
      <trkpt lat="50.52176" lon="3.30209">
        <ele>30.6</ele>
        <time>2021-11-05T12:50:26Z</time>
      </trkpt>
      <trkpt lat="50.52153" lon="3.30189">
        <ele>30.4</ele>
        <time>2021-11-05T12:50:30Z</time>
      </trkpt>
      <trkpt lat="50.5215" lon="3.30185">
        <ele>29.8</ele>
        <time>2021-11-05T12:50:31Z</time>
      </trkpt>
      <trkpt lat="50.52131" lon="3.30162">
        <ele>29.6</ele>
        <time>2021-11-05T12:50:35Z</time>
      </trkpt>
      <trkpt lat="50.52111" lon="3.30138">
        <ele>29.4</ele>
        <time>2021-11-05T12:50:39Z</time>
      </trkpt>
      <trkpt lat="50.52094" lon="3.30107">
        <ele>29.2</ele>
        <time>2021-11-05T12:50:43Z</time>
      </trkpt>
      <trkpt lat="50.52095" lon="3.30103">
        <ele>29.2</ele>
        <time>2021-11-05T12:50:44Z</time>
      </trkpt>
      <trkpt lat="50.52105" lon="3.30067">
        <ele>29.4</ele>
        <time>2021-11-05T12:50:48Z</time>
      </trkpt>
      <trkpt lat="50.52115" lon="3.30032">
        <ele>29.4</ele>
        <time>2021-11-05T12:50:52Z</time>
      </trkpt>
      <trkpt lat="50.52124" lon="3.29996">
        <ele>29.4</ele>
        <time>2021-11-05T12:50:56Z</time>
      </trkpt>
      <trkpt lat="50.52126" lon="3.29987">
        <ele>29.6</ele>
        <time>2021-11-05T12:50:57Z</time>
      </trkpt>
      <trkpt lat="50.52126" lon="3.29976">
        <ele>30</ele>
        <time>2021-11-05T12:50:58Z</time>
      </trkpt>
      <trkpt lat="50.52125" lon="3.29965">
        <ele>30.4</ele>
        <time>2021-11-05T12:50:59Z</time>
      </trkpt>
      <trkpt lat="50.52108" lon="3.29943">
        <ele>30.8</ele>
        <time>2021-11-05T12:51:03Z</time>
      </trkpt>
      <trkpt lat="50.52092" lon="3.29921">
        <ele>31</ele>
        <time>2021-11-05T12:51:06Z</time>
      </trkpt>
      <trkpt lat="50.52075" lon="3.29899">
        <ele>31.2</ele>
        <time>2021-11-05T12:51:10Z</time>
      </trkpt>
      <trkpt lat="50.52051" lon="3.2987">
        <ele>31.8</ele>
        <time>2021-11-05T12:51:14Z</time>
      </trkpt>
      <trkpt lat="50.52028" lon="3.29842">
        <ele>32.2</ele>
        <time>2021-11-05T12:51:19Z</time>
      </trkpt>
      <trkpt lat="50.52005" lon="3.29813">
        <ele>32.4</ele>
        <time>2021-11-05T12:51:24Z</time>
      </trkpt>
      <trkpt lat="50.51981" lon="3.29785">
        <ele>32.6</ele>
        <time>2021-11-05T12:51:28Z</time>
      </trkpt>
      <trkpt lat="50.51959" lon="3.29755">
        <ele>33.4</ele>
        <time>2021-11-05T12:51:33Z</time>
      </trkpt>
      <trkpt lat="50.51936" lon="3.29724">
        <ele>33.6</ele>
        <time>2021-11-05T12:51:38Z</time>
      </trkpt>
      <trkpt lat="50.51913" lon="3.29694">
        <ele>34</ele>
        <time>2021-11-05T12:51:43Z</time>
      </trkpt>
      <trkpt lat="50.51905" lon="3.29676">
        <ele>34.8</ele>
        <time>2021-11-05T12:51:45Z</time>
      </trkpt>
      <trkpt lat="50.51893" lon="3.29639">
        <ele>35.4</ele>
        <time>2021-11-05T12:51:49Z</time>
      </trkpt>
      <trkpt lat="50.51882" lon="3.29603">
        <ele>35.6</ele>
        <time>2021-11-05T12:51:53Z</time>
      </trkpt>
      <trkpt lat="50.51875" lon="3.29562">
        <ele>36.4</ele>
        <time>2021-11-05T12:51:58Z</time>
      </trkpt>
      <trkpt lat="50.51869" lon="3.29521">
        <ele>36.6</ele>
        <time>2021-11-05T12:52:02Z</time>
      </trkpt>
      <trkpt lat="50.51863" lon="3.2948">
        <ele>37</ele>
        <time>2021-11-05T12:52:06Z</time>
      </trkpt>
      <trkpt lat="50.51857" lon="3.2944">
        <ele>37.2</ele>
        <time>2021-11-05T12:52:11Z</time>
      </trkpt>
      <trkpt lat="50.51842" lon="3.29398">
        <ele>38</ele>
        <time>2021-11-05T12:52:15Z</time>
      </trkpt>
      <trkpt lat="50.51828" lon="3.29356">
        <ele>38.2</ele>
        <time>2021-11-05T12:52:20Z</time>
      </trkpt>
      <trkpt lat="50.51813" lon="3.29314">
        <ele>38.6</ele>
        <time>2021-11-05T12:52:25Z</time>
      </trkpt>
      <trkpt lat="50.5181" lon="3.29298">
        <ele>39</ele>
        <time>2021-11-05T12:52:27Z</time>
      </trkpt>
      <trkpt lat="50.51801" lon="3.29267">
        <ele>39.4</ele>
        <time>2021-11-05T12:52:30Z</time>
      </trkpt>
      <trkpt lat="50.51793" lon="3.29237">
        <ele>39.4</ele>
        <time>2021-11-05T12:52:34Z</time>
      </trkpt>
      <trkpt lat="50.5179" lon="3.29223">
        <ele>39.8</ele>
        <time>2021-11-05T12:52:35Z</time>
      </trkpt>
      <trkpt lat="50.5179" lon="3.29215">
        <ele>39.8</ele>
        <time>2021-11-05T12:52:36Z</time>
      </trkpt>
      <trkpt lat="50.51792" lon="3.29205">
        <ele>39.8</ele>
        <time>2021-11-05T12:52:37Z</time>
      </trkpt>
      <trkpt lat="50.51799" lon="3.29179">
        <ele>39.8</ele>
        <time>2021-11-05T12:52:40Z</time>
      </trkpt>
      <trkpt lat="50.51809" lon="3.29154">
        <ele>39.6</ele>
        <time>2021-11-05T12:52:43Z</time>
      </trkpt>
      <trkpt lat="50.51819" lon="3.2913">
        <ele>39.6</ele>
        <time>2021-11-05T12:52:46Z</time>
      </trkpt>
      <trkpt lat="50.51832" lon="3.29093">
        <ele>39.4</ele>
        <time>2021-11-05T12:52:50Z</time>
      </trkpt>
      <trkpt lat="50.51845" lon="3.29056">
        <ele>39.2</ele>
        <time>2021-11-05T12:52:55Z</time>
      </trkpt>
      <trkpt lat="50.51858" lon="3.29019">
        <ele>39.2</ele>
        <time>2021-11-05T12:52:59Z</time>
      </trkpt>
      <trkpt lat="50.51871" lon="3.28982">
        <ele>39</ele>
        <time>2021-11-05T12:53:03Z</time>
      </trkpt>
      <trkpt lat="50.51884" lon="3.28945">
        <ele>38.8</ele>
        <time>2021-11-05T12:53:07Z</time>
      </trkpt>
      <trkpt lat="50.51893" lon="3.28921">
        <ele>38.6</ele>
        <time>2021-11-05T12:53:10Z</time>
      </trkpt>
      <trkpt lat="50.51903" lon="3.28897">
        <ele>38.4</ele>
        <time>2021-11-05T12:53:13Z</time>
      </trkpt>
      <trkpt lat="50.51918" lon="3.28875">
        <ele>38</ele>
        <time>2021-11-05T12:53:17Z</time>
      </trkpt>
      <trkpt lat="50.51932" lon="3.28853">
        <ele>37.8</ele>
        <time>2021-11-05T12:53:20Z</time>
      </trkpt>
      <trkpt lat="50.51956" lon="3.28822">
        <ele>37.4</ele>
        <time>2021-11-05T12:53:25Z</time>
      </trkpt>
      <trkpt lat="50.51972" lon="3.28795">
        <ele>37.2</ele>
        <time>2021-11-05T12:53:28Z</time>
      </trkpt>
      <trkpt lat="50.51989" lon="3.2876">
        <ele>36.8</ele>
        <time>2021-11-05T12:53:33Z</time>
      </trkpt>
      <trkpt lat="50.52005" lon="3.28725">
        <ele>36.6</ele>
        <time>2021-11-05T12:53:37Z</time>
      </trkpt>
      <trkpt lat="50.52022" lon="3.2869">
        <ele>36.6</ele>
        <time>2021-11-05T12:53:42Z</time>
      </trkpt>
      <trkpt lat="50.52031" lon="3.28667">
        <ele>36.4</ele>
        <time>2021-11-05T12:53:45Z</time>
      </trkpt>
      <trkpt lat="50.52039" lon="3.28644">
        <ele>36.2</ele>
        <time>2021-11-05T12:53:47Z</time>
      </trkpt>
      <trkpt lat="50.52047" lon="3.28617">
        <ele>36</ele>
        <time>2021-11-05T12:53:50Z</time>
      </trkpt>
      <trkpt lat="50.52054" lon="3.2859">
        <ele>36</ele>
        <time>2021-11-05T12:53:53Z</time>
      </trkpt>
      <trkpt lat="50.52066" lon="3.28558">
        <ele>35.8</ele>
        <time>2021-11-05T12:53:57Z</time>
      </trkpt>
      <trkpt lat="50.52082" lon="3.28522">
        <ele>35.6</ele>
        <time>2021-11-05T12:54:02Z</time>
      </trkpt>
      <trkpt lat="50.52098" lon="3.28485">
        <ele>35.6</ele>
        <time>2021-11-05T12:54:06Z</time>
      </trkpt>
      <trkpt lat="50.52113" lon="3.28449">
        <ele>35.4</ele>
        <time>2021-11-05T12:54:11Z</time>
      </trkpt>
      <trkpt lat="50.52122" lon="3.28436">
        <ele>35.4</ele>
        <time>2021-11-05T12:54:12Z</time>
      </trkpt>
      <trkpt lat="50.52117" lon="3.28422">
        <ele>35.4</ele>
        <time>2021-11-05T12:54:14Z</time>
      </trkpt>
      <trkpt lat="50.52117" lon="3.28417">
        <ele>35.6</ele>
        <time>2021-11-05T12:54:15Z</time>
      </trkpt>
      <trkpt lat="50.52114" lon="3.28399">
        <ele>35.8</ele>
        <time>2021-11-05T12:54:17Z</time>
      </trkpt>
      <trkpt lat="50.52111" lon="3.28354">
        <ele>36</ele>
        <time>2021-11-05T12:54:21Z</time>
      </trkpt>
      <trkpt lat="50.52108" lon="3.2831">
        <ele>36.2</ele>
        <time>2021-11-05T12:54:26Z</time>
      </trkpt>
      <trkpt lat="50.52105" lon="3.28293">
        <ele>36.4</ele>
        <time>2021-11-05T12:54:27Z</time>
      </trkpt>
      <trkpt lat="50.52092" lon="3.28258">
        <ele>36.8</ele>
        <time>2021-11-05T12:54:32Z</time>
      </trkpt>
      <trkpt lat="50.52079" lon="3.28223">
        <ele>37</ele>
        <time>2021-11-05T12:54:36Z</time>
      </trkpt>
      <trkpt lat="50.52068" lon="3.28177">
        <ele>37.6</ele>
        <time>2021-11-05T12:54:41Z</time>
      </trkpt>
      <trkpt lat="50.52058" lon="3.28132">
        <ele>37.8</ele>
        <time>2021-11-05T12:54:46Z</time>
      </trkpt>
      <trkpt lat="50.52047" lon="3.28106">
        <ele>38.4</ele>
        <time>2021-11-05T12:54:49Z</time>
      </trkpt>
      <trkpt lat="50.52036" lon="3.2808">
        <ele>38.6</ele>
        <time>2021-11-05T12:54:52Z</time>
      </trkpt>
      <trkpt lat="50.52022" lon="3.28049">
        <ele>39.2</ele>
        <time>2021-11-05T12:54:56Z</time>
      </trkpt>
      <trkpt lat="50.52008" lon="3.28019">
        <ele>39.4</ele>
        <time>2021-11-05T12:55:00Z</time>
      </trkpt>
      <trkpt lat="50.51993" lon="3.27988">
        <ele>39.8</ele>
        <time>2021-11-05T12:55:04Z</time>
      </trkpt>
      <trkpt lat="50.51977" lon="3.27965">
        <ele>40.4</ele>
        <time>2021-11-05T12:55:07Z</time>
      </trkpt>
      <trkpt lat="50.51961" lon="3.27943">
        <ele>40.8</ele>
        <time>2021-11-05T12:55:10Z</time>
      </trkpt>
      <trkpt lat="50.51945" lon="3.2792">
        <ele>41.2</ele>
        <time>2021-11-05T12:55:14Z</time>
      </trkpt>
      <trkpt lat="50.51935" lon="3.27904">
        <ele>41.8</ele>
        <time>2021-11-05T12:55:16Z</time>
      </trkpt>
      <trkpt lat="50.51934" lon="3.27884">
        <ele>42.2</ele>
        <time>2021-11-05T12:55:18Z</time>
      </trkpt>
      <trkpt lat="50.51945" lon="3.2785">
        <ele>42.8</ele>
        <time>2021-11-05T12:55:22Z</time>
      </trkpt>
      <trkpt lat="50.51956" lon="3.27815">
        <ele>43</ele>
        <time>2021-11-05T12:55:26Z</time>
      </trkpt>
      <trkpt lat="50.51968" lon="3.27782">
        <ele>43.4</ele>
        <time>2021-11-05T12:55:30Z</time>
      </trkpt>
      <trkpt lat="50.51979" lon="3.2775">
        <ele>43.6</ele>
        <time>2021-11-05T12:55:34Z</time>
      </trkpt>
      <trkpt lat="50.51991" lon="3.27717">
        <ele>43.8</ele>
        <time>2021-11-05T12:55:38Z</time>
      </trkpt>
      <trkpt lat="50.52003" lon="3.27684">
        <ele>44</ele>
        <time>2021-11-05T12:55:41Z</time>
      </trkpt>
      <trkpt lat="50.52007" lon="3.27667">
        <ele>44.2</ele>
        <time>2021-11-05T12:55:43Z</time>
      </trkpt>
      <trkpt lat="50.52035" lon="3.27679">
        <ele>44.4</ele>
        <time>2021-11-05T12:55:48Z</time>
      </trkpt>
      <trkpt lat="50.52044" lon="3.27685">
        <ele>44.4</ele>
        <time>2021-11-05T12:55:49Z</time>
      </trkpt>
      <trkpt lat="50.52047" lon="3.27687">
        <ele>44.2</ele>
        <time>2021-11-05T12:55:50Z</time>
      </trkpt>
      <trkpt lat="50.52053" lon="3.27691">
        <ele>44</ele>
        <time>2021-11-05T12:55:51Z</time>
      </trkpt>
      <trkpt lat="50.52058" lon="3.2767">
        <ele>43.8</ele>
        <time>2021-11-05T12:55:53Z</time>
      </trkpt>
      <trkpt lat="50.52062" lon="3.27631">
        <ele>43.8</ele>
        <time>2021-11-05T12:55:57Z</time>
      </trkpt>
      <trkpt lat="50.52067" lon="3.27591">
        <ele>43.6</ele>
        <time>2021-11-05T12:56:02Z</time>
      </trkpt>
      <trkpt lat="50.52075" lon="3.27543">
        <ele>43.4</ele>
        <time>2021-11-05T12:56:07Z</time>
      </trkpt>
      <trkpt lat="50.52082" lon="3.27495">
        <ele>43.4</ele>
        <time>2021-11-05T12:56:12Z</time>
      </trkpt>
      <trkpt lat="50.5209" lon="3.27447">
        <ele>43.4</ele>
        <time>2021-11-05T12:56:17Z</time>
      </trkpt>
      <trkpt lat="50.52097" lon="3.274">
        <ele>43.2</ele>
        <time>2021-11-05T12:56:22Z</time>
      </trkpt>
      <trkpt lat="50.52103" lon="3.2736">
        <ele>43.2</ele>
        <time>2021-11-05T12:56:26Z</time>
      </trkpt>
      <trkpt lat="50.52109" lon="3.27319">
        <ele>43.4</ele>
        <time>2021-11-05T12:56:30Z</time>
      </trkpt>
      <trkpt lat="50.52114" lon="3.27279">
        <ele>43.4</ele>
        <time>2021-11-05T12:56:34Z</time>
      </trkpt>
      <trkpt lat="50.5212" lon="3.27238">
        <ele>43.4</ele>
        <time>2021-11-05T12:56:39Z</time>
      </trkpt>
      <trkpt lat="50.52125" lon="3.27198">
        <ele>43.4</ele>
        <time>2021-11-05T12:56:43Z</time>
      </trkpt>
      <trkpt lat="50.52132" lon="3.27152">
        <ele>43.6</ele>
        <time>2021-11-05T12:56:48Z</time>
      </trkpt>
      <trkpt lat="50.5214" lon="3.27106">
        <ele>43.6</ele>
        <time>2021-11-05T12:56:52Z</time>
      </trkpt>
      <trkpt lat="50.52147" lon="3.2706">
        <ele>43.8</ele>
        <time>2021-11-05T12:56:57Z</time>
      </trkpt>
      <trkpt lat="50.52154" lon="3.27013">
        <ele>43.8</ele>
        <time>2021-11-05T12:57:02Z</time>
      </trkpt>
      <trkpt lat="50.52161" lon="3.26967">
        <ele>43.8</ele>
        <time>2021-11-05T12:57:07Z</time>
      </trkpt>
      <trkpt lat="50.52168" lon="3.2692">
        <ele>43.8</ele>
        <time>2021-11-05T12:57:12Z</time>
      </trkpt>
      <trkpt lat="50.52175" lon="3.26873">
        <ele>44</ele>
        <time>2021-11-05T12:57:17Z</time>
      </trkpt>
      <trkpt lat="50.52182" lon="3.26826">
        <ele>44</ele>
        <time>2021-11-05T12:57:22Z</time>
      </trkpt>
      <trkpt lat="50.5219" lon="3.2678">
        <ele>44.2</ele>
        <time>2021-11-05T12:57:27Z</time>
      </trkpt>
      <trkpt lat="50.52197" lon="3.26733">
        <ele>44.2</ele>
        <time>2021-11-05T12:57:32Z</time>
      </trkpt>
      <trkpt lat="50.52204" lon="3.26686">
        <ele>44.4</ele>
        <time>2021-11-05T12:57:36Z</time>
      </trkpt>
      <trkpt lat="50.52211" lon="3.2664">
        <ele>44.4</ele>
        <time>2021-11-05T12:57:41Z</time>
      </trkpt>
      <trkpt lat="50.52218" lon="3.26593">
        <ele>44.6</ele>
        <time>2021-11-05T12:57:46Z</time>
      </trkpt>
      <trkpt lat="50.52225" lon="3.26546">
        <ele>44.6</ele>
        <time>2021-11-05T12:57:51Z</time>
      </trkpt>
      <trkpt lat="50.52232" lon="3.26499">
        <ele>44.8</ele>
        <time>2021-11-05T12:57:56Z</time>
      </trkpt>
      <trkpt lat="50.5224" lon="3.26453">
        <ele>45</ele>
        <time>2021-11-05T12:58:01Z</time>
      </trkpt>
      <trkpt lat="50.52246" lon="3.26408">
        <ele>45.2</ele>
        <time>2021-11-05T12:58:06Z</time>
      </trkpt>
      <trkpt lat="50.52253" lon="3.2636">
        <ele>45.4</ele>
        <time>2021-11-05T12:58:11Z</time>
      </trkpt>
      <trkpt lat="50.52261" lon="3.26312">
        <ele>45.6</ele>
        <time>2021-11-05T12:58:16Z</time>
      </trkpt>
      <trkpt lat="50.52268" lon="3.26264">
        <ele>45.8</ele>
        <time>2021-11-05T12:58:21Z</time>
      </trkpt>
      <trkpt lat="50.52275" lon="3.26216">
        <ele>46</ele>
        <time>2021-11-05T12:58:26Z</time>
      </trkpt>
      <trkpt lat="50.52282" lon="3.26168">
        <ele>46.2</ele>
        <time>2021-11-05T12:58:31Z</time>
      </trkpt>
      <trkpt lat="50.52289" lon="3.26121">
        <ele>46.6</ele>
        <time>2021-11-05T12:58:36Z</time>
      </trkpt>
      <trkpt lat="50.52296" lon="3.26073">
        <ele>46.8</ele>
        <time>2021-11-05T12:58:41Z</time>
      </trkpt>
      <trkpt lat="50.52303" lon="3.26025">
        <ele>47.2</ele>
        <time>2021-11-05T12:58:46Z</time>
      </trkpt>
      <trkpt lat="50.5231" lon="3.25977">
        <ele>47.4</ele>
        <time>2021-11-05T12:58:51Z</time>
      </trkpt>
      <trkpt lat="50.52317" lon="3.25929">
        <ele>47.6</ele>
        <time>2021-11-05T12:58:56Z</time>
      </trkpt>
      <trkpt lat="50.52324" lon="3.25881">
        <ele>48</ele>
        <time>2021-11-05T12:59:01Z</time>
      </trkpt>
      <trkpt lat="50.52331" lon="3.25834">
        <ele>48.2</ele>
        <time>2021-11-05T12:59:06Z</time>
      </trkpt>
      <trkpt lat="50.52338" lon="3.25786">
        <ele>48.6</ele>
        <time>2021-11-05T12:59:11Z</time>
      </trkpt>
      <trkpt lat="50.52345" lon="3.25738">
        <ele>49</ele>
        <time>2021-11-05T12:59:16Z</time>
      </trkpt>
      <trkpt lat="50.52352" lon="3.25692">
        <ele>49.4</ele>
        <time>2021-11-05T12:59:21Z</time>
      </trkpt>
      <trkpt lat="50.52364" lon="3.25651">
        <ele>50</ele>
        <time>2021-11-05T12:59:25Z</time>
      </trkpt>
      <trkpt lat="50.52377" lon="3.25611">
        <ele>50.4</ele>
        <time>2021-11-05T12:59:30Z</time>
      </trkpt>
      <trkpt lat="50.5239" lon="3.2557">
        <ele>50.8</ele>
        <time>2021-11-05T12:59:35Z</time>
      </trkpt>
      <trkpt lat="50.52403" lon="3.25529">
        <ele>51.2</ele>
        <time>2021-11-05T12:59:39Z</time>
      </trkpt>
      <trkpt lat="50.52415" lon="3.25489">
        <ele>51.6</ele>
        <time>2021-11-05T12:59:44Z</time>
      </trkpt>
      <trkpt lat="50.52428" lon="3.25448">
        <ele>51.8</ele>
        <time>2021-11-05T12:59:48Z</time>
      </trkpt>
      <trkpt lat="50.52441" lon="3.25408">
        <ele>52.2</ele>
        <time>2021-11-05T12:59:53Z</time>
      </trkpt>
      <trkpt lat="50.52451" lon="3.25367">
        <ele>52.8</ele>
        <time>2021-11-05T12:59:58Z</time>
      </trkpt>
      <trkpt lat="50.52462" lon="3.25326">
        <ele>53</ele>
        <time>2021-11-05T13:00:02Z</time>
      </trkpt>
      <trkpt lat="50.52473" lon="3.25285">
        <ele>53.4</ele>
        <time>2021-11-05T13:00:07Z</time>
      </trkpt>
      <trkpt lat="50.52484" lon="3.25245">
        <ele>54.8</ele>
        <time>2021-11-05T13:00:11Z</time>
      </trkpt>
      <trkpt lat="50.52484" lon="3.2524">
        <ele>55.2</ele>
        <time>2021-11-05T13:00:12Z</time>
      </trkpt>
      <trkpt lat="50.52487" lon="3.25226">
        <ele>55.4</ele>
        <time>2021-11-05T13:00:13Z</time>
      </trkpt>
      <trkpt lat="50.52462" lon="3.2522">
        <ele>55.4</ele>
        <time>2021-11-05T13:00:17Z</time>
      </trkpt>
      <trkpt lat="50.52438" lon="3.25214">
        <ele>55.4</ele>
        <time>2021-11-05T13:00:21Z</time>
      </trkpt>
      <trkpt lat="50.52414" lon="3.25208">
        <ele>55.4</ele>
        <time>2021-11-05T13:00:25Z</time>
      </trkpt>
      <trkpt lat="50.52389" lon="3.25203">
        <ele>55.2</ele>
        <time>2021-11-05T13:00:29Z</time>
      </trkpt>
      <trkpt lat="50.52363" lon="3.25199">
        <ele>55.2</ele>
        <time>2021-11-05T13:00:33Z</time>
      </trkpt>
      <trkpt lat="50.52334" lon="3.252">
        <ele>55.2</ele>
        <time>2021-11-05T13:00:38Z</time>
      </trkpt>
      <trkpt lat="50.52304" lon="3.25202">
        <ele>55.2</ele>
        <time>2021-11-05T13:00:42Z</time>
      </trkpt>
      <trkpt lat="50.52275" lon="3.25203">
        <ele>55</ele>
        <time>2021-11-05T13:00:47Z</time>
      </trkpt>
      <trkpt lat="50.52245" lon="3.25205">
        <ele>55</ele>
        <time>2021-11-05T13:00:52Z</time>
      </trkpt>
      <trkpt lat="50.52215" lon="3.2521">
        <ele>54.4</ele>
        <time>2021-11-05T13:00:57Z</time>
      </trkpt>
      <trkpt lat="50.52184" lon="3.25215">
        <ele>54.2</ele>
        <time>2021-11-05T13:01:02Z</time>
      </trkpt>
      <trkpt lat="50.52153" lon="3.2522">
        <ele>53.8</ele>
        <time>2021-11-05T13:01:07Z</time>
      </trkpt>
      <trkpt lat="50.52126" lon="3.2522">
        <ele>53.4</ele>
        <time>2021-11-05T13:01:11Z</time>
      </trkpt>
      <trkpt lat="50.52111" lon="3.25207">
        <ele>53</ele>
        <time>2021-11-05T13:01:14Z</time>
      </trkpt>
      <trkpt lat="50.52096" lon="3.25194">
        <ele>52.6</ele>
        <time>2021-11-05T13:01:17Z</time>
      </trkpt>
      <trkpt lat="50.52076" lon="3.25181">
        <ele>51.6</ele>
        <time>2021-11-05T13:01:20Z</time>
      </trkpt>
      <trkpt lat="50.52064" lon="3.25175">
        <ele>51</ele>
        <time>2021-11-05T13:01:22Z</time>
      </trkpt>
      <trkpt lat="50.52043" lon="3.25173">
        <ele>50.4</ele>
        <time>2021-11-05T13:01:25Z</time>
      </trkpt>
      <trkpt lat="50.52022" lon="3.25171">
        <ele>50.2</ele>
        <time>2021-11-05T13:01:29Z</time>
      </trkpt>
      <trkpt lat="50.52001" lon="3.25168">
        <ele>49.8</ele>
        <time>2021-11-05T13:01:32Z</time>
      </trkpt>
      <trkpt lat="50.5198" lon="3.25168">
        <ele>49.2</ele>
        <time>2021-11-05T13:01:36Z</time>
      </trkpt>
      <trkpt lat="50.51959" lon="3.25167">
        <ele>49</ele>
        <time>2021-11-05T13:01:39Z</time>
      </trkpt>
      <trkpt lat="50.51937" lon="3.25166">
        <ele>48.8</ele>
        <time>2021-11-05T13:01:42Z</time>
      </trkpt>
      <trkpt lat="50.51917" lon="3.25172">
        <ele>48.2</ele>
        <time>2021-11-05T13:01:46Z</time>
      </trkpt>
      <trkpt lat="50.51896" lon="3.25178">
        <ele>47.8</ele>
        <time>2021-11-05T13:01:49Z</time>
      </trkpt>
      <trkpt lat="50.51875" lon="3.25185">
        <ele>47.6</ele>
        <time>2021-11-05T13:01:53Z</time>
      </trkpt>
      <trkpt lat="50.51852" lon="3.25193">
        <ele>46.8</ele>
        <time>2021-11-05T13:01:56Z</time>
      </trkpt>
      <trkpt lat="50.51829" lon="3.25202">
        <ele>46.4</ele>
        <time>2021-11-05T13:02:00Z</time>
      </trkpt>
      <trkpt lat="50.51807" lon="3.25209">
        <ele>45.8</ele>
        <time>2021-11-05T13:02:04Z</time>
      </trkpt>
      <trkpt lat="50.51781" lon="3.25208">
        <ele>45</ele>
        <time>2021-11-05T13:02:08Z</time>
      </trkpt>
      <trkpt lat="50.51755" lon="3.25208">
        <ele>44.6</ele>
        <time>2021-11-05T13:02:12Z</time>
      </trkpt>
      <trkpt lat="50.51729" lon="3.25207">
        <ele>44.2</ele>
        <time>2021-11-05T13:02:16Z</time>
      </trkpt>
      <trkpt lat="50.51704" lon="3.25206">
        <ele>43.8</ele>
        <time>2021-11-05T13:02:20Z</time>
      </trkpt>
      <trkpt lat="50.51673" lon="3.25198">
        <ele>43</ele>
        <time>2021-11-05T13:02:25Z</time>
      </trkpt>
      <trkpt lat="50.51642" lon="3.2519">
        <ele>42.6</ele>
        <time>2021-11-05T13:02:30Z</time>
      </trkpt>
      <trkpt lat="50.51625" lon="3.25189">
        <ele>42</ele>
        <time>2021-11-05T13:02:33Z</time>
      </trkpt>
      <trkpt lat="50.51613" lon="3.25193">
        <ele>41.6</ele>
        <time>2021-11-05T13:02:35Z</time>
      </trkpt>
      <trkpt lat="50.51595" lon="3.25212">
        <ele>41</ele>
        <time>2021-11-05T13:02:38Z</time>
      </trkpt>
      <trkpt lat="50.51577" lon="3.25232">
        <ele>40.8</ele>
        <time>2021-11-05T13:02:42Z</time>
      </trkpt>
      <trkpt lat="50.51559" lon="3.25248">
        <ele>40.4</ele>
        <time>2021-11-05T13:02:45Z</time>
      </trkpt>
      <trkpt lat="50.5154" lon="3.25265">
        <ele>40.4</ele>
        <time>2021-11-05T13:02:49Z</time>
      </trkpt>
      <trkpt lat="50.51523" lon="3.25299">
        <ele>40.2</ele>
        <time>2021-11-05T13:02:53Z</time>
      </trkpt>
      <trkpt lat="50.51506" lon="3.25333">
        <ele>40</ele>
        <time>2021-11-05T13:02:58Z</time>
      </trkpt>
      <trkpt lat="50.51489" lon="3.25368">
        <ele>40</ele>
        <time>2021-11-05T13:03:02Z</time>
      </trkpt>
      <trkpt lat="50.51472" lon="3.25402">
        <ele>39.8</ele>
        <time>2021-11-05T13:03:07Z</time>
      </trkpt>
      <trkpt lat="50.51455" lon="3.25436">
        <ele>39.8</ele>
        <time>2021-11-05T13:03:11Z</time>
      </trkpt>
      <trkpt lat="50.51436" lon="3.25458">
        <ele>39.8</ele>
        <time>2021-11-05T13:03:15Z</time>
      </trkpt>
      <trkpt lat="50.51419" lon="3.25473">
        <ele>39.8</ele>
        <time>2021-11-05T13:03:18Z</time>
      </trkpt>
      <trkpt lat="50.51402" lon="3.25488">
        <ele>39.8</ele>
        <time>2021-11-05T13:03:21Z</time>
      </trkpt>
      <trkpt lat="50.51385" lon="3.25502">
        <ele>39.8</ele>
        <time>2021-11-05T13:03:24Z</time>
      </trkpt>
      <trkpt lat="50.51368" lon="3.25516">
        <ele>39.8</ele>
        <time>2021-11-05T13:03:27Z</time>
      </trkpt>
      <trkpt lat="50.51354" lon="3.2552">
        <ele>40</ele>
        <time>2021-11-05T13:03:29Z</time>
      </trkpt>
      <trkpt lat="50.5135" lon="3.25516">
        <ele>40.4</ele>
        <time>2021-11-05T13:03:30Z</time>
      </trkpt>
      <trkpt lat="50.51347" lon="3.25514">
        <ele>40.8</ele>
        <time>2021-11-05T13:03:31Z</time>
      </trkpt>
      <trkpt lat="50.51329" lon="3.25497">
        <ele>41</ele>
        <time>2021-11-05T13:03:34Z</time>
      </trkpt>
      <trkpt lat="50.51311" lon="3.2548">
        <ele>41.2</ele>
        <time>2021-11-05T13:03:37Z</time>
      </trkpt>
      <trkpt lat="50.51293" lon="3.25464">
        <ele>41.2</ele>
        <time>2021-11-05T13:03:41Z</time>
      </trkpt>
      <trkpt lat="50.51272" lon="3.25447">
        <ele>41.4</ele>
        <time>2021-11-05T13:03:44Z</time>
      </trkpt>
      <trkpt lat="50.51252" lon="3.2543">
        <ele>41.6</ele>
        <time>2021-11-05T13:03:48Z</time>
      </trkpt>
      <trkpt lat="50.51239" lon="3.25411">
        <ele>41.8</ele>
        <time>2021-11-05T13:03:51Z</time>
      </trkpt>
      <trkpt lat="50.51226" lon="3.25393">
        <ele>41.8</ele>
        <time>2021-11-05T13:03:54Z</time>
      </trkpt>
      <trkpt lat="50.5121" lon="3.25367">
        <ele>42</ele>
        <time>2021-11-05T13:03:57Z</time>
      </trkpt>
      <trkpt lat="50.51195" lon="3.25342">
        <ele>42</ele>
        <time>2021-11-05T13:04:01Z</time>
      </trkpt>
      <trkpt lat="50.51179" lon="3.25317">
        <ele>42</ele>
        <time>2021-11-05T13:04:05Z</time>
      </trkpt>
      <trkpt lat="50.51156" lon="3.25282">
        <ele>42</ele>
        <time>2021-11-05T13:04:10Z</time>
      </trkpt>
      <trkpt lat="50.51142" lon="3.25267">
        <ele>42</ele>
        <time>2021-11-05T13:04:12Z</time>
      </trkpt>
      <trkpt lat="50.51127" lon="3.25251">
        <ele>42</ele>
        <time>2021-11-05T13:04:15Z</time>
      </trkpt>
      <trkpt lat="50.51106" lon="3.25221">
        <ele>42.2</ele>
        <time>2021-11-05T13:04:20Z</time>
      </trkpt>
      <trkpt lat="50.51085" lon="3.25187">
        <ele>42.2</ele>
        <time>2021-11-05T13:04:25Z</time>
      </trkpt>
      <trkpt lat="50.51063" lon="3.25152">
        <ele>42.4</ele>
        <time>2021-11-05T13:04:30Z</time>
      </trkpt>
      <trkpt lat="50.51042" lon="3.25118">
        <ele>42.4</ele>
        <time>2021-11-05T13:04:35Z</time>
      </trkpt>
      <trkpt lat="50.51021" lon="3.25084">
        <ele>42.6</ele>
        <time>2021-11-05T13:04:39Z</time>
      </trkpt>
      <trkpt lat="50.50999" lon="3.25049">
        <ele>42.6</ele>
        <time>2021-11-05T13:04:44Z</time>
      </trkpt>
      <trkpt lat="50.50978" lon="3.25015">
        <ele>42.8</ele>
        <time>2021-11-05T13:04:49Z</time>
      </trkpt>
      <trkpt lat="50.50956" lon="3.2498">
        <ele>42.8</ele>
        <time>2021-11-05T13:04:54Z</time>
      </trkpt>
      <trkpt lat="50.50935" lon="3.24946">
        <ele>43</ele>
        <time>2021-11-05T13:04:59Z</time>
      </trkpt>
      <trkpt lat="50.50917" lon="3.2492">
        <ele>43.2</ele>
        <time>2021-11-05T13:05:03Z</time>
      </trkpt>
      <trkpt lat="50.50892" lon="3.24894">
        <ele>43.6</ele>
        <time>2021-11-05T13:05:08Z</time>
      </trkpt>
      <trkpt lat="50.50868" lon="3.24869">
        <ele>43.6</ele>
        <time>2021-11-05T13:05:13Z</time>
      </trkpt>
      <trkpt lat="50.50857" lon="3.24862">
        <ele>44</ele>
        <time>2021-11-05T13:05:14Z</time>
      </trkpt>
      <trkpt lat="50.5084" lon="3.24837">
        <ele>44.4</ele>
        <time>2021-11-05T13:05:18Z</time>
      </trkpt>
      <trkpt lat="50.50831" lon="3.24821">
        <ele>44.6</ele>
        <time>2021-11-05T13:05:20Z</time>
      </trkpt>
      <trkpt lat="50.5082" lon="3.24785">
        <ele>44.8</ele>
        <time>2021-11-05T13:05:24Z</time>
      </trkpt>
      <trkpt lat="50.50795" lon="3.24769">
        <ele>45.2</ele>
        <time>2021-11-05T13:05:29Z</time>
      </trkpt>
      <trkpt lat="50.50774" lon="3.24744">
        <ele>45.4</ele>
        <time>2021-11-05T13:05:33Z</time>
      </trkpt>
      <trkpt lat="50.50753" lon="3.24718">
        <ele>45.4</ele>
        <time>2021-11-05T13:05:37Z</time>
      </trkpt>
      <trkpt lat="50.50733" lon="3.24692">
        <ele>45.6</ele>
        <time>2021-11-05T13:05:41Z</time>
      </trkpt>
      <trkpt lat="50.50716" lon="3.24674">
        <ele>45.8</ele>
        <time>2021-11-05T13:05:45Z</time>
      </trkpt>
      <trkpt lat="50.507" lon="3.24656">
        <ele>45.8</ele>
        <time>2021-11-05T13:05:48Z</time>
      </trkpt>
      <trkpt lat="50.50689" lon="3.24634">
        <ele>45.8</ele>
        <time>2021-11-05T13:05:51Z</time>
      </trkpt>
      <trkpt lat="50.50676" lon="3.24603">
        <ele>46</ele>
        <time>2021-11-05T13:05:54Z</time>
      </trkpt>
      <trkpt lat="50.50664" lon="3.24572">
        <ele>46</ele>
        <time>2021-11-05T13:05:58Z</time>
      </trkpt>
      <trkpt lat="50.50651" lon="3.24541">
        <ele>46</ele>
        <time>2021-11-05T13:06:02Z</time>
      </trkpt>
      <trkpt lat="50.50641" lon="3.24523">
        <ele>46</ele>
        <time>2021-11-05T13:06:04Z</time>
      </trkpt>
      <trkpt lat="50.50632" lon="3.2451">
        <ele>46</ele>
        <time>2021-11-05T13:06:06Z</time>
      </trkpt>
      <trkpt lat="50.5062" lon="3.24501">
        <ele>45.8</ele>
        <time>2021-11-05T13:06:08Z</time>
      </trkpt>
      <trkpt lat="50.50611" lon="3.245">
        <ele>45.8</ele>
        <time>2021-11-05T13:06:10Z</time>
      </trkpt>
      <trkpt lat="50.5061" lon="3.2446">
        <ele>45.8</ele>
        <time>2021-11-05T13:06:14Z</time>
      </trkpt>
      <trkpt lat="50.50609" lon="3.2442">
        <ele>45.8</ele>
        <time>2021-11-05T13:06:18Z</time>
      </trkpt>
      <trkpt lat="50.50607" lon="3.24381">
        <ele>45.8</ele>
        <time>2021-11-05T13:06:22Z</time>
      </trkpt>
      <trkpt lat="50.50601" lon="3.2438">
        <ele>45.8</ele>
        <time>2021-11-05T13:06:23Z</time>
      </trkpt>
      <trkpt lat="50.50592" lon="3.24384">
        <ele>45.8</ele>
        <time>2021-11-05T13:06:24Z</time>
      </trkpt>
      <trkpt lat="50.50564" lon="3.24402">
        <ele>45.8</ele>
        <time>2021-11-05T13:06:29Z</time>
      </trkpt>
      <trkpt lat="50.50538" lon="3.24424">
        <ele>46</ele>
        <time>2021-11-05T13:06:34Z</time>
      </trkpt>
      <trkpt lat="50.50513" lon="3.24445">
        <ele>45.8</ele>
        <time>2021-11-05T13:06:39Z</time>
      </trkpt>
      <trkpt lat="50.50499" lon="3.24461">
        <ele>45.8</ele>
        <time>2021-11-05T13:06:41Z</time>
      </trkpt>
      <trkpt lat="50.50486" lon="3.24483">
        <ele>46</ele>
        <time>2021-11-05T13:06:44Z</time>
      </trkpt>
      <trkpt lat="50.50475" lon="3.24504">
        <ele>46</ele>
        <time>2021-11-05T13:06:47Z</time>
      </trkpt>
      <trkpt lat="50.50464" lon="3.24526">
        <ele>46.2</ele>
        <time>2021-11-05T13:06:50Z</time>
      </trkpt>
      <trkpt lat="50.5045" lon="3.24549">
        <ele>46.2</ele>
        <time>2021-11-05T13:06:53Z</time>
      </trkpt>
      <trkpt lat="50.5043" lon="3.24575">
        <ele>46.4</ele>
        <time>2021-11-05T13:06:57Z</time>
      </trkpt>
      <trkpt lat="50.5042" lon="3.24587">
        <ele>46.6</ele>
        <time>2021-11-05T13:06:59Z</time>
      </trkpt>
      <trkpt lat="50.50416" lon="3.24587">
        <ele>46.8</ele>
        <time>2021-11-05T13:07:00Z</time>
      </trkpt>
      <trkpt lat="50.50393" lon="3.24566">
        <ele>47</ele>
        <time>2021-11-05T13:07:04Z</time>
      </trkpt>
      <trkpt lat="50.50368" lon="3.24558">
        <ele>47</ele>
        <time>2021-11-05T13:07:09Z</time>
      </trkpt>
      <trkpt lat="50.50343" lon="3.24551">
        <ele>47</ele>
        <time>2021-11-05T13:07:13Z</time>
      </trkpt>
      <trkpt lat="50.50318" lon="3.24544">
        <ele>47</ele>
        <time>2021-11-05T13:07:17Z</time>
      </trkpt>
      <trkpt lat="50.50293" lon="3.24536">
        <ele>47.2</ele>
        <time>2021-11-05T13:07:21Z</time>
      </trkpt>
      <trkpt lat="50.50268" lon="3.24529">
        <ele>47.2</ele>
        <time>2021-11-05T13:07:25Z</time>
      </trkpt>
      <trkpt lat="50.5024" lon="3.24522">
        <ele>47.2</ele>
        <time>2021-11-05T13:07:29Z</time>
      </trkpt>
      <trkpt lat="50.50211" lon="3.24515">
        <ele>47.4</ele>
        <time>2021-11-05T13:07:34Z</time>
      </trkpt>
      <trkpt lat="50.50193" lon="3.24516">
        <ele>47.6</ele>
        <time>2021-11-05T13:07:37Z</time>
      </trkpt>
      <trkpt lat="50.50176" lon="3.24516">
        <ele>47.6</ele>
        <time>2021-11-05T13:07:40Z</time>
      </trkpt>
      <trkpt lat="50.50156" lon="3.24518">
        <ele>47.8</ele>
        <time>2021-11-05T13:07:43Z</time>
      </trkpt>
      <trkpt lat="50.50137" lon="3.24524">
        <ele>47.8</ele>
        <time>2021-11-05T13:07:46Z</time>
      </trkpt>
      <trkpt lat="50.50115" lon="3.24533">
        <ele>48</ele>
        <time>2021-11-05T13:07:50Z</time>
      </trkpt>
      <trkpt lat="50.50099" lon="3.24534">
        <ele>48.2</ele>
        <time>2021-11-05T13:07:52Z</time>
      </trkpt>
      <trkpt lat="50.50076" lon="3.24528">
        <ele>48.4</ele>
        <time>2021-11-05T13:07:56Z</time>
      </trkpt>
      <trkpt lat="50.50052" lon="3.24505">
        <ele>48.6</ele>
        <time>2021-11-05T13:08:00Z</time>
      </trkpt>
      <trkpt lat="50.50043" lon="3.24522">
        <ele>48.8</ele>
        <time>2021-11-05T13:08:03Z</time>
      </trkpt>
      <trkpt lat="50.50036" lon="3.24508">
        <ele>49.2</ele>
        <time>2021-11-05T13:08:04Z</time>
      </trkpt>
      <trkpt lat="50.50035" lon="3.24506">
        <ele>49.4</ele>
        <time>2021-11-05T13:08:05Z</time>
      </trkpt>
      <trkpt lat="50.50015" lon="3.24479">
        <ele>49.4</ele>
        <time>2021-11-05T13:08:09Z</time>
      </trkpt>
      <trkpt lat="50.49995" lon="3.24451">
        <ele>49.4</ele>
        <time>2021-11-05T13:08:13Z</time>
      </trkpt>
      <trkpt lat="50.49975" lon="3.24424">
        <ele>49.4</ele>
        <time>2021-11-05T13:08:17Z</time>
      </trkpt>
      <trkpt lat="50.49955" lon="3.24396">
        <ele>49.4</ele>
        <time>2021-11-05T13:08:22Z</time>
      </trkpt>
      <trkpt lat="50.49935" lon="3.24369">
        <ele>49.4</ele>
        <time>2021-11-05T13:08:26Z</time>
      </trkpt>
      <trkpt lat="50.49913" lon="3.24342">
        <ele>49.4</ele>
        <time>2021-11-05T13:08:30Z</time>
      </trkpt>
      <trkpt lat="50.49891" lon="3.2432">
        <ele>49.4</ele>
        <time>2021-11-05T13:08:34Z</time>
      </trkpt>
      <trkpt lat="50.49873" lon="3.24309">
        <ele>49.6</ele>
        <time>2021-11-05T13:08:38Z</time>
      </trkpt>
      <trkpt lat="50.49855" lon="3.24297">
        <ele>49.6</ele>
        <time>2021-11-05T13:08:41Z</time>
      </trkpt>
      <trkpt lat="50.49847" lon="3.24289">
        <ele>49.6</ele>
        <time>2021-11-05T13:08:42Z</time>
      </trkpt>
      <trkpt lat="50.49837" lon="3.24266">
        <ele>49.6</ele>
        <time>2021-11-05T13:08:45Z</time>
      </trkpt>
      <trkpt lat="50.4983" lon="3.24225">
        <ele>49.6</ele>
        <time>2021-11-05T13:08:49Z</time>
      </trkpt>
      <trkpt lat="50.49824" lon="3.24184">
        <ele>49.6</ele>
        <time>2021-11-05T13:08:54Z</time>
      </trkpt>
      <trkpt lat="50.49817" lon="3.24143">
        <ele>49.6</ele>
        <time>2021-11-05T13:08:58Z</time>
      </trkpt>
      <trkpt lat="50.49814" lon="3.24115">
        <ele>49.4</ele>
        <time>2021-11-05T13:09:01Z</time>
      </trkpt>
      <trkpt lat="50.49811" lon="3.24087">
        <ele>49.2</ele>
        <time>2021-11-05T13:09:04Z</time>
      </trkpt>
      <trkpt lat="50.49809" lon="3.24057">
        <ele>49</ele>
        <time>2021-11-05T13:09:07Z</time>
      </trkpt>
      <trkpt lat="50.49808" lon="3.24027">
        <ele>48.8</ele>
        <time>2021-11-05T13:09:10Z</time>
      </trkpt>
      <trkpt lat="50.49806" lon="3.23982">
        <ele>48.4</ele>
        <time>2021-11-05T13:09:15Z</time>
      </trkpt>
      <trkpt lat="50.49804" lon="3.23938">
        <ele>48.2</ele>
        <time>2021-11-05T13:09:19Z</time>
      </trkpt>
      <trkpt lat="50.49802" lon="3.23894">
        <ele>48</ele>
        <time>2021-11-05T13:09:24Z</time>
      </trkpt>
      <trkpt lat="50.49806" lon="3.23864">
        <ele>47.8</ele>
        <time>2021-11-05T13:09:27Z</time>
      </trkpt>
      <trkpt lat="50.4981" lon="3.23854">
        <ele>47.4</ele>
        <time>2021-11-05T13:09:28Z</time>
      </trkpt>
      <trkpt lat="50.49826" lon="3.23831">
        <ele>46.8</ele>
        <time>2021-11-05T13:09:31Z</time>
      </trkpt>
      <trkpt lat="50.49828" lon="3.23821">
        <ele>46.4</ele>
        <time>2021-11-05T13:09:33Z</time>
      </trkpt>
      <trkpt lat="50.49829" lon="3.2381">
        <ele>45.8</ele>
        <time>2021-11-05T13:09:34Z</time>
      </trkpt>
      <trkpt lat="50.49828" lon="3.23797">
        <ele>45.4</ele>
        <time>2021-11-05T13:09:35Z</time>
      </trkpt>
      <trkpt lat="50.49817" lon="3.23766">
        <ele>44.8</ele>
        <time>2021-11-05T13:09:39Z</time>
      </trkpt>
      <trkpt lat="50.49807" lon="3.23734">
        <ele>44.6</ele>
        <time>2021-11-05T13:09:42Z</time>
      </trkpt>
      <trkpt lat="50.49794" lon="3.23706">
        <ele>44</ele>
        <time>2021-11-05T13:09:46Z</time>
      </trkpt>
      <trkpt lat="50.49782" lon="3.23677">
        <ele>43.8</ele>
        <time>2021-11-05T13:09:49Z</time>
      </trkpt>
      <trkpt lat="50.49772" lon="3.23657">
        <ele>42.8</ele>
        <time>2021-11-05T13:09:52Z</time>
      </trkpt>
      <trkpt lat="50.49757" lon="3.23629">
        <ele>42.2</ele>
        <time>2021-11-05T13:09:56Z</time>
      </trkpt>
      <trkpt lat="50.49741" lon="3.23588">
        <ele>41.8</ele>
        <time>2021-11-05T13:10:01Z</time>
      </trkpt>
      <trkpt lat="50.49724" lon="3.23548">
        <ele>41.6</ele>
        <time>2021-11-05T13:10:05Z</time>
      </trkpt>
      <trkpt lat="50.49707" lon="3.23507">
        <ele>41.2</ele>
        <time>2021-11-05T13:10:10Z</time>
      </trkpt>
      <trkpt lat="50.49691" lon="3.23466">
        <ele>41</ele>
        <time>2021-11-05T13:10:15Z</time>
      </trkpt>
      <trkpt lat="50.49674" lon="3.23426">
        <ele>40.8</ele>
        <time>2021-11-05T13:10:20Z</time>
      </trkpt>
      <trkpt lat="50.49658" lon="3.23385">
        <ele>40.4</ele>
        <time>2021-11-05T13:10:25Z</time>
      </trkpt>
      <trkpt lat="50.49657" lon="3.2337">
        <ele>40</ele>
        <time>2021-11-05T13:10:27Z</time>
      </trkpt>
      <trkpt lat="50.49659" lon="3.2334">
        <ele>39.6</ele>
        <time>2021-11-05T13:10:30Z</time>
      </trkpt>
      <trkpt lat="50.49662" lon="3.23309">
        <ele>39.6</ele>
        <time>2021-11-05T13:10:33Z</time>
      </trkpt>
      <trkpt lat="50.49658" lon="3.23289">
        <ele>39.4</ele>
        <time>2021-11-05T13:10:35Z</time>
      </trkpt>
      <trkpt lat="50.49645" lon="3.23261">
        <ele>39.2</ele>
        <time>2021-11-05T13:10:39Z</time>
      </trkpt>
      <trkpt lat="50.4963" lon="3.23241">
        <ele>39</ele>
        <time>2021-11-05T13:10:42Z</time>
      </trkpt>
      <trkpt lat="50.49617" lon="3.23225">
        <ele>39</ele>
        <time>2021-11-05T13:10:45Z</time>
      </trkpt>
      <trkpt lat="50.49598" lon="3.2321">
        <ele>39</ele>
        <time>2021-11-05T13:10:48Z</time>
      </trkpt>
      <trkpt lat="50.49582" lon="3.23201">
        <ele>39</ele>
        <time>2021-11-05T13:10:51Z</time>
      </trkpt>
      <trkpt lat="50.49566" lon="3.23191">
        <ele>39</ele>
        <time>2021-11-05T13:10:53Z</time>
      </trkpt>
      <trkpt lat="50.49571" lon="3.23176">
        <ele>39.2</ele>
        <time>2021-11-05T13:10:55Z</time>
      </trkpt>
      <trkpt lat="50.49575" lon="3.23165">
        <ele>39.6</ele>
        <time>2021-11-05T13:10:56Z</time>
      </trkpt>
      <trkpt lat="50.49591" lon="3.23126">
        <ele>39.8</ele>
        <time>2021-11-05T13:11:01Z</time>
      </trkpt>
      <trkpt lat="50.49607" lon="3.23086">
        <ele>39.8</ele>
        <time>2021-11-05T13:11:06Z</time>
      </trkpt>
      <trkpt lat="50.49623" lon="3.23047">
        <ele>40</ele>
        <time>2021-11-05T13:11:11Z</time>
      </trkpt>
      <trkpt lat="50.49639" lon="3.23008">
        <ele>40</ele>
        <time>2021-11-05T13:11:15Z</time>
      </trkpt>
      <trkpt lat="50.49657" lon="3.22973">
        <ele>40.2</ele>
        <time>2021-11-05T13:11:20Z</time>
      </trkpt>
      <trkpt lat="50.49675" lon="3.22938">
        <ele>40.2</ele>
        <time>2021-11-05T13:11:25Z</time>
      </trkpt>
      <trkpt lat="50.49693" lon="3.22903">
        <ele>40.2</ele>
        <time>2021-11-05T13:11:29Z</time>
      </trkpt>
      <trkpt lat="50.49711" lon="3.22868">
        <ele>40.4</ele>
        <time>2021-11-05T13:11:34Z</time>
      </trkpt>
      <trkpt lat="50.49728" lon="3.22833">
        <ele>40.6</ele>
        <time>2021-11-05T13:11:38Z</time>
      </trkpt>
      <trkpt lat="50.49739" lon="3.22814">
        <ele>40.8</ele>
        <time>2021-11-05T13:11:41Z</time>
      </trkpt>
      <trkpt lat="50.4975" lon="3.22795">
        <ele>40.8</ele>
        <time>2021-11-05T13:11:43Z</time>
      </trkpt>
      <trkpt lat="50.49763" lon="3.22766">
        <ele>40.8</ele>
        <time>2021-11-05T13:11:47Z</time>
      </trkpt>
      <trkpt lat="50.49774" lon="3.22721">
        <ele>41</ele>
        <time>2021-11-05T13:11:52Z</time>
      </trkpt>
      <trkpt lat="50.49785" lon="3.22676">
        <ele>41</ele>
        <time>2021-11-05T13:11:57Z</time>
      </trkpt>
      <trkpt lat="50.4979" lon="3.22631">
        <ele>41.2</ele>
        <time>2021-11-05T13:12:02Z</time>
      </trkpt>
      <trkpt lat="50.49794" lon="3.22587">
        <ele>41.2</ele>
        <time>2021-11-05T13:12:06Z</time>
      </trkpt>
      <trkpt lat="50.49798" lon="3.22542">
        <ele>41.2</ele>
        <time>2021-11-05T13:12:11Z</time>
      </trkpt>
      <trkpt lat="50.49807" lon="3.22502">
        <ele>41.2</ele>
        <time>2021-11-05T13:12:15Z</time>
      </trkpt>
      <trkpt lat="50.49815" lon="3.22463">
        <ele>41.4</ele>
        <time>2021-11-05T13:12:19Z</time>
      </trkpt>
      <trkpt lat="50.49817" lon="3.22433">
        <ele>41.4</ele>
        <time>2021-11-05T13:12:22Z</time>
      </trkpt>
      <trkpt lat="50.4982" lon="3.22403">
        <ele>41.4</ele>
        <time>2021-11-05T13:12:26Z</time>
      </trkpt>
      <trkpt lat="50.49824" lon="3.22365">
        <ele>41.4</ele>
        <time>2021-11-05T13:12:29Z</time>
      </trkpt>
      <trkpt lat="50.49829" lon="3.22327">
        <ele>41.4</ele>
        <time>2021-11-05T13:12:33Z</time>
      </trkpt>
      <trkpt lat="50.49835" lon="3.22306">
        <ele>41.4</ele>
        <time>2021-11-05T13:12:36Z</time>
      </trkpt>
      <trkpt lat="50.4984" lon="3.22289">
        <ele>41.4</ele>
        <time>2021-11-05T13:12:38Z</time>
      </trkpt>
      <trkpt lat="50.49856" lon="3.2226">
        <ele>41.6</ele>
        <time>2021-11-05T13:12:42Z</time>
      </trkpt>
      <trkpt lat="50.49872" lon="3.22232">
        <ele>41.6</ele>
        <time>2021-11-05T13:12:45Z</time>
      </trkpt>
      <trkpt lat="50.49886" lon="3.22205">
        <ele>41.6</ele>
        <time>2021-11-05T13:12:49Z</time>
      </trkpt>
      <trkpt lat="50.499" lon="3.22178">
        <ele>41.8</ele>
        <time>2021-11-05T13:12:53Z</time>
      </trkpt>
      <trkpt lat="50.49914" lon="3.2215">
        <ele>41.8</ele>
        <time>2021-11-05T13:12:56Z</time>
      </trkpt>
      <trkpt lat="50.49931" lon="3.2212">
        <ele>42</ele>
        <time>2021-11-05T13:13:00Z</time>
      </trkpt>
      <trkpt lat="50.49949" lon="3.2209">
        <ele>42.2</ele>
        <time>2021-11-05T13:13:04Z</time>
      </trkpt>
      <trkpt lat="50.49966" lon="3.22059">
        <ele>42.4</ele>
        <time>2021-11-05T13:13:09Z</time>
      </trkpt>
      <trkpt lat="50.49984" lon="3.22029">
        <ele>42.4</ele>
        <time>2021-11-05T13:13:13Z</time>
      </trkpt>
      <trkpt lat="50.50002" lon="3.21999">
        <ele>42.6</ele>
        <time>2021-11-05T13:13:17Z</time>
      </trkpt>
      <trkpt lat="50.50021" lon="3.21969">
        <ele>42.6</ele>
        <time>2021-11-05T13:13:21Z</time>
      </trkpt>
      <trkpt lat="50.50039" lon="3.21939">
        <ele>42.6</ele>
        <time>2021-11-05T13:13:26Z</time>
      </trkpt>
      <trkpt lat="50.50058" lon="3.21909">
        <ele>42.6</ele>
        <time>2021-11-05T13:13:30Z</time>
      </trkpt>
      <trkpt lat="50.50071" lon="3.21878">
        <ele>42.8</ele>
        <time>2021-11-05T13:13:34Z</time>
      </trkpt>
      <trkpt lat="50.50085" lon="3.21848">
        <ele>42.8</ele>
        <time>2021-11-05T13:13:37Z</time>
      </trkpt>
      <trkpt lat="50.50095" lon="3.21834">
        <ele>42.8</ele>
        <time>2021-11-05T13:13:40Z</time>
      </trkpt>
      <trkpt lat="50.50115" lon="3.2182">
        <ele>42.8</ele>
        <time>2021-11-05T13:13:43Z</time>
      </trkpt>
      <trkpt lat="50.50134" lon="3.21806">
        <ele>42.8</ele>
        <time>2021-11-05T13:13:47Z</time>
      </trkpt>
      <trkpt lat="50.50156" lon="3.21789">
        <ele>42.4</ele>
        <time>2021-11-05T13:13:50Z</time>
      </trkpt>
      <trkpt lat="50.50163" lon="3.21785">
        <ele>42.4</ele>
        <time>2021-11-05T13:13:52Z</time>
      </trkpt>
      <trkpt lat="50.50175" lon="3.21765">
        <ele>42.4</ele>
        <time>2021-11-05T13:13:54Z</time>
      </trkpt>
      <trkpt lat="50.50182" lon="3.21746">
        <ele>42.6</ele>
        <time>2021-11-05T13:13:57Z</time>
      </trkpt>
      <trkpt lat="50.50181" lon="3.21732">
        <ele>42.8</ele>
        <time>2021-11-05T13:13:58Z</time>
      </trkpt>
      <trkpt lat="50.50173" lon="3.21717">
        <ele>43</ele>
        <time>2021-11-05T13:14:00Z</time>
      </trkpt>
      <trkpt lat="50.5015" lon="3.21683">
        <ele>43.2</ele>
        <time>2021-11-05T13:14:05Z</time>
      </trkpt>
      <trkpt lat="50.50127" lon="3.21648">
        <ele>43.4</ele>
        <time>2021-11-05T13:14:10Z</time>
      </trkpt>
      <trkpt lat="50.50105" lon="3.21618">
        <ele>43.8</ele>
        <time>2021-11-05T13:14:15Z</time>
      </trkpt>
      <trkpt lat="50.50084" lon="3.21588">
        <ele>44</ele>
        <time>2021-11-05T13:14:20Z</time>
      </trkpt>
      <trkpt lat="50.50072" lon="3.21569">
        <ele>44.4</ele>
        <time>2021-11-05T13:14:22Z</time>
      </trkpt>
      <trkpt lat="50.50061" lon="3.2155">
        <ele>44.6</ele>
        <time>2021-11-05T13:14:25Z</time>
      </trkpt>
      <trkpt lat="50.50053" lon="3.21529">
        <ele>45</ele>
        <time>2021-11-05T13:14:27Z</time>
      </trkpt>
      <trkpt lat="50.50056" lon="3.21513">
        <ele>45.2</ele>
        <time>2021-11-05T13:14:29Z</time>
      </trkpt>
      <trkpt lat="50.50063" lon="3.21488">
        <ele>45.4</ele>
        <time>2021-11-05T13:14:32Z</time>
      </trkpt>
      <trkpt lat="50.5007" lon="3.21464">
        <ele>45.6</ele>
        <time>2021-11-05T13:14:35Z</time>
      </trkpt>
      <trkpt lat="50.50081" lon="3.21424">
        <ele>45.8</ele>
        <time>2021-11-05T13:14:39Z</time>
      </trkpt>
      <trkpt lat="50.50092" lon="3.21383">
        <ele>46</ele>
        <time>2021-11-05T13:14:43Z</time>
      </trkpt>
      <trkpt lat="50.50104" lon="3.21343">
        <ele>46</ele>
        <time>2021-11-05T13:14:48Z</time>
      </trkpt>
      <trkpt lat="50.50115" lon="3.21303">
        <ele>46.2</ele>
        <time>2021-11-05T13:14:52Z</time>
      </trkpt>
      <trkpt lat="50.50126" lon="3.21263">
        <ele>46.4</ele>
        <time>2021-11-05T13:14:57Z</time>
      </trkpt>
      <trkpt lat="50.50138" lon="3.21223">
        <ele>46.6</ele>
        <time>2021-11-05T13:15:01Z</time>
      </trkpt>
      <trkpt lat="50.50149" lon="3.21184">
        <ele>46.6</ele>
        <time>2021-11-05T13:15:06Z</time>
      </trkpt>
      <trkpt lat="50.5016" lon="3.21144">
        <ele>46.6</ele>
        <time>2021-11-05T13:15:10Z</time>
      </trkpt>
      <trkpt lat="50.50171" lon="3.21108">
        <ele>46.6</ele>
        <time>2021-11-05T13:15:14Z</time>
      </trkpt>
      <trkpt lat="50.50183" lon="3.21071">
        <ele>46.6</ele>
        <time>2021-11-05T13:15:19Z</time>
      </trkpt>
      <trkpt lat="50.50194" lon="3.21035">
        <ele>46.6</ele>
        <time>2021-11-05T13:15:23Z</time>
      </trkpt>
      <trkpt lat="50.50205" lon="3.20998">
        <ele>46.6</ele>
        <time>2021-11-05T13:15:27Z</time>
      </trkpt>
      <trkpt lat="50.50216" lon="3.20962">
        <ele>46.6</ele>
        <time>2021-11-05T13:15:31Z</time>
      </trkpt>
      <trkpt lat="50.50226" lon="3.20925">
        <ele>46.8</ele>
        <time>2021-11-05T13:15:35Z</time>
      </trkpt>
      <trkpt lat="50.50237" lon="3.20889">
        <ele>46.6</ele>
        <time>2021-11-05T13:15:39Z</time>
      </trkpt>
      <trkpt lat="50.50249" lon="3.20848">
        <ele>46.8</ele>
        <time>2021-11-05T13:15:44Z</time>
      </trkpt>
      <trkpt lat="50.50253" lon="3.20829">
        <ele>46.8</ele>
        <time>2021-11-05T13:15:46Z</time>
      </trkpt>
      <trkpt lat="50.50255" lon="3.20784">
        <ele>47</ele>
        <time>2021-11-05T13:15:50Z</time>
      </trkpt>
      <trkpt lat="50.50257" lon="3.2074">
        <ele>47</ele>
        <time>2021-11-05T13:15:55Z</time>
      </trkpt>
      <trkpt lat="50.50259" lon="3.20696">
        <ele>47</ele>
        <time>2021-11-05T13:15:59Z</time>
      </trkpt>
      <trkpt lat="50.5026" lon="3.20668">
        <ele>47</ele>
        <time>2021-11-05T13:16:02Z</time>
      </trkpt>
      <trkpt lat="50.50261" lon="3.20641">
        <ele>47</ele>
        <time>2021-11-05T13:16:05Z</time>
      </trkpt>
      <trkpt lat="50.50259" lon="3.20621">
        <ele>47.2</ele>
        <time>2021-11-05T13:16:07Z</time>
      </trkpt>
      <trkpt lat="50.50257" lon="3.20601">
        <ele>47.2</ele>
        <time>2021-11-05T13:16:09Z</time>
      </trkpt>
      <trkpt lat="50.50255" lon="3.20586">
        <ele>47.2</ele>
        <time>2021-11-05T13:16:11Z</time>
      </trkpt>
      <trkpt lat="50.50255" lon="3.20549">
        <ele>47.2</ele>
        <time>2021-11-05T13:16:14Z</time>
      </trkpt>
      <trkpt lat="50.50254" lon="3.20508">
        <ele>47.2</ele>
        <time>2021-11-05T13:16:19Z</time>
      </trkpt>
      <trkpt lat="50.50252" lon="3.20468">
        <ele>47.4</ele>
        <time>2021-11-05T13:16:23Z</time>
      </trkpt>
      <trkpt lat="50.50249" lon="3.20431">
        <ele>47.4</ele>
        <time>2021-11-05T13:16:27Z</time>
      </trkpt>
      <trkpt lat="50.50247" lon="3.20393">
        <ele>47.2</ele>
        <time>2021-11-05T13:16:30Z</time>
      </trkpt>
      <trkpt lat="50.50244" lon="3.20356">
        <ele>47.2</ele>
        <time>2021-11-05T13:16:34Z</time>
      </trkpt>
      <trkpt lat="50.50239" lon="3.20322">
        <ele>47</ele>
        <time>2021-11-05T13:16:38Z</time>
      </trkpt>
      <trkpt lat="50.50231" lon="3.20296">
        <ele>47</ele>
        <time>2021-11-05T13:16:41Z</time>
      </trkpt>
      <trkpt lat="50.50223" lon="3.20271">
        <ele>47</ele>
        <time>2021-11-05T13:16:44Z</time>
      </trkpt>
      <trkpt lat="50.50201" lon="3.20244">
        <ele>46.8</ele>
        <time>2021-11-05T13:16:48Z</time>
      </trkpt>
      <trkpt lat="50.50179" lon="3.20218">
        <ele>46.8</ele>
        <time>2021-11-05T13:16:53Z</time>
      </trkpt>
      <trkpt lat="50.50161" lon="3.20195">
        <ele>46.6</ele>
        <time>2021-11-05T13:16:56Z</time>
      </trkpt>
      <trkpt lat="50.50142" lon="3.20172">
        <ele>46.8</ele>
        <time>2021-11-05T13:17:00Z</time>
      </trkpt>
      <trkpt lat="50.50124" lon="3.20148">
        <ele>46.8</ele>
        <time>2021-11-05T13:17:04Z</time>
      </trkpt>
      <trkpt lat="50.5011" lon="3.20129">
        <ele>46.6</ele>
        <time>2021-11-05T13:17:07Z</time>
      </trkpt>
      <trkpt lat="50.50096" lon="3.20109">
        <ele>46.6</ele>
        <time>2021-11-05T13:17:10Z</time>
      </trkpt>
      <trkpt lat="50.50107" lon="3.20087">
        <ele>46.6</ele>
        <time>2021-11-05T13:17:13Z</time>
      </trkpt>
      <trkpt lat="50.50118" lon="3.20065">
        <ele>46.6</ele>
        <time>2021-11-05T13:17:15Z</time>
      </trkpt>
      <trkpt lat="50.50124" lon="3.20055">
        <ele>46.6</ele>
        <time>2021-11-05T13:17:17Z</time>
      </trkpt>
      <trkpt lat="50.5011" lon="3.20015">
        <ele>46.6</ele>
        <time>2021-11-05T13:17:22Z</time>
      </trkpt>
      <trkpt lat="50.50092" lon="3.19976">
        <ele>46.8</ele>
        <time>2021-11-05T13:17:27Z</time>
      </trkpt>
      <trkpt lat="50.50074" lon="3.19936">
        <ele>47</ele>
        <time>2021-11-05T13:17:32Z</time>
      </trkpt>
      <trkpt lat="50.50063" lon="3.19908">
        <ele>47.2</ele>
        <time>2021-11-05T13:17:35Z</time>
      </trkpt>
      <trkpt lat="50.50052" lon="3.19879">
        <ele>47.4</ele>
        <time>2021-11-05T13:17:38Z</time>
      </trkpt>
      <trkpt lat="50.50041" lon="3.19851">
        <ele>47.4</ele>
        <time>2021-11-05T13:17:42Z</time>
      </trkpt>
      <trkpt lat="50.50022" lon="3.19819">
        <ele>47.8</ele>
        <time>2021-11-05T13:17:46Z</time>
      </trkpt>
      <trkpt lat="50.50004" lon="3.19786">
        <ele>48</ele>
        <time>2021-11-05T13:17:51Z</time>
      </trkpt>
      <trkpt lat="50.49985" lon="3.19753">
        <ele>48.2</ele>
        <time>2021-11-05T13:17:55Z</time>
      </trkpt>
      <trkpt lat="50.49967" lon="3.19721">
        <ele>48.2</ele>
        <time>2021-11-05T13:18:00Z</time>
      </trkpt>
      <trkpt lat="50.49948" lon="3.19688">
        <ele>48.4</ele>
        <time>2021-11-05T13:18:04Z</time>
      </trkpt>
      <trkpt lat="50.49928" lon="3.19654">
        <ele>48.8</ele>
        <time>2021-11-05T13:18:09Z</time>
      </trkpt>
      <trkpt lat="50.49909" lon="3.19619">
        <ele>49</ele>
        <time>2021-11-05T13:18:13Z</time>
      </trkpt>
      <trkpt lat="50.49889" lon="3.19585">
        <ele>49.2</ele>
        <time>2021-11-05T13:18:18Z</time>
      </trkpt>
      <trkpt lat="50.49869" lon="3.19551">
        <ele>49.4</ele>
        <time>2021-11-05T13:18:23Z</time>
      </trkpt>
      <trkpt lat="50.4985" lon="3.19515">
        <ele>49.8</ele>
        <time>2021-11-05T13:18:28Z</time>
      </trkpt>
      <trkpt lat="50.49831" lon="3.1948">
        <ele>50</ele>
        <time>2021-11-05T13:18:32Z</time>
      </trkpt>
      <trkpt lat="50.49813" lon="3.19444">
        <ele>50.2</ele>
        <time>2021-11-05T13:18:37Z</time>
      </trkpt>
      <trkpt lat="50.49794" lon="3.19409">
        <ele>50.2</ele>
        <time>2021-11-05T13:18:42Z</time>
      </trkpt>
      <trkpt lat="50.4978" lon="3.19372">
        <ele>50.6</ele>
        <time>2021-11-05T13:18:46Z</time>
      </trkpt>
      <trkpt lat="50.49767" lon="3.19335">
        <ele>50.8</ele>
        <time>2021-11-05T13:18:50Z</time>
      </trkpt>
      <trkpt lat="50.49756" lon="3.19302">
        <ele>51</ele>
        <time>2021-11-05T13:18:54Z</time>
      </trkpt>
      <trkpt lat="50.49746" lon="3.19269">
        <ele>51</ele>
        <time>2021-11-05T13:18:58Z</time>
      </trkpt>
      <trkpt lat="50.49739" lon="3.19255">
        <ele>51.4</ele>
        <time>2021-11-05T13:19:00Z</time>
      </trkpt>
      <trkpt lat="50.49722" lon="3.1923">
        <ele>51.6</ele>
        <time>2021-11-05T13:19:04Z</time>
      </trkpt>
      <trkpt lat="50.49699" lon="3.19204">
        <ele>51.8</ele>
        <time>2021-11-05T13:19:08Z</time>
      </trkpt>
      <trkpt lat="50.49676" lon="3.19178">
        <ele>51.8</ele>
        <time>2021-11-05T13:19:13Z</time>
      </trkpt>
      <trkpt lat="50.49653" lon="3.19152">
        <ele>52</ele>
        <time>2021-11-05T13:19:17Z</time>
      </trkpt>
      <trkpt lat="50.49635" lon="3.19128">
        <ele>52</ele>
        <time>2021-11-05T13:19:21Z</time>
      </trkpt>
      <trkpt lat="50.49627" lon="3.19116">
        <ele>52.4</ele>
        <time>2021-11-05T13:19:23Z</time>
      </trkpt>
      <trkpt lat="50.49631" lon="3.19112">
        <ele>52.4</ele>
        <time>2021-11-05T13:19:24Z</time>
      </trkpt>
      <trkpt lat="50.49619" lon="3.19083">
        <ele>52.4</ele>
        <time>2021-11-05T13:19:28Z</time>
      </trkpt>
      <trkpt lat="50.49607" lon="3.19054">
        <ele>52.2</ele>
        <time>2021-11-05T13:19:31Z</time>
      </trkpt>
      <trkpt lat="50.49595" lon="3.19025">
        <ele>52.2</ele>
        <time>2021-11-05T13:19:35Z</time>
      </trkpt>
      <trkpt lat="50.49582" lon="3.18985">
        <ele>52.2</ele>
        <time>2021-11-05T13:19:39Z</time>
      </trkpt>
      <trkpt lat="50.49568" lon="3.18944">
        <ele>52.2</ele>
        <time>2021-11-05T13:19:44Z</time>
      </trkpt>
      <trkpt lat="50.49554" lon="3.18903">
        <ele>52.2</ele>
        <time>2021-11-05T13:19:49Z</time>
      </trkpt>
      <trkpt lat="50.4954" lon="3.18863">
        <ele>52.2</ele>
        <time>2021-11-05T13:19:53Z</time>
      </trkpt>
      <trkpt lat="50.49527" lon="3.18822">
        <ele>52.2</ele>
        <time>2021-11-05T13:19:58Z</time>
      </trkpt>
      <trkpt lat="50.49526" lon="3.18793">
        <ele>52.2</ele>
        <time>2021-11-05T13:20:01Z</time>
      </trkpt>
      <trkpt lat="50.49526" lon="3.18763">
        <ele>52.2</ele>
        <time>2021-11-05T13:20:04Z</time>
      </trkpt>
      <trkpt lat="50.49526" lon="3.18717">
        <ele>52.4</ele>
        <time>2021-11-05T13:20:09Z</time>
      </trkpt>
      <trkpt lat="50.49527" lon="3.18671">
        <ele>52.4</ele>
        <time>2021-11-05T13:20:13Z</time>
      </trkpt>
      <trkpt lat="50.49527" lon="3.18625">
        <ele>52.6</ele>
        <time>2021-11-05T13:20:18Z</time>
      </trkpt>
      <trkpt lat="50.49527" lon="3.18579">
        <ele>52.6</ele>
        <time>2021-11-05T13:20:23Z</time>
      </trkpt>
      <trkpt lat="50.49528" lon="3.18533">
        <ele>52.6</ele>
        <time>2021-11-05T13:20:28Z</time>
      </trkpt>
      <trkpt lat="50.49528" lon="3.18487">
        <ele>52.6</ele>
        <time>2021-11-05T13:20:32Z</time>
      </trkpt>
      <trkpt lat="50.49529" lon="3.18442">
        <ele>52.6</ele>
        <time>2021-11-05T13:20:37Z</time>
      </trkpt>
      <trkpt lat="50.49526" lon="3.18402">
        <ele>52.6</ele>
        <time>2021-11-05T13:20:41Z</time>
      </trkpt>
      <trkpt lat="50.49509" lon="3.18364">
        <ele>52.6</ele>
        <time>2021-11-05T13:20:46Z</time>
      </trkpt>
      <trkpt lat="50.49492" lon="3.18325">
        <ele>52.6</ele>
        <time>2021-11-05T13:20:50Z</time>
      </trkpt>
      <trkpt lat="50.49476" lon="3.18287">
        <ele>52.6</ele>
        <time>2021-11-05T13:20:55Z</time>
      </trkpt>
      <trkpt lat="50.49459" lon="3.18249">
        <ele>52.6</ele>
        <time>2021-11-05T13:21:00Z</time>
      </trkpt>
      <trkpt lat="50.49443" lon="3.18211">
        <ele>52.8</ele>
        <time>2021-11-05T13:21:05Z</time>
      </trkpt>
      <trkpt lat="50.49426" lon="3.18172">
        <ele>52.8</ele>
        <time>2021-11-05T13:21:09Z</time>
      </trkpt>
      <trkpt lat="50.49409" lon="3.18134">
        <ele>52.8</ele>
        <time>2021-11-05T13:21:14Z</time>
      </trkpt>
      <trkpt lat="50.49393" lon="3.18096">
        <ele>52.8</ele>
        <time>2021-11-05T13:21:19Z</time>
      </trkpt>
      <trkpt lat="50.49376" lon="3.18058">
        <ele>52.8</ele>
        <time>2021-11-05T13:21:23Z</time>
      </trkpt>
      <trkpt lat="50.49379" lon="3.18015">
        <ele>53</ele>
        <time>2021-11-05T13:21:28Z</time>
      </trkpt>
      <trkpt lat="50.49381" lon="3.17972">
        <ele>53</ele>
        <time>2021-11-05T13:21:32Z</time>
      </trkpt>
      <trkpt lat="50.49383" lon="3.17929">
        <ele>53</ele>
        <time>2021-11-05T13:21:37Z</time>
      </trkpt>
      <trkpt lat="50.49385" lon="3.17885">
        <ele>53</ele>
        <time>2021-11-05T13:21:41Z</time>
      </trkpt>
      <trkpt lat="50.49387" lon="3.17843">
        <ele>53</ele>
        <time>2021-11-05T13:21:46Z</time>
      </trkpt>
      <trkpt lat="50.49389" lon="3.17797">
        <ele>53</ele>
        <time>2021-11-05T13:21:50Z</time>
      </trkpt>
      <trkpt lat="50.4939" lon="3.17751">
        <ele>53</ele>
        <time>2021-11-05T13:21:55Z</time>
      </trkpt>
      <trkpt lat="50.49392" lon="3.17705">
        <ele>52.8</ele>
        <time>2021-11-05T13:22:00Z</time>
      </trkpt>
      <trkpt lat="50.49393" lon="3.17659">
        <ele>52.8</ele>
        <time>2021-11-05T13:22:04Z</time>
      </trkpt>
      <trkpt lat="50.49394" lon="3.17613">
        <ele>52.8</ele>
        <time>2021-11-05T13:22:09Z</time>
      </trkpt>
      <trkpt lat="50.49396" lon="3.17567">
        <ele>52.8</ele>
        <time>2021-11-05T13:22:14Z</time>
      </trkpt>
      <trkpt lat="50.49397" lon="3.17521">
        <ele>52.8</ele>
        <time>2021-11-05T13:22:18Z</time>
      </trkpt>
      <trkpt lat="50.49399" lon="3.17476">
        <ele>52.8</ele>
        <time>2021-11-05T13:22:23Z</time>
      </trkpt>
      <trkpt lat="50.494" lon="3.17431">
        <ele>52.6</ele>
        <time>2021-11-05T13:22:28Z</time>
      </trkpt>
      <trkpt lat="50.49401" lon="3.17417">
        <ele>52.6</ele>
        <time>2021-11-05T13:22:29Z</time>
      </trkpt>
      <trkpt lat="50.49411" lon="3.17388">
        <ele>52.6</ele>
        <time>2021-11-05T13:22:32Z</time>
      </trkpt>
      <trkpt lat="50.4943" lon="3.17351">
        <ele>52.6</ele>
        <time>2021-11-05T13:22:37Z</time>
      </trkpt>
      <trkpt lat="50.49448" lon="3.17315">
        <ele>52.6</ele>
        <time>2021-11-05T13:22:42Z</time>
      </trkpt>
      <trkpt lat="50.49435" lon="3.17295">
        <ele>52.4</ele>
        <time>2021-11-05T13:22:45Z</time>
      </trkpt>
      <trkpt lat="50.49422" lon="3.17275">
        <ele>52.4</ele>
        <time>2021-11-05T13:22:48Z</time>
      </trkpt>
      <trkpt lat="50.49408" lon="3.17244">
        <ele>52.2</ele>
        <time>2021-11-05T13:22:52Z</time>
      </trkpt>
      <trkpt lat="50.49394" lon="3.17201">
        <ele>52</ele>
        <time>2021-11-05T13:22:57Z</time>
      </trkpt>
      <trkpt lat="50.49381" lon="3.17157">
        <ele>52</ele>
        <time>2021-11-05T13:23:02Z</time>
      </trkpt>
      <trkpt lat="50.49367" lon="3.17114">
        <ele>52</ele>
        <time>2021-11-05T13:23:07Z</time>
      </trkpt>
      <trkpt lat="50.49353" lon="3.17071">
        <ele>52</ele>
        <time>2021-11-05T13:23:12Z</time>
      </trkpt>
      <trkpt lat="50.4934" lon="3.17027">
        <ele>52</ele>
        <time>2021-11-05T13:23:16Z</time>
      </trkpt>
      <trkpt lat="50.49326" lon="3.16984">
        <ele>52</ele>
        <time>2021-11-05T13:23:21Z</time>
      </trkpt>
      <trkpt lat="50.49313" lon="3.16941">
        <ele>52.2</ele>
        <time>2021-11-05T13:23:26Z</time>
      </trkpt>
      <trkpt lat="50.49299" lon="3.16897">
        <ele>52.2</ele>
        <time>2021-11-05T13:23:31Z</time>
      </trkpt>
      <trkpt lat="50.49286" lon="3.16854">
        <ele>52.2</ele>
        <time>2021-11-05T13:23:36Z</time>
      </trkpt>
      <trkpt lat="50.49272" lon="3.16812">
        <ele>52.4</ele>
        <time>2021-11-05T13:23:41Z</time>
      </trkpt>
      <trkpt lat="50.49256" lon="3.16832">
        <ele>53.2</ele>
        <time>2021-11-05T13:23:44Z</time>
      </trkpt>
      <trkpt lat="50.49233" lon="3.16861">
        <ele>53.4</ele>
        <time>2021-11-05T13:23:49Z</time>
      </trkpt>
      <trkpt lat="50.4921" lon="3.16889">
        <ele>53.4</ele>
        <time>2021-11-05T13:23:54Z</time>
      </trkpt>
      <trkpt lat="50.49188" lon="3.16918">
        <ele>53.6</ele>
        <time>2021-11-05T13:23:58Z</time>
      </trkpt>
      <trkpt lat="50.49165" lon="3.16943">
        <ele>53.8</ele>
        <time>2021-11-05T13:24:03Z</time>
      </trkpt>
      <trkpt lat="50.49142" lon="3.16968">
        <ele>54</ele>
        <time>2021-11-05T13:24:07Z</time>
      </trkpt>
      <trkpt lat="50.4912" lon="3.16993">
        <ele>54</ele>
        <time>2021-11-05T13:24:12Z</time>
      </trkpt>
      <trkpt lat="50.49097" lon="3.17019">
        <ele>54.2</ele>
        <time>2021-11-05T13:24:16Z</time>
      </trkpt>
      <trkpt lat="50.49074" lon="3.17044">
        <ele>54.2</ele>
        <time>2021-11-05T13:24:21Z</time>
      </trkpt>
      <trkpt lat="50.49051" lon="3.17069">
        <ele>54.2</ele>
        <time>2021-11-05T13:24:25Z</time>
      </trkpt>
      <trkpt lat="50.49029" lon="3.17094">
        <ele>54.2</ele>
        <time>2021-11-05T13:24:30Z</time>
      </trkpt>
      <trkpt lat="50.49003" lon="3.17121">
        <ele>54</ele>
        <time>2021-11-05T13:24:35Z</time>
      </trkpt>
      <trkpt lat="50.48977" lon="3.17148">
        <ele>53.8</ele>
        <time>2021-11-05T13:24:39Z</time>
      </trkpt>
      <trkpt lat="50.48964" lon="3.17152">
        <ele>53.6</ele>
        <time>2021-11-05T13:24:42Z</time>
      </trkpt>
      <trkpt lat="50.48944" lon="3.17164">
        <ele>53</ele>
        <time>2021-11-05T13:24:45Z</time>
      </trkpt>
      <trkpt lat="50.48918" lon="3.17179">
        <ele>52.4</ele>
        <time>2021-11-05T13:24:50Z</time>
      </trkpt>
      <trkpt lat="50.48891" lon="3.17194">
        <ele>52.2</ele>
        <time>2021-11-05T13:24:54Z</time>
      </trkpt>
      <trkpt lat="50.48864" lon="3.17209">
        <ele>52</ele>
        <time>2021-11-05T13:24:59Z</time>
      </trkpt>
      <trkpt lat="50.48838" lon="3.17224">
        <ele>51.8</ele>
        <time>2021-11-05T13:25:03Z</time>
      </trkpt>
      <trkpt lat="50.48811" lon="3.1724">
        <ele>51.6</ele>
        <time>2021-11-05T13:25:08Z</time>
      </trkpt>
      <trkpt lat="50.48785" lon="3.17255">
        <ele>51.4</ele>
        <time>2021-11-05T13:25:12Z</time>
      </trkpt>
      <trkpt lat="50.48758" lon="3.1727">
        <ele>51.2</ele>
        <time>2021-11-05T13:25:17Z</time>
      </trkpt>
      <trkpt lat="50.48732" lon="3.17285">
        <ele>51</ele>
        <time>2021-11-05T13:25:21Z</time>
      </trkpt>
      <trkpt lat="50.48705" lon="3.17292">
        <ele>50.6</ele>
        <time>2021-11-05T13:25:26Z</time>
      </trkpt>
      <trkpt lat="50.48678" lon="3.173">
        <ele>50.4</ele>
        <time>2021-11-05T13:25:30Z</time>
      </trkpt>
      <trkpt lat="50.48652" lon="3.17317">
        <ele>50.2</ele>
        <time>2021-11-05T13:25:34Z</time>
      </trkpt>
      <trkpt lat="50.48627" lon="3.17334">
        <ele>50</ele>
        <time>2021-11-05T13:25:39Z</time>
      </trkpt>
      <trkpt lat="50.48601" lon="3.17351">
        <ele>50</ele>
        <time>2021-11-05T13:25:43Z</time>
      </trkpt>
      <trkpt lat="50.48575" lon="3.17368">
        <ele>50</ele>
        <time>2021-11-05T13:25:48Z</time>
      </trkpt>
      <trkpt lat="50.48562" lon="3.17328">
        <ele>49.8</ele>
        <time>2021-11-05T13:25:52Z</time>
      </trkpt>
      <trkpt lat="50.48557" lon="3.17297">
        <ele>49.8</ele>
        <time>2021-11-05T13:25:56Z</time>
      </trkpt>
      <trkpt lat="50.48551" lon="3.17267">
        <ele>49.6</ele>
        <time>2021-11-05T13:25:59Z</time>
      </trkpt>
      <trkpt lat="50.48546" lon="3.1723">
        <ele>49.6</ele>
        <time>2021-11-05T13:26:03Z</time>
      </trkpt>
      <trkpt lat="50.48541" lon="3.17194">
        <ele>49.6</ele>
        <time>2021-11-05T13:26:06Z</time>
      </trkpt>
      <trkpt lat="50.48535" lon="3.17158">
        <ele>49.6</ele>
        <time>2021-11-05T13:26:10Z</time>
      </trkpt>
      <trkpt lat="50.48517" lon="3.17154">
        <ele>49.4</ele>
        <time>2021-11-05T13:26:13Z</time>
      </trkpt>
      <trkpt lat="50.48499" lon="3.1715">
        <ele>49.2</ele>
        <time>2021-11-05T13:26:16Z</time>
      </trkpt>
      <trkpt lat="50.48476" lon="3.17144">
        <ele>49</ele>
        <time>2021-11-05T13:26:20Z</time>
      </trkpt>
      <trkpt lat="50.4846" lon="3.17145">
        <ele>48.8</ele>
        <time>2021-11-05T13:26:22Z</time>
      </trkpt>
      <trkpt lat="50.48443" lon="3.17147">
        <ele>48.6</ele>
        <time>2021-11-05T13:26:25Z</time>
      </trkpt>
      <trkpt lat="50.48431" lon="3.17153">
        <ele>48.2</ele>
        <time>2021-11-05T13:26:27Z</time>
      </trkpt>
      <trkpt lat="50.48403" lon="3.17166">
        <ele>47.8</ele>
        <time>2021-11-05T13:26:32Z</time>
      </trkpt>
      <trkpt lat="50.48379" lon="3.17172">
        <ele>47.6</ele>
        <time>2021-11-05T13:26:36Z</time>
      </trkpt>
      <trkpt lat="50.48354" lon="3.17178">
        <ele>47.6</ele>
        <time>2021-11-05T13:26:40Z</time>
      </trkpt>
      <trkpt lat="50.48329" lon="3.17184">
        <ele>47.4</ele>
        <time>2021-11-05T13:26:44Z</time>
      </trkpt>
      <trkpt lat="50.48307" lon="3.17191">
        <ele>47.2</ele>
        <time>2021-11-05T13:26:47Z</time>
      </trkpt>
      <trkpt lat="50.48284" lon="3.17197">
        <ele>47</ele>
        <time>2021-11-05T13:26:51Z</time>
      </trkpt>
      <trkpt lat="50.48262" lon="3.17203">
        <ele>46.8</ele>
        <time>2021-11-05T13:26:55Z</time>
      </trkpt>
      <trkpt lat="50.48239" lon="3.17214">
        <ele>46.6</ele>
        <time>2021-11-05T13:26:59Z</time>
      </trkpt>
      <trkpt lat="50.48217" lon="3.17225">
        <ele>46.6</ele>
        <time>2021-11-05T13:27:02Z</time>
      </trkpt>
      <trkpt lat="50.4819" lon="3.17241">
        <ele>46.6</ele>
        <time>2021-11-05T13:27:07Z</time>
      </trkpt>
      <trkpt lat="50.48163" lon="3.17257">
        <ele>46.6</ele>
        <time>2021-11-05T13:27:12Z</time>
      </trkpt>
      <trkpt lat="50.48136" lon="3.17273">
        <ele>46.6</ele>
        <time>2021-11-05T13:27:16Z</time>
      </trkpt>
      <trkpt lat="50.48123" lon="3.17273">
        <ele>46.6</ele>
        <time>2021-11-05T13:27:18Z</time>
      </trkpt>
      <trkpt lat="50.48111" lon="3.17238">
        <ele>46.8</ele>
        <time>2021-11-05T13:27:22Z</time>
      </trkpt>
      <trkpt lat="50.48098" lon="3.17202">
        <ele>47</ele>
        <time>2021-11-05T13:27:27Z</time>
      </trkpt>
      <trkpt lat="50.48086" lon="3.17167">
        <ele>47</ele>
        <time>2021-11-05T13:27:31Z</time>
      </trkpt>
      <trkpt lat="50.48074" lon="3.17134">
        <ele>47.2</ele>
        <time>2021-11-05T13:27:35Z</time>
      </trkpt>
      <trkpt lat="50.48062" lon="3.171">
        <ele>47.4</ele>
        <time>2021-11-05T13:27:38Z</time>
      </trkpt>
      <trkpt lat="50.48045" lon="3.17067">
        <ele>47.6</ele>
        <time>2021-11-05T13:27:43Z</time>
      </trkpt>
      <trkpt lat="50.48028" lon="3.17033">
        <ele>47.8</ele>
        <time>2021-11-05T13:27:47Z</time>
      </trkpt>
      <trkpt lat="50.48019" lon="3.17011">
        <ele>48</ele>
        <time>2021-11-05T13:27:50Z</time>
      </trkpt>
      <trkpt lat="50.48013" lon="3.16986">
        <ele>48.2</ele>
        <time>2021-11-05T13:27:53Z</time>
      </trkpt>
      <trkpt lat="50.48007" lon="3.1696">
        <ele>48.4</ele>
        <time>2021-11-05T13:27:55Z</time>
      </trkpt>
      <trkpt lat="50.47995" lon="3.16921">
        <ele>48.6</ele>
        <time>2021-11-05T13:28:00Z</time>
      </trkpt>
      <trkpt lat="50.47982" lon="3.16882">
        <ele>48.6</ele>
        <time>2021-11-05T13:28:04Z</time>
      </trkpt>
      <trkpt lat="50.47969" lon="3.16843">
        <ele>48.8</ele>
        <time>2021-11-05T13:28:09Z</time>
      </trkpt>
      <trkpt lat="50.47965" lon="3.16805">
        <ele>48.8</ele>
        <time>2021-11-05T13:28:13Z</time>
      </trkpt>
      <trkpt lat="50.47958" lon="3.16803">
        <ele>48.8</ele>
        <time>2021-11-05T13:28:14Z</time>
      </trkpt>
      <trkpt lat="50.47953" lon="3.16797">
        <ele>48.8</ele>
        <time>2021-11-05T13:28:15Z</time>
      </trkpt>
      <trkpt lat="50.4793" lon="3.16796">
        <ele>48.6</ele>
        <time>2021-11-05T13:28:19Z</time>
      </trkpt>
      <trkpt lat="50.47906" lon="3.16796">
        <ele>48.4</ele>
        <time>2021-11-05T13:28:22Z</time>
      </trkpt>
      <trkpt lat="50.47883" lon="3.16796">
        <ele>48.4</ele>
        <time>2021-11-05T13:28:26Z</time>
      </trkpt>
      <trkpt lat="50.47863" lon="3.16797">
        <ele>48.2</ele>
        <time>2021-11-05T13:28:29Z</time>
      </trkpt>
      <trkpt lat="50.47843" lon="3.16798">
        <ele>48</ele>
        <time>2021-11-05T13:28:32Z</time>
      </trkpt>
      <trkpt lat="50.47821" lon="3.16811">
        <ele>47.8</ele>
        <time>2021-11-05T13:28:36Z</time>
      </trkpt>
      <trkpt lat="50.47798" lon="3.16824">
        <ele>47.8</ele>
        <time>2021-11-05T13:28:40Z</time>
      </trkpt>
      <trkpt lat="50.47776" lon="3.16834">
        <ele>47.6</ele>
        <time>2021-11-05T13:28:44Z</time>
      </trkpt>
      <trkpt lat="50.47753" lon="3.16844">
        <ele>47.4</ele>
        <time>2021-11-05T13:28:48Z</time>
      </trkpt>
      <trkpt lat="50.47731" lon="3.16855">
        <ele>47.4</ele>
        <time>2021-11-05T13:28:51Z</time>
      </trkpt>
      <trkpt lat="50.47715" lon="3.16855">
        <ele>47.2</ele>
        <time>2021-11-05T13:28:54Z</time>
      </trkpt>
      <trkpt lat="50.47695" lon="3.1684">
        <ele>47</ele>
        <time>2021-11-05T13:28:58Z</time>
      </trkpt>
      <trkpt lat="50.47675" lon="3.16825">
        <ele>47</ele>
        <time>2021-11-05T13:29:01Z</time>
      </trkpt>
      <trkpt lat="50.47655" lon="3.1681">
        <ele>46.8</ele>
        <time>2021-11-05T13:29:05Z</time>
      </trkpt>
      <trkpt lat="50.47636" lon="3.16804">
        <ele>46.8</ele>
        <time>2021-11-05T13:29:08Z</time>
      </trkpt>
      <trkpt lat="50.47612" lon="3.16804">
        <ele>46.6</ele>
        <time>2021-11-05T13:29:12Z</time>
      </trkpt>
      <trkpt lat="50.47586" lon="3.16812">
        <ele>46.4</ele>
        <time>2021-11-05T13:29:16Z</time>
      </trkpt>
      <trkpt lat="50.47561" lon="3.16819">
        <ele>46.2</ele>
        <time>2021-11-05T13:29:20Z</time>
      </trkpt>
      <trkpt lat="50.47536" lon="3.16827">
        <ele>46.2</ele>
        <time>2021-11-05T13:29:24Z</time>
      </trkpt>
      <trkpt lat="50.4751" lon="3.16834">
        <ele>46</ele>
        <time>2021-11-05T13:29:28Z</time>
      </trkpt>
      <trkpt lat="50.47485" lon="3.16842">
        <ele>46</ele>
        <time>2021-11-05T13:29:32Z</time>
      </trkpt>
      <trkpt lat="50.47484" lon="3.16838">
        <ele>45.4</ele>
        <time>2021-11-05T13:29:33Z</time>
      </trkpt>
      <trkpt lat="50.47476" lon="3.16792">
        <ele>45.2</ele>
        <time>2021-11-05T13:29:38Z</time>
      </trkpt>
      <trkpt lat="50.47468" lon="3.16746">
        <ele>45</ele>
        <time>2021-11-05T13:29:42Z</time>
      </trkpt>
      <trkpt lat="50.47459" lon="3.167">
        <ele>45</ele>
        <time>2021-11-05T13:29:47Z</time>
      </trkpt>
      <trkpt lat="50.47454" lon="3.16658">
        <ele>44.8</ele>
        <time>2021-11-05T13:29:52Z</time>
      </trkpt>
      <trkpt lat="50.47453" lon="3.16628">
        <ele>44.6</ele>
        <time>2021-11-05T13:29:55Z</time>
      </trkpt>
      <trkpt lat="50.47452" lon="3.16598">
        <ele>44.6</ele>
        <time>2021-11-05T13:29:58Z</time>
      </trkpt>
      <trkpt lat="50.47453" lon="3.16568">
        <ele>44.6</ele>
        <time>2021-11-05T13:30:01Z</time>
      </trkpt>
      <trkpt lat="50.47454" lon="3.16538">
        <ele>44.6</ele>
        <time>2021-11-05T13:30:04Z</time>
      </trkpt>
      <trkpt lat="50.47458" lon="3.16508">
        <ele>44.6</ele>
        <time>2021-11-05T13:30:07Z</time>
      </trkpt>
      <trkpt lat="50.47462" lon="3.16478">
        <ele>44.6</ele>
        <time>2021-11-05T13:30:10Z</time>
      </trkpt>
      <trkpt lat="50.47468" lon="3.16454">
        <ele>44.8</ele>
        <time>2021-11-05T13:30:13Z</time>
      </trkpt>
      <trkpt lat="50.47473" lon="3.1643">
        <ele>45</ele>
        <time>2021-11-05T13:30:15Z</time>
      </trkpt>
      <trkpt lat="50.47481" lon="3.16405">
        <ele>45.4</ele>
        <time>2021-11-05T13:30:18Z</time>
      </trkpt>
      <trkpt lat="50.47489" lon="3.1638">
        <ele>45.6</ele>
        <time>2021-11-05T13:30:21Z</time>
      </trkpt>
      <trkpt lat="50.47499" lon="3.1636">
        <ele>46</ele>
        <time>2021-11-05T13:30:24Z</time>
      </trkpt>
      <trkpt lat="50.47509" lon="3.1634">
        <ele>46.2</ele>
        <time>2021-11-05T13:30:26Z</time>
      </trkpt>
      <trkpt lat="50.47528" lon="3.16306">
        <ele>46.6</ele>
        <time>2021-11-05T13:30:31Z</time>
      </trkpt>
      <trkpt lat="50.47548" lon="3.16271">
        <ele>46.8</ele>
        <time>2021-11-05T13:30:36Z</time>
      </trkpt>
      <trkpt lat="50.47567" lon="3.16237">
        <ele>47</ele>
        <time>2021-11-05T13:30:40Z</time>
      </trkpt>
      <trkpt lat="50.47587" lon="3.16203">
        <ele>47</ele>
        <time>2021-11-05T13:30:45Z</time>
      </trkpt>
      <trkpt lat="50.47606" lon="3.16169">
        <ele>47.2</ele>
        <time>2021-11-05T13:30:50Z</time>
      </trkpt>
      <trkpt lat="50.47615" lon="3.1615">
        <ele>47.6</ele>
        <time>2021-11-05T13:30:52Z</time>
      </trkpt>
      <trkpt lat="50.47627" lon="3.16115">
        <ele>47.8</ele>
        <time>2021-11-05T13:30:56Z</time>
      </trkpt>
      <trkpt lat="50.47638" lon="3.1608">
        <ele>47.8</ele>
        <time>2021-11-05T13:31:00Z</time>
      </trkpt>
      <trkpt lat="50.4765" lon="3.16045">
        <ele>48</ele>
        <time>2021-11-05T13:31:04Z</time>
      </trkpt>
      <trkpt lat="50.47662" lon="3.1601">
        <ele>48</ele>
        <time>2021-11-05T13:31:08Z</time>
      </trkpt>
      <trkpt lat="50.47674" lon="3.15986">
        <ele>48.2</ele>
        <time>2021-11-05T13:31:11Z</time>
      </trkpt>
      <trkpt lat="50.4769" lon="3.15962">
        <ele>48</ele>
        <time>2021-11-05T13:31:15Z</time>
      </trkpt>
      <trkpt lat="50.47706" lon="3.15938">
        <ele>48</ele>
        <time>2021-11-05T13:31:18Z</time>
      </trkpt>
      <trkpt lat="50.47722" lon="3.15915">
        <ele>48</ele>
        <time>2021-11-05T13:31:22Z</time>
      </trkpt>
      <trkpt lat="50.47732" lon="3.15895">
        <ele>47.8</ele>
        <time>2021-11-05T13:31:25Z</time>
      </trkpt>
      <trkpt lat="50.47741" lon="3.15875">
        <ele>47.6</ele>
        <time>2021-11-05T13:31:27Z</time>
      </trkpt>
      <trkpt lat="50.4775" lon="3.15843">
        <ele>47.4</ele>
        <time>2021-11-05T13:31:31Z</time>
      </trkpt>
      <trkpt lat="50.47759" lon="3.15812">
        <ele>47.2</ele>
        <time>2021-11-05T13:31:34Z</time>
      </trkpt>
      <trkpt lat="50.47764" lon="3.15773">
        <ele>47</ele>
        <time>2021-11-05T13:31:38Z</time>
      </trkpt>
      <trkpt lat="50.4777" lon="3.15735">
        <ele>46.8</ele>
        <time>2021-11-05T13:31:42Z</time>
      </trkpt>
      <trkpt lat="50.47775" lon="3.15698">
        <ele>46.4</ele>
        <time>2021-11-05T13:31:46Z</time>
      </trkpt>
      <trkpt lat="50.47779" lon="3.15662">
        <ele>46.2</ele>
        <time>2021-11-05T13:31:50Z</time>
      </trkpt>
      <trkpt lat="50.47779" lon="3.15621">
        <ele>45.8</ele>
        <time>2021-11-05T13:31:54Z</time>
      </trkpt>
      <trkpt lat="50.4778" lon="3.1558">
        <ele>45.6</ele>
        <time>2021-11-05T13:31:58Z</time>
      </trkpt>
      <trkpt lat="50.4778" lon="3.15539">
        <ele>45</ele>
        <time>2021-11-05T13:32:02Z</time>
      </trkpt>
      <trkpt lat="50.47781" lon="3.15505">
        <ele>44.8</ele>
        <time>2021-11-05T13:32:06Z</time>
      </trkpt>
      <trkpt lat="50.47781" lon="3.15471">
        <ele>44.6</ele>
        <time>2021-11-05T13:32:09Z</time>
      </trkpt>
      <trkpt lat="50.47781" lon="3.15461">
        <ele>44.2</ele>
        <time>2021-11-05T13:32:10Z</time>
      </trkpt>
      <trkpt lat="50.47781" lon="3.15443">
        <ele>44</ele>
        <time>2021-11-05T13:32:12Z</time>
      </trkpt>
      <trkpt lat="50.47782" lon="3.15406">
        <ele>43.8</ele>
        <time>2021-11-05T13:32:16Z</time>
      </trkpt>
      <trkpt lat="50.47782" lon="3.15369">
        <ele>43.8</ele>
        <time>2021-11-05T13:32:20Z</time>
      </trkpt>
      <trkpt lat="50.47783" lon="3.15337">
        <ele>43.6</ele>
        <time>2021-11-05T13:32:23Z</time>
      </trkpt>
      <trkpt lat="50.47784" lon="3.15305">
        <ele>43.6</ele>
        <time>2021-11-05T13:32:26Z</time>
      </trkpt>
      <trkpt lat="50.47786" lon="3.15275">
        <ele>43.6</ele>
        <time>2021-11-05T13:32:29Z</time>
      </trkpt>
      <trkpt lat="50.47788" lon="3.15245">
        <ele>43.8</ele>
        <time>2021-11-05T13:32:32Z</time>
      </trkpt>
      <trkpt lat="50.47797" lon="3.15214">
        <ele>44</ele>
        <time>2021-11-05T13:32:36Z</time>
      </trkpt>
      <trkpt lat="50.47806" lon="3.15182">
        <ele>44</ele>
        <time>2021-11-05T13:32:40Z</time>
      </trkpt>
      <trkpt lat="50.47815" lon="3.15151">
        <ele>44.2</ele>
        <time>2021-11-05T13:32:43Z</time>
      </trkpt>
      <trkpt lat="50.47823" lon="3.15133">
        <ele>44.6</ele>
        <time>2021-11-05T13:32:45Z</time>
      </trkpt>
      <trkpt lat="50.47839" lon="3.15092">
        <ele>45.2</ele>
        <time>2021-11-05T13:32:50Z</time>
      </trkpt>
      <trkpt lat="50.47854" lon="3.15051">
        <ele>45.4</ele>
        <time>2021-11-05T13:32:55Z</time>
      </trkpt>
      <trkpt lat="50.47858" lon="3.15042">
        <ele>46.2</ele>
        <time>2021-11-05T13:32:56Z</time>
      </trkpt>
      <trkpt lat="50.47873" lon="3.15004">
        <ele>46.8</ele>
        <time>2021-11-05T13:33:01Z</time>
      </trkpt>
      <trkpt lat="50.47887" lon="3.14966">
        <ele>47.2</ele>
        <time>2021-11-05T13:33:05Z</time>
      </trkpt>
      <trkpt lat="50.47901" lon="3.14929">
        <ele>47.6</ele>
        <time>2021-11-05T13:33:10Z</time>
      </trkpt>
      <trkpt lat="50.47915" lon="3.14891">
        <ele>48</ele>
        <time>2021-11-05T13:33:14Z</time>
      </trkpt>
      <trkpt lat="50.47926" lon="3.14854">
        <ele>48.8</ele>
        <time>2021-11-05T13:33:18Z</time>
      </trkpt>
      <trkpt lat="50.47936" lon="3.14816">
        <ele>49.2</ele>
        <time>2021-11-05T13:33:22Z</time>
      </trkpt>
      <trkpt lat="50.47947" lon="3.14778">
        <ele>49.8</ele>
        <time>2021-11-05T13:33:27Z</time>
      </trkpt>
      <trkpt lat="50.47957" lon="3.14741">
        <ele>50.2</ele>
        <time>2021-11-05T13:33:31Z</time>
      </trkpt>
      <trkpt lat="50.47968" lon="3.14704">
        <ele>50.6</ele>
        <time>2021-11-05T13:33:35Z</time>
      </trkpt>
      <trkpt lat="50.47975" lon="3.1467">
        <ele>51.2</ele>
        <time>2021-11-05T13:33:39Z</time>
      </trkpt>
      <trkpt lat="50.47983" lon="3.14637">
        <ele>51.6</ele>
        <time>2021-11-05T13:33:42Z</time>
      </trkpt>
      <trkpt lat="50.47991" lon="3.14606">
        <ele>52</ele>
        <time>2021-11-05T13:33:46Z</time>
      </trkpt>
      <trkpt lat="50.47999" lon="3.14574">
        <ele>52.2</ele>
        <time>2021-11-05T13:33:49Z</time>
      </trkpt>
      <trkpt lat="50.48006" lon="3.14543">
        <ele>52.4</ele>
        <time>2021-11-05T13:33:53Z</time>
      </trkpt>
      <trkpt lat="50.48021" lon="3.14502">
        <ele>52.4</ele>
        <time>2021-11-05T13:33:57Z</time>
      </trkpt>
      <trkpt lat="50.48036" lon="3.14461">
        <ele>52.6</ele>
        <time>2021-11-05T13:34:02Z</time>
      </trkpt>
      <trkpt lat="50.48047" lon="3.14431">
        <ele>52.6</ele>
        <time>2021-11-05T13:34:06Z</time>
      </trkpt>
      <trkpt lat="50.48058" lon="3.14401">
        <ele>52.6</ele>
        <time>2021-11-05T13:34:09Z</time>
      </trkpt>
      <trkpt lat="50.48062" lon="3.14384">
        <ele>52.6</ele>
        <time>2021-11-05T13:34:11Z</time>
      </trkpt>
      <trkpt lat="50.48071" lon="3.14359">
        <ele>52.6</ele>
        <time>2021-11-05T13:34:14Z</time>
      </trkpt>
      <trkpt lat="50.48082" lon="3.14331">
        <ele>52.6</ele>
        <time>2021-11-05T13:34:17Z</time>
      </trkpt>
      <trkpt lat="50.48083" lon="3.14329">
        <ele>52.4</ele>
        <time>2021-11-05T13:34:18Z</time>
      </trkpt>
      <trkpt lat="50.48093" lon="3.14301">
        <ele>52.6</ele>
        <time>2021-11-05T13:34:21Z</time>
      </trkpt>
      <trkpt lat="50.48103" lon="3.14272">
        <ele>52.6</ele>
        <time>2021-11-05T13:34:24Z</time>
      </trkpt>
      <trkpt lat="50.48132" lon="3.14276">
        <ele>52.6</ele>
        <time>2021-11-05T13:34:29Z</time>
      </trkpt>
      <trkpt lat="50.48146" lon="3.14277">
        <ele>52.8</ele>
        <time>2021-11-05T13:34:31Z</time>
      </trkpt>
      <trkpt lat="50.48164" lon="3.1429">
        <ele>52.8</ele>
        <time>2021-11-05T13:34:34Z</time>
      </trkpt>
      <trkpt lat="50.48181" lon="3.14303">
        <ele>53</ele>
        <time>2021-11-05T13:34:37Z</time>
      </trkpt>
      <trkpt lat="50.48192" lon="3.14311">
        <ele>53</ele>
        <time>2021-11-05T13:34:39Z</time>
      </trkpt>
      <trkpt lat="50.48203" lon="3.1434">
        <ele>53.2</ele>
        <time>2021-11-05T13:34:43Z</time>
      </trkpt>
      <trkpt lat="50.48206" lon="3.1436">
        <ele>53.2</ele>
        <time>2021-11-05T13:34:45Z</time>
      </trkpt>
      <trkpt lat="50.48207" lon="3.14384">
        <ele>53.2</ele>
        <time>2021-11-05T13:34:47Z</time>
      </trkpt>
      <trkpt lat="50.48203" lon="3.14407">
        <ele>53.2</ele>
        <time>2021-11-05T13:34:50Z</time>
      </trkpt>
      <trkpt lat="50.4819" lon="3.14447">
        <ele>53.2</ele>
        <time>2021-11-05T13:34:54Z</time>
      </trkpt>
      <trkpt lat="50.48178" lon="3.14487">
        <ele>53.4</ele>
        <time>2021-11-05T13:34:59Z</time>
      </trkpt>
      <trkpt lat="50.48188" lon="3.14504">
        <ele>53.4</ele>
        <time>2021-11-05T13:35:01Z</time>
      </trkpt>
      <trkpt lat="50.48204" lon="3.14529">
        <ele>53.4</ele>
        <time>2021-11-05T13:35:05Z</time>
      </trkpt>
      <trkpt lat="50.4822" lon="3.14554">
        <ele>53.4</ele>
        <time>2021-11-05T13:35:08Z</time>
      </trkpt>
      <trkpt lat="50.48232" lon="3.14583">
        <ele>53.4</ele>
        <time>2021-11-05T13:35:12Z</time>
      </trkpt>
      <trkpt lat="50.48244" lon="3.14611">
        <ele>53.6</ele>
        <time>2021-11-05T13:35:15Z</time>
      </trkpt>
      <trkpt lat="50.48254" lon="3.14634">
        <ele>53.6</ele>
        <time>2021-11-05T13:35:18Z</time>
      </trkpt>
      <trkpt lat="50.48267" lon="3.14652">
        <ele>53.8</ele>
        <time>2021-11-05T13:35:21Z</time>
      </trkpt>
      <trkpt lat="50.48279" lon="3.14662">
        <ele>53.8</ele>
        <time>2021-11-05T13:35:23Z</time>
      </trkpt>
      <trkpt lat="50.48306" lon="3.14677">
        <ele>54</ele>
        <time>2021-11-05T13:35:28Z</time>
      </trkpt>
      <trkpt lat="50.48326" lon="3.14699">
        <ele>54</ele>
        <time>2021-11-05T13:35:32Z</time>
      </trkpt>
      <trkpt lat="50.48342" lon="3.14724">
        <ele>54</ele>
        <time>2021-11-05T13:35:35Z</time>
      </trkpt>
      <trkpt lat="50.48357" lon="3.14749">
        <ele>54</ele>
        <time>2021-11-05T13:35:39Z</time>
      </trkpt>
      <trkpt lat="50.48372" lon="3.14774">
        <ele>54.2</ele>
        <time>2021-11-05T13:35:42Z</time>
      </trkpt>
      <trkpt lat="50.48392" lon="3.14799">
        <ele>54.2</ele>
        <time>2021-11-05T13:35:46Z</time>
      </trkpt>
      <trkpt lat="50.48409" lon="3.14824">
        <ele>54.4</ele>
        <time>2021-11-05T13:35:50Z</time>
      </trkpt>
      <trkpt lat="50.48426" lon="3.14848">
        <ele>54.2</ele>
        <time>2021-11-05T13:35:54Z</time>
      </trkpt>
      <trkpt lat="50.48443" lon="3.14873">
        <ele>54.2</ele>
        <time>2021-11-05T13:35:58Z</time>
      </trkpt>
      <trkpt lat="50.48462" lon="3.14902">
        <ele>54.2</ele>
        <time>2021-11-05T13:36:02Z</time>
      </trkpt>
      <trkpt lat="50.48482" lon="3.14932">
        <ele>54.2</ele>
        <time>2021-11-05T13:36:06Z</time>
      </trkpt>
      <trkpt lat="50.48501" lon="3.14961">
        <ele>54.2</ele>
        <time>2021-11-05T13:36:10Z</time>
      </trkpt>
      <trkpt lat="50.4852" lon="3.1499">
        <ele>54.2</ele>
        <time>2021-11-05T13:36:15Z</time>
      </trkpt>
      <trkpt lat="50.48543" lon="3.15019">
        <ele>54</ele>
        <time>2021-11-05T13:36:19Z</time>
      </trkpt>
      <trkpt lat="50.48565" lon="3.15048">
        <ele>54</ele>
        <time>2021-11-05T13:36:24Z</time>
      </trkpt>
      <trkpt lat="50.48587" lon="3.15077">
        <ele>53.8</ele>
        <time>2021-11-05T13:36:29Z</time>
      </trkpt>
      <trkpt lat="50.48606" lon="3.15098">
        <ele>53.6</ele>
        <time>2021-11-05T13:36:32Z</time>
      </trkpt>
      <trkpt lat="50.48625" lon="3.15118">
        <ele>53.4</ele>
        <time>2021-11-05T13:36:36Z</time>
      </trkpt>
      <trkpt lat="50.48644" lon="3.15139">
        <ele>53.4</ele>
        <time>2021-11-05T13:36:40Z</time>
      </trkpt>
      <trkpt lat="50.48664" lon="3.15163">
        <ele>53</ele>
        <time>2021-11-05T13:36:44Z</time>
      </trkpt>
      <trkpt lat="50.48684" lon="3.15187">
        <ele>53</ele>
        <time>2021-11-05T13:36:48Z</time>
      </trkpt>
      <trkpt lat="50.487" lon="3.15215">
        <ele>52.6</ele>
        <time>2021-11-05T13:36:52Z</time>
      </trkpt>
      <trkpt lat="50.48715" lon="3.15243">
        <ele>52.4</ele>
        <time>2021-11-05T13:36:55Z</time>
      </trkpt>
      <trkpt lat="50.48731" lon="3.1527">
        <ele>52.2</ele>
        <time>2021-11-05T13:36:59Z</time>
      </trkpt>
      <trkpt lat="50.48745" lon="3.15308">
        <ele>52</ele>
        <time>2021-11-05T13:37:04Z</time>
      </trkpt>
      <trkpt lat="50.48759" lon="3.15345">
        <ele>51.6</ele>
        <time>2021-11-05T13:37:08Z</time>
      </trkpt>
      <trkpt lat="50.4877" lon="3.15391">
        <ele>51.4</ele>
        <time>2021-11-05T13:37:13Z</time>
      </trkpt>
      <trkpt lat="50.48781" lon="3.15438">
        <ele>51.2</ele>
        <time>2021-11-05T13:37:18Z</time>
      </trkpt>
      <trkpt lat="50.48792" lon="3.15484">
        <ele>51</ele>
        <time>2021-11-05T13:37:23Z</time>
      </trkpt>
      <trkpt lat="50.488" lon="3.15509">
        <ele>50.8</ele>
        <time>2021-11-05T13:37:26Z</time>
      </trkpt>
      <trkpt lat="50.48809" lon="3.15534">
        <ele>50.6</ele>
        <time>2021-11-05T13:37:29Z</time>
      </trkpt>
      <trkpt lat="50.48826" lon="3.15563">
        <ele>50.4</ele>
        <time>2021-11-05T13:37:33Z</time>
      </trkpt>
      <trkpt lat="50.4885" lon="3.15586">
        <ele>50</ele>
        <time>2021-11-05T13:37:37Z</time>
      </trkpt>
      <trkpt lat="50.48873" lon="3.15609">
        <ele>50</ele>
        <time>2021-11-05T13:37:42Z</time>
      </trkpt>
      <trkpt lat="50.48892" lon="3.1564">
        <ele>49.8</ele>
        <time>2021-11-05T13:37:46Z</time>
      </trkpt>
      <trkpt lat="50.48911" lon="3.15671">
        <ele>49.8</ele>
        <time>2021-11-05T13:37:51Z</time>
      </trkpt>
      <trkpt lat="50.48929" lon="3.15701">
        <ele>49.6</ele>
        <time>2021-11-05T13:37:55Z</time>
      </trkpt>
      <trkpt lat="50.48944" lon="3.15726">
        <ele>49.4</ele>
        <time>2021-11-05T13:37:58Z</time>
      </trkpt>
      <trkpt lat="50.48959" lon="3.1575">
        <ele>49.4</ele>
        <time>2021-11-05T13:38:02Z</time>
      </trkpt>
      <trkpt lat="50.48977" lon="3.15786">
        <ele>49.4</ele>
        <time>2021-11-05T13:38:06Z</time>
      </trkpt>
      <trkpt lat="50.48994" lon="3.15822">
        <ele>49.2</ele>
        <time>2021-11-05T13:38:11Z</time>
      </trkpt>
      <trkpt lat="50.49012" lon="3.15859">
        <ele>49.2</ele>
        <time>2021-11-05T13:38:16Z</time>
      </trkpt>
      <trkpt lat="50.49029" lon="3.15895">
        <ele>49.2</ele>
        <time>2021-11-05T13:38:20Z</time>
      </trkpt>
      <trkpt lat="50.49047" lon="3.15932">
        <ele>49</ele>
        <time>2021-11-05T13:38:25Z</time>
      </trkpt>
      <trkpt lat="50.49064" lon="3.15968">
        <ele>49</ele>
        <time>2021-11-05T13:38:30Z</time>
      </trkpt>
      <trkpt lat="50.49082" lon="3.16005">
        <ele>49</ele>
        <time>2021-11-05T13:38:34Z</time>
      </trkpt>
      <trkpt lat="50.491" lon="3.16041">
        <ele>49</ele>
        <time>2021-11-05T13:38:39Z</time>
      </trkpt>
      <trkpt lat="50.49117" lon="3.16077">
        <ele>49</ele>
        <time>2021-11-05T13:38:44Z</time>
      </trkpt>
      <trkpt lat="50.49134" lon="3.16112">
        <ele>49</ele>
        <time>2021-11-05T13:38:48Z</time>
      </trkpt>
      <trkpt lat="50.49152" lon="3.16147">
        <ele>49</ele>
        <time>2021-11-05T13:38:53Z</time>
      </trkpt>
      <trkpt lat="50.4917" lon="3.16182">
        <ele>49</ele>
        <time>2021-11-05T13:38:57Z</time>
      </trkpt>
      <trkpt lat="50.49187" lon="3.16217">
        <ele>49</ele>
        <time>2021-11-05T13:39:02Z</time>
      </trkpt>
      <trkpt lat="50.49205" lon="3.16253">
        <ele>49</ele>
        <time>2021-11-05T13:39:07Z</time>
      </trkpt>
      <trkpt lat="50.49223" lon="3.16288">
        <ele>48.8</ele>
        <time>2021-11-05T13:39:11Z</time>
      </trkpt>
      <trkpt lat="50.4924" lon="3.16323">
        <ele>48.8</ele>
        <time>2021-11-05T13:39:16Z</time>
      </trkpt>
      <trkpt lat="50.49258" lon="3.16358">
        <ele>48.8</ele>
        <time>2021-11-05T13:39:20Z</time>
      </trkpt>
      <trkpt lat="50.49275" lon="3.16393">
        <ele>49</ele>
        <time>2021-11-05T13:39:25Z</time>
      </trkpt>
      <trkpt lat="50.49293" lon="3.16428">
        <ele>49</ele>
        <time>2021-11-05T13:39:29Z</time>
      </trkpt>
      <trkpt lat="50.49313" lon="3.16465">
        <ele>49</ele>
        <time>2021-11-05T13:39:34Z</time>
      </trkpt>
      <trkpt lat="50.49334" lon="3.16502">
        <ele>49</ele>
        <time>2021-11-05T13:39:39Z</time>
      </trkpt>
      <trkpt lat="50.49354" lon="3.1654">
        <ele>49</ele>
        <time>2021-11-05T13:39:44Z</time>
      </trkpt>
      <trkpt lat="50.49374" lon="3.16577">
        <ele>49</ele>
        <time>2021-11-05T13:39:49Z</time>
      </trkpt>
      <trkpt lat="50.49395" lon="3.16614">
        <ele>49</ele>
        <time>2021-11-05T13:39:54Z</time>
      </trkpt>
      <trkpt lat="50.49402" lon="3.16599">
        <ele>49</ele>
        <time>2021-11-05T13:39:56Z</time>
      </trkpt>
      <trkpt lat="50.49404" lon="3.16595">
        <ele>49</ele>
        <time>2021-11-05T13:39:57Z</time>
      </trkpt>
      <trkpt lat="50.4942" lon="3.16561">
        <ele>49</ele>
        <time>2021-11-05T13:40:01Z</time>
      </trkpt>
      <trkpt lat="50.49436" lon="3.16527">
        <ele>48.8</ele>
        <time>2021-11-05T13:40:06Z</time>
      </trkpt>
      <trkpt lat="50.49452" lon="3.16493">
        <ele>48.8</ele>
        <time>2021-11-05T13:40:10Z</time>
      </trkpt>
      <trkpt lat="50.49468" lon="3.16459">
        <ele>48.8</ele>
        <time>2021-11-05T13:40:14Z</time>
      </trkpt>
      <trkpt lat="50.49484" lon="3.16419">
        <ele>49</ele>
        <time>2021-11-05T13:40:19Z</time>
      </trkpt>
      <trkpt lat="50.49501" lon="3.16379">
        <ele>48.8</ele>
        <time>2021-11-05T13:40:24Z</time>
      </trkpt>
      <trkpt lat="50.49518" lon="3.16339">
        <ele>48.8</ele>
        <time>2021-11-05T13:40:29Z</time>
      </trkpt>
      <trkpt lat="50.49534" lon="3.163">
        <ele>48.8</ele>
        <time>2021-11-05T13:40:34Z</time>
      </trkpt>
      <trkpt lat="50.49548" lon="3.16261">
        <ele>48.8</ele>
        <time>2021-11-05T13:40:38Z</time>
      </trkpt>
      <trkpt lat="50.49562" lon="3.16222">
        <ele>48.8</ele>
        <time>2021-11-05T13:40:43Z</time>
      </trkpt>
      <trkpt lat="50.49576" lon="3.16183">
        <ele>48.6</ele>
        <time>2021-11-05T13:40:47Z</time>
      </trkpt>
      <trkpt lat="50.4959" lon="3.16144">
        <ele>48.6</ele>
        <time>2021-11-05T13:40:52Z</time>
      </trkpt>
      <trkpt lat="50.49604" lon="3.16105">
        <ele>48.8</ele>
        <time>2021-11-05T13:40:56Z</time>
      </trkpt>
      <trkpt lat="50.49618" lon="3.16066">
        <ele>48.8</ele>
        <time>2021-11-05T13:41:01Z</time>
      </trkpt>
      <trkpt lat="50.49632" lon="3.16027">
        <ele>48.6</ele>
        <time>2021-11-05T13:41:06Z</time>
      </trkpt>
      <trkpt lat="50.49646" lon="3.15988">
        <ele>48.8</ele>
        <time>2021-11-05T13:41:10Z</time>
      </trkpt>
      <trkpt lat="50.4966" lon="3.15949">
        <ele>48.8</ele>
        <time>2021-11-05T13:41:15Z</time>
      </trkpt>
      <trkpt lat="50.49668" lon="3.15928">
        <ele>48.8</ele>
        <time>2021-11-05T13:41:17Z</time>
      </trkpt>
      <trkpt lat="50.4969" lon="3.15959">
        <ele>48.6</ele>
        <time>2021-11-05T13:41:22Z</time>
      </trkpt>
      <trkpt lat="50.49712" lon="3.1599">
        <ele>48.6</ele>
        <time>2021-11-05T13:41:27Z</time>
      </trkpt>
      <trkpt lat="50.49733" lon="3.16021">
        <ele>48.6</ele>
        <time>2021-11-05T13:41:31Z</time>
      </trkpt>
      <trkpt lat="50.49755" lon="3.16052">
        <ele>48.6</ele>
        <time>2021-11-05T13:41:36Z</time>
      </trkpt>
      <trkpt lat="50.49777" lon="3.16084">
        <ele>48.6</ele>
        <time>2021-11-05T13:41:41Z</time>
      </trkpt>
      <trkpt lat="50.49798" lon="3.16114">
        <ele>48.6</ele>
        <time>2021-11-05T13:41:45Z</time>
      </trkpt>
      <trkpt lat="50.49814" lon="3.16142">
        <ele>48.4</ele>
        <time>2021-11-05T13:41:49Z</time>
      </trkpt>
      <trkpt lat="50.49829" lon="3.16169">
        <ele>48.2</ele>
        <time>2021-11-05T13:41:53Z</time>
      </trkpt>
      <trkpt lat="50.49849" lon="3.16206">
        <ele>48</ele>
        <time>2021-11-05T13:41:58Z</time>
      </trkpt>
      <trkpt lat="50.49869" lon="3.16242">
        <ele>48</ele>
        <time>2021-11-05T13:42:03Z</time>
      </trkpt>
      <trkpt lat="50.49887" lon="3.16267">
        <ele>47.8</ele>
        <time>2021-11-05T13:42:07Z</time>
      </trkpt>
      <trkpt lat="50.49905" lon="3.16292">
        <ele>47.6</ele>
        <time>2021-11-05T13:42:11Z</time>
      </trkpt>
      <trkpt lat="50.49924" lon="3.16317">
        <ele>47.4</ele>
        <time>2021-11-05T13:42:14Z</time>
      </trkpt>
      <trkpt lat="50.49942" lon="3.1634">
        <ele>47.2</ele>
        <time>2021-11-05T13:42:18Z</time>
      </trkpt>
      <trkpt lat="50.49958" lon="3.16367">
        <ele>47</ele>
        <time>2021-11-05T13:42:22Z</time>
      </trkpt>
      <trkpt lat="50.49974" lon="3.16393">
        <ele>47</ele>
        <time>2021-11-05T13:42:26Z</time>
      </trkpt>
      <trkpt lat="50.4999" lon="3.16421">
        <ele>46.8</ele>
        <time>2021-11-05T13:42:29Z</time>
      </trkpt>
      <trkpt lat="50.50006" lon="3.16449">
        <ele>46.8</ele>
        <time>2021-11-05T13:42:33Z</time>
      </trkpt>
      <trkpt lat="50.50021" lon="3.16476">
        <ele>46.6</ele>
        <time>2021-11-05T13:42:37Z</time>
      </trkpt>
      <trkpt lat="50.50036" lon="3.16506">
        <ele>46.6</ele>
        <time>2021-11-05T13:42:41Z</time>
      </trkpt>
      <trkpt lat="50.50051" lon="3.16535">
        <ele>46.4</ele>
        <time>2021-11-05T13:42:45Z</time>
      </trkpt>
      <trkpt lat="50.50065" lon="3.16562">
        <ele>46.4</ele>
        <time>2021-11-05T13:42:48Z</time>
      </trkpt>
      <trkpt lat="50.50078" lon="3.16589">
        <ele>46.4</ele>
        <time>2021-11-05T13:42:52Z</time>
      </trkpt>
      <trkpt lat="50.50091" lon="3.16617">
        <ele>46.4</ele>
        <time>2021-11-05T13:42:55Z</time>
      </trkpt>
      <trkpt lat="50.50114" lon="3.16651">
        <ele>46.4</ele>
        <time>2021-11-05T13:43:00Z</time>
      </trkpt>
      <trkpt lat="50.50134" lon="3.16673">
        <ele>46.4</ele>
        <time>2021-11-05T13:43:04Z</time>
      </trkpt>
      <trkpt lat="50.50155" lon="3.16694">
        <ele>46.4</ele>
        <time>2021-11-05T13:43:08Z</time>
      </trkpt>
      <trkpt lat="50.50176" lon="3.16716">
        <ele>46.4</ele>
        <time>2021-11-05T13:43:12Z</time>
      </trkpt>
      <trkpt lat="50.50196" lon="3.16738">
        <ele>46.6</ele>
        <time>2021-11-05T13:43:16Z</time>
      </trkpt>
      <trkpt lat="50.50223" lon="3.1676">
        <ele>46.6</ele>
        <time>2021-11-05T13:43:21Z</time>
      </trkpt>
      <trkpt lat="50.5025" lon="3.16781">
        <ele>46.6</ele>
        <time>2021-11-05T13:43:26Z</time>
      </trkpt>
      <trkpt lat="50.50277" lon="3.16803">
        <ele>46.6</ele>
        <time>2021-11-05T13:43:31Z</time>
      </trkpt>
      <trkpt lat="50.50303" lon="3.16825">
        <ele>46.6</ele>
        <time>2021-11-05T13:43:35Z</time>
      </trkpt>
      <trkpt lat="50.50324" lon="3.16842">
        <ele>46.4</ele>
        <time>2021-11-05T13:43:39Z</time>
      </trkpt>
      <trkpt lat="50.50339" lon="3.16855">
        <ele>46.2</ele>
        <time>2021-11-05T13:43:42Z</time>
      </trkpt>
      <trkpt lat="50.50354" lon="3.16868">
        <ele>46</ele>
        <time>2021-11-05T13:43:45Z</time>
      </trkpt>
      <trkpt lat="50.50373" lon="3.1688">
        <ele>45.6</ele>
        <time>2021-11-05T13:43:48Z</time>
      </trkpt>
      <trkpt lat="50.50393" lon="3.16893">
        <ele>45.2</ele>
        <time>2021-11-05T13:43:51Z</time>
      </trkpt>
      <trkpt lat="50.50412" lon="3.16906">
        <ele>45</ele>
        <time>2021-11-05T13:43:55Z</time>
      </trkpt>
      <trkpt lat="50.50441" lon="3.1692">
        <ele>44.6</ele>
        <time>2021-11-05T13:44:00Z</time>
      </trkpt>
      <trkpt lat="50.5047" lon="3.16935">
        <ele>44.2</ele>
        <time>2021-11-05T13:44:04Z</time>
      </trkpt>
      <trkpt lat="50.50499" lon="3.16949">
        <ele>44</ele>
        <time>2021-11-05T13:44:09Z</time>
      </trkpt>
      <trkpt lat="50.50528" lon="3.16963">
        <ele>44</ele>
        <time>2021-11-05T13:44:14Z</time>
      </trkpt>
      <trkpt lat="50.50546" lon="3.1697">
        <ele>43.6</ele>
        <time>2021-11-05T13:44:17Z</time>
      </trkpt>
      <trkpt lat="50.50565" lon="3.16976">
        <ele>43.4</ele>
        <time>2021-11-05T13:44:20Z</time>
      </trkpt>
      <trkpt lat="50.50585" lon="3.16976">
        <ele>43.2</ele>
        <time>2021-11-05T13:44:24Z</time>
      </trkpt>
      <trkpt lat="50.50605" lon="3.16977">
        <ele>43</ele>
        <time>2021-11-05T13:44:27Z</time>
      </trkpt>
      <trkpt lat="50.50624" lon="3.16974">
        <ele>42.8</ele>
        <time>2021-11-05T13:44:30Z</time>
      </trkpt>
      <trkpt lat="50.50642" lon="3.16971">
        <ele>42.6</ele>
        <time>2021-11-05T13:44:33Z</time>
      </trkpt>
      <trkpt lat="50.50671" lon="3.16968">
        <ele>42.4</ele>
        <time>2021-11-05T13:44:37Z</time>
      </trkpt>
      <trkpt lat="50.50688" lon="3.16968">
        <ele>42.4</ele>
        <time>2021-11-05T13:44:40Z</time>
      </trkpt>
      <trkpt lat="50.50699" lon="3.16972">
        <ele>42.4</ele>
        <time>2021-11-05T13:44:42Z</time>
      </trkpt>
      <trkpt lat="50.50694" lon="3.16983">
        <ele>42</ele>
        <time>2021-11-05T13:44:44Z</time>
      </trkpt>
      <trkpt lat="50.50699" lon="3.16972">
        <ele>42</ele>
        <time>2021-11-05T13:44:46Z</time>
      </trkpt>
      <trkpt lat="50.50718" lon="3.16994">
        <ele>41.8</ele>
        <time>2021-11-05T13:44:49Z</time>
      </trkpt>
      <trkpt lat="50.50724" lon="3.16997">
        <ele>41.8</ele>
        <time>2021-11-05T13:44:51Z</time>
      </trkpt>
      <trkpt lat="50.50738" lon="3.17006">
        <ele>41.8</ele>
        <time>2021-11-05T13:44:53Z</time>
      </trkpt>
      <trkpt lat="50.50752" lon="3.17033">
        <ele>41.6</ele>
        <time>2021-11-05T13:44:56Z</time>
      </trkpt>
      <trkpt lat="50.50765" lon="3.17048">
        <ele>41.6</ele>
        <time>2021-11-05T13:44:59Z</time>
      </trkpt>
      <trkpt lat="50.50789" lon="3.17074">
        <ele>41.6</ele>
        <time>2021-11-05T13:45:04Z</time>
      </trkpt>
      <trkpt lat="50.50813" lon="3.17099">
        <ele>41.6</ele>
        <time>2021-11-05T13:45:08Z</time>
      </trkpt>
      <trkpt lat="50.50816" lon="3.17111">
        <ele>41.8</ele>
        <time>2021-11-05T13:45:10Z</time>
      </trkpt>
      <trkpt lat="50.50826" lon="3.17114">
        <ele>42</ele>
        <time>2021-11-05T13:45:11Z</time>
      </trkpt>
      <trkpt lat="50.50847" lon="3.1712">
        <ele>42.2</ele>
        <time>2021-11-05T13:45:15Z</time>
      </trkpt>
      <trkpt lat="50.50869" lon="3.17126">
        <ele>42.4</ele>
        <time>2021-11-05T13:45:18Z</time>
      </trkpt>
      <trkpt lat="50.5089" lon="3.17132">
        <ele>42.6</ele>
        <time>2021-11-05T13:45:22Z</time>
      </trkpt>
      <trkpt lat="50.50912" lon="3.17138">
        <ele>42.8</ele>
        <time>2021-11-05T13:45:25Z</time>
      </trkpt>
      <trkpt lat="50.50935" lon="3.17146">
        <ele>43</ele>
        <time>2021-11-05T13:45:29Z</time>
      </trkpt>
      <trkpt lat="50.50958" lon="3.17154">
        <ele>43.4</ele>
        <time>2021-11-05T13:45:33Z</time>
      </trkpt>
      <trkpt lat="50.50977" lon="3.1716">
        <ele>43.6</ele>
        <time>2021-11-05T13:45:36Z</time>
      </trkpt>
      <trkpt lat="50.51006" lon="3.17169">
        <ele>43.6</ele>
        <time>2021-11-05T13:45:41Z</time>
      </trkpt>
      <trkpt lat="50.51035" lon="3.17177">
        <ele>44</ele>
        <time>2021-11-05T13:45:45Z</time>
      </trkpt>
      <trkpt lat="50.51056" lon="3.17177">
        <ele>44.2</ele>
        <time>2021-11-05T13:45:49Z</time>
      </trkpt>
      <trkpt lat="50.51077" lon="3.17178">
        <ele>44.2</ele>
        <time>2021-11-05T13:45:52Z</time>
      </trkpt>
      <trkpt lat="50.51098" lon="3.17179">
        <ele>44.4</ele>
        <time>2021-11-05T13:45:56Z</time>
      </trkpt>
      <trkpt lat="50.51115" lon="3.17181">
        <ele>44.6</ele>
        <time>2021-11-05T13:45:58Z</time>
      </trkpt>
      <trkpt lat="50.5114" lon="3.17167">
        <ele>44.8</ele>
        <time>2021-11-05T13:46:02Z</time>
      </trkpt>
      <trkpt lat="50.51157" lon="3.17147">
        <ele>45</ele>
        <time>2021-11-05T13:46:06Z</time>
      </trkpt>
      <trkpt lat="50.51175" lon="3.17127">
        <ele>45.2</ele>
        <time>2021-11-05T13:46:09Z</time>
      </trkpt>
      <trkpt lat="50.51184" lon="3.17118">
        <ele>45.4</ele>
        <time>2021-11-05T13:46:11Z</time>
      </trkpt>
      <trkpt lat="50.51206" lon="3.17097">
        <ele>45.6</ele>
        <time>2021-11-05T13:46:15Z</time>
      </trkpt>
      <trkpt lat="50.5123" lon="3.17077">
        <ele>46</ele>
        <time>2021-11-05T13:46:20Z</time>
      </trkpt>
      <trkpt lat="50.51254" lon="3.17066">
        <ele>46.2</ele>
        <time>2021-11-05T13:46:24Z</time>
      </trkpt>
      <trkpt lat="50.51274" lon="3.1706">
        <ele>46.4</ele>
        <time>2021-11-05T13:46:27Z</time>
      </trkpt>
      <trkpt lat="50.51294" lon="3.17054">
        <ele>46.6</ele>
        <time>2021-11-05T13:46:30Z</time>
      </trkpt>
      <trkpt lat="50.5131" lon="3.17047">
        <ele>46.6</ele>
        <time>2021-11-05T13:46:33Z</time>
      </trkpt>
      <trkpt lat="50.51314" lon="3.17038">
        <ele>46.8</ele>
        <time>2021-11-05T13:46:34Z</time>
      </trkpt>
      <trkpt lat="50.51316" lon="3.17026">
        <ele>47</ele>
        <time>2021-11-05T13:46:35Z</time>
      </trkpt>
      <trkpt lat="50.51322" lon="3.17024">
        <ele>46.8</ele>
        <time>2021-11-05T13:46:36Z</time>
      </trkpt>
      <trkpt lat="50.51326" lon="3.17027">
        <ele>46.8</ele>
        <time>2021-11-05T13:46:37Z</time>
      </trkpt>
      <trkpt lat="50.51328" lon="3.17036">
        <ele>46.6</ele>
        <time>2021-11-05T13:46:38Z</time>
      </trkpt>
      <trkpt lat="50.51324" lon="3.17046">
        <ele>46.6</ele>
        <time>2021-11-05T13:46:39Z</time>
      </trkpt>
      <trkpt lat="50.51332" lon="3.1708">
        <ele>46.6</ele>
        <time>2021-11-05T13:46:43Z</time>
      </trkpt>
      <trkpt lat="50.51346" lon="3.1711">
        <ele>46.6</ele>
        <time>2021-11-05T13:46:47Z</time>
      </trkpt>
      <trkpt lat="50.51359" lon="3.1713">
        <ele>46.6</ele>
        <time>2021-11-05T13:46:50Z</time>
      </trkpt>
      <trkpt lat="50.51369" lon="3.17138">
        <ele>46.8</ele>
        <time>2021-11-05T13:46:52Z</time>
      </trkpt>
      <trkpt lat="50.51385" lon="3.17145">
        <ele>47</ele>
        <time>2021-11-05T13:46:54Z</time>
      </trkpt>
      <trkpt lat="50.51402" lon="3.17153">
        <ele>47</ele>
        <time>2021-11-05T13:46:57Z</time>
      </trkpt>
      <trkpt lat="50.51421" lon="3.17158">
        <ele>47.4</ele>
        <time>2021-11-05T13:47:00Z</time>
      </trkpt>
      <trkpt lat="50.51432" lon="3.17157">
        <ele>47.4</ele>
        <time>2021-11-05T13:47:02Z</time>
      </trkpt>
      <trkpt lat="50.51453" lon="3.17152">
        <ele>47.6</ele>
        <time>2021-11-05T13:47:05Z</time>
      </trkpt>
      <trkpt lat="50.51477" lon="3.1714">
        <ele>47.8</ele>
        <time>2021-11-05T13:47:09Z</time>
      </trkpt>
      <trkpt lat="50.51505" lon="3.17127">
        <ele>48</ele>
        <time>2021-11-05T13:47:14Z</time>
      </trkpt>
      <trkpt lat="50.51516" lon="3.17122">
        <ele>47.8</ele>
        <time>2021-11-05T13:47:16Z</time>
      </trkpt>
      <trkpt lat="50.51522" lon="3.17119">
        <ele>47.6</ele>
        <time>2021-11-05T13:47:17Z</time>
      </trkpt>
      <trkpt lat="50.51528" lon="3.17125">
        <ele>47.4</ele>
        <time>2021-11-05T13:47:18Z</time>
      </trkpt>
      <trkpt lat="50.51534" lon="3.1714">
        <ele>47</ele>
        <time>2021-11-05T13:47:20Z</time>
      </trkpt>
      <trkpt lat="50.51542" lon="3.17173">
        <ele>46.4</ele>
        <time>2021-11-05T13:47:24Z</time>
      </trkpt>
      <trkpt lat="50.51547" lon="3.17206">
        <ele>45.8</ele>
        <time>2021-11-05T13:47:27Z</time>
      </trkpt>
      <trkpt lat="50.51552" lon="3.17238">
        <ele>45.4</ele>
        <time>2021-11-05T13:47:30Z</time>
      </trkpt>
      <trkpt lat="50.51558" lon="3.1727">
        <ele>45.2</ele>
        <time>2021-11-05T13:47:34Z</time>
      </trkpt>
      <trkpt lat="50.51564" lon="3.17285">
        <ele>44.4</ele>
        <time>2021-11-05T13:47:36Z</time>
      </trkpt>
      <trkpt lat="50.51586" lon="3.17315">
        <ele>43.6</ele>
        <time>2021-11-05T13:47:40Z</time>
      </trkpt>
      <trkpt lat="50.51608" lon="3.17346">
        <ele>43.2</ele>
        <time>2021-11-05T13:47:45Z</time>
      </trkpt>
      <trkpt lat="50.5163" lon="3.17376">
        <ele>42.8</ele>
        <time>2021-11-05T13:47:50Z</time>
      </trkpt>
      <trkpt lat="50.51652" lon="3.17406">
        <ele>42.2</ele>
        <time>2021-11-05T13:47:54Z</time>
      </trkpt>
      <trkpt lat="50.51663" lon="3.17418">
        <ele>41.4</ele>
        <time>2021-11-05T13:47:56Z</time>
      </trkpt>
      <trkpt lat="50.51684" lon="3.17435">
        <ele>40.6</ele>
        <time>2021-11-05T13:48:00Z</time>
      </trkpt>
      <trkpt lat="50.51708" lon="3.17451">
        <ele>39.6</ele>
        <time>2021-11-05T13:48:04Z</time>
      </trkpt>
      <trkpt lat="50.51731" lon="3.17468">
        <ele>39.2</ele>
        <time>2021-11-05T13:48:08Z</time>
      </trkpt>
      <trkpt lat="50.51755" lon="3.17485">
        <ele>39</ele>
        <time>2021-11-05T13:48:13Z</time>
      </trkpt>
      <trkpt lat="50.51778" lon="3.17502">
        <ele>39</ele>
        <time>2021-11-05T13:48:17Z</time>
      </trkpt>
      <trkpt lat="50.51801" lon="3.17519">
        <ele>38.8</ele>
        <time>2021-11-05T13:48:21Z</time>
      </trkpt>
      <trkpt lat="50.51821" lon="3.17539">
        <ele>39</ele>
        <time>2021-11-05T13:48:25Z</time>
      </trkpt>
      <trkpt lat="50.51841" lon="3.17558">
        <ele>39</ele>
        <time>2021-11-05T13:48:28Z</time>
      </trkpt>
      <trkpt lat="50.5186" lon="3.17578">
        <ele>39.2</ele>
        <time>2021-11-05T13:48:32Z</time>
      </trkpt>
      <trkpt lat="50.51883" lon="3.1759">
        <ele>39.6</ele>
        <time>2021-11-05T13:48:36Z</time>
      </trkpt>
      <trkpt lat="50.51913" lon="3.17601">
        <ele>40.2</ele>
        <time>2021-11-05T13:48:41Z</time>
      </trkpt>
      <trkpt lat="50.51943" lon="3.17612">
        <ele>40.6</ele>
        <time>2021-11-05T13:48:46Z</time>
      </trkpt>
      <trkpt lat="50.5196" lon="3.17619">
        <ele>41.2</ele>
        <time>2021-11-05T13:48:49Z</time>
      </trkpt>
      <trkpt lat="50.51977" lon="3.17625">
        <ele>41.6</ele>
        <time>2021-11-05T13:48:51Z</time>
      </trkpt>
      <trkpt lat="50.51991" lon="3.17625">
        <ele>42.4</ele>
        <time>2021-11-05T13:48:54Z</time>
      </trkpt>
      <trkpt lat="50.52003" lon="3.17622">
        <ele>43</ele>
        <time>2021-11-05T13:48:56Z</time>
      </trkpt>
      <trkpt lat="50.52015" lon="3.17611">
        <ele>43.6</ele>
        <time>2021-11-05T13:48:58Z</time>
      </trkpt>
      <trkpt lat="50.52039" lon="3.17584">
        <ele>44.2</ele>
        <time>2021-11-05T13:49:03Z</time>
      </trkpt>
      <trkpt lat="50.52064" lon="3.17557">
        <ele>44.4</ele>
        <time>2021-11-05T13:49:07Z</time>
      </trkpt>
      <trkpt lat="50.52074" lon="3.17552">
        <ele>45</ele>
        <time>2021-11-05T13:49:09Z</time>
      </trkpt>
      <trkpt lat="50.52091" lon="3.17541">
        <ele>45.4</ele>
        <time>2021-11-05T13:49:12Z</time>
      </trkpt>
      <trkpt lat="50.52109" lon="3.17531">
        <ele>45.6</ele>
        <time>2021-11-05T13:49:15Z</time>
      </trkpt>
      <trkpt lat="50.52126" lon="3.17526">
        <ele>46</ele>
        <time>2021-11-05T13:49:18Z</time>
      </trkpt>
      <trkpt lat="50.52143" lon="3.17521">
        <ele>46.4</ele>
        <time>2021-11-05T13:49:21Z</time>
      </trkpt>
      <trkpt lat="50.52153" lon="3.17517">
        <ele>46.8</ele>
        <time>2021-11-05T13:49:22Z</time>
      </trkpt>
      <trkpt lat="50.52179" lon="3.1752">
        <ele>47</ele>
        <time>2021-11-05T13:49:26Z</time>
      </trkpt>
      <trkpt lat="50.52206" lon="3.17525">
        <ele>47.2</ele>
        <time>2021-11-05T13:49:31Z</time>
      </trkpt>
      <trkpt lat="50.52207" lon="3.17521">
        <ele>47</ele>
        <time>2021-11-05T13:49:32Z</time>
      </trkpt>
      <trkpt lat="50.52206" lon="3.17525">
        <ele>46.8</ele>
        <time>2021-11-05T13:49:33Z</time>
      </trkpt>
      <trkpt lat="50.52198" lon="3.1756">
        <ele>46.4</ele>
        <time>2021-11-05T13:49:36Z</time>
      </trkpt>
      <trkpt lat="50.5219" lon="3.17595">
        <ele>46.2</ele>
        <time>2021-11-05T13:49:40Z</time>
      </trkpt>
      <trkpt lat="50.52181" lon="3.1763">
        <ele>46</ele>
        <time>2021-11-05T13:49:44Z</time>
      </trkpt>
      <trkpt lat="50.52173" lon="3.17665">
        <ele>45.2</ele>
        <time>2021-11-05T13:49:48Z</time>
      </trkpt>
      <trkpt lat="50.52165" lon="3.17707">
        <ele>44.6</ele>
        <time>2021-11-05T13:49:52Z</time>
      </trkpt>
      <trkpt lat="50.52157" lon="3.1775">
        <ele>44.4</ele>
        <time>2021-11-05T13:49:57Z</time>
      </trkpt>
      <trkpt lat="50.5215" lon="3.17794">
        <ele>43.8</ele>
        <time>2021-11-05T13:50:01Z</time>
      </trkpt>
      <trkpt lat="50.52142" lon="3.17838">
        <ele>43.6</ele>
        <time>2021-11-05T13:50:06Z</time>
      </trkpt>
      <trkpt lat="50.52134" lon="3.17881">
        <ele>42.8</ele>
        <time>2021-11-05T13:50:11Z</time>
      </trkpt>
      <trkpt lat="50.52131" lon="3.17896">
        <ele>42.4</ele>
        <time>2021-11-05T13:50:12Z</time>
      </trkpt>
      <trkpt lat="50.52121" lon="3.17933">
        <ele>41.8</ele>
        <time>2021-11-05T13:50:16Z</time>
      </trkpt>
      <trkpt lat="50.52111" lon="3.17969">
        <ele>41.6</ele>
        <time>2021-11-05T13:50:20Z</time>
      </trkpt>
      <trkpt lat="50.52107" lon="3.17984">
        <ele>41.2</ele>
        <time>2021-11-05T13:50:22Z</time>
      </trkpt>
      <trkpt lat="50.52098" lon="3.18015">
        <ele>40.8</ele>
        <time>2021-11-05T13:50:26Z</time>
      </trkpt>
      <trkpt lat="50.52088" lon="3.18045">
        <ele>40.6</ele>
        <time>2021-11-05T13:50:29Z</time>
      </trkpt>
      <trkpt lat="50.52079" lon="3.18076">
        <ele>40.2</ele>
        <time>2021-11-05T13:50:32Z</time>
      </trkpt>
      <trkpt lat="50.52074" lon="3.18093">
        <ele>39.4</ele>
        <time>2021-11-05T13:50:34Z</time>
      </trkpt>
      <trkpt lat="50.52075" lon="3.18096">
        <ele>39</ele>
        <time>2021-11-05T13:50:35Z</time>
      </trkpt>
      <trkpt lat="50.52093" lon="3.1813">
        <ele>39</ele>
        <time>2021-11-05T13:50:39Z</time>
      </trkpt>
      <trkpt lat="50.5211" lon="3.18164">
        <ele>39</ele>
        <time>2021-11-05T13:50:44Z</time>
      </trkpt>
      <trkpt lat="50.52127" lon="3.18198">
        <ele>38.8</ele>
        <time>2021-11-05T13:50:48Z</time>
      </trkpt>
      <trkpt lat="50.52146" lon="3.18236">
        <ele>38.8</ele>
        <time>2021-11-05T13:50:53Z</time>
      </trkpt>
      <trkpt lat="50.52165" lon="3.18273">
        <ele>39</ele>
        <time>2021-11-05T13:50:58Z</time>
      </trkpt>
      <trkpt lat="50.52184" lon="3.18311">
        <ele>38.8</ele>
        <time>2021-11-05T13:51:03Z</time>
      </trkpt>
      <trkpt lat="50.52201" lon="3.18349">
        <ele>39</ele>
        <time>2021-11-05T13:51:08Z</time>
      </trkpt>
      <trkpt lat="50.52218" lon="3.18378">
        <ele>39</ele>
        <time>2021-11-05T13:51:12Z</time>
      </trkpt>
      <trkpt lat="50.52234" lon="3.18407">
        <ele>39</ele>
        <time>2021-11-05T13:51:16Z</time>
      </trkpt>
      <trkpt lat="50.52251" lon="3.18435">
        <ele>39</ele>
        <time>2021-11-05T13:51:19Z</time>
      </trkpt>
      <trkpt lat="50.52263" lon="3.18464">
        <ele>39.2</ele>
        <time>2021-11-05T13:51:23Z</time>
      </trkpt>
      <trkpt lat="50.52274" lon="3.18501">
        <ele>39.2</ele>
        <time>2021-11-05T13:51:27Z</time>
      </trkpt>
      <trkpt lat="50.52286" lon="3.18538">
        <ele>39.4</ele>
        <time>2021-11-05T13:51:31Z</time>
      </trkpt>
      <trkpt lat="50.52298" lon="3.18575">
        <ele>39.4</ele>
        <time>2021-11-05T13:51:36Z</time>
      </trkpt>
      <trkpt lat="50.5231" lon="3.18612">
        <ele>39.4</ele>
        <time>2021-11-05T13:51:40Z</time>
      </trkpt>
      <trkpt lat="50.52322" lon="3.1865">
        <ele>39.4</ele>
        <time>2021-11-05T13:51:44Z</time>
      </trkpt>
      <trkpt lat="50.52333" lon="3.18686">
        <ele>39.6</ele>
        <time>2021-11-05T13:51:48Z</time>
      </trkpt>
      <trkpt lat="50.52347" lon="3.18718">
        <ele>39.6</ele>
        <time>2021-11-05T13:51:52Z</time>
      </trkpt>
      <trkpt lat="50.52354" lon="3.18724">
        <ele>39.6</ele>
        <time>2021-11-05T13:51:53Z</time>
      </trkpt>
      <trkpt lat="50.52367" lon="3.18729">
        <ele>39.6</ele>
        <time>2021-11-05T13:51:56Z</time>
      </trkpt>
      <trkpt lat="50.52397" lon="3.18739">
        <ele>39.6</ele>
        <time>2021-11-05T13:52:00Z</time>
      </trkpt>
      <trkpt lat="50.52414" lon="3.18742">
        <ele>39.6</ele>
        <time>2021-11-05T13:52:03Z</time>
      </trkpt>
      <trkpt lat="50.52432" lon="3.18746">
        <ele>39.4</ele>
        <time>2021-11-05T13:52:06Z</time>
      </trkpt>
      <trkpt lat="50.52445" lon="3.18788">
        <ele>39.2</ele>
        <time>2021-11-05T13:52:11Z</time>
      </trkpt>
      <trkpt lat="50.52457" lon="3.18831">
        <ele>39</ele>
        <time>2021-11-05T13:52:16Z</time>
      </trkpt>
      <trkpt lat="50.5247" lon="3.18873">
        <ele>38.8</ele>
        <time>2021-11-05T13:52:20Z</time>
      </trkpt>
      <trkpt lat="50.52482" lon="3.18915">
        <ele>38.6</ele>
        <time>2021-11-05T13:52:25Z</time>
      </trkpt>
      <trkpt lat="50.52494" lon="3.18956">
        <ele>38.2</ele>
        <time>2021-11-05T13:52:30Z</time>
      </trkpt>
      <trkpt lat="50.52506" lon="3.18997">
        <ele>38</ele>
        <time>2021-11-05T13:52:34Z</time>
      </trkpt>
      <trkpt lat="50.52517" lon="3.19039">
        <ele>37.8</ele>
        <time>2021-11-05T13:52:39Z</time>
      </trkpt>
      <trkpt lat="50.52529" lon="3.1908">
        <ele>37.4</ele>
        <time>2021-11-05T13:52:44Z</time>
      </trkpt>
      <trkpt lat="50.52541" lon="3.19122">
        <ele>37.2</ele>
        <time>2021-11-05T13:52:48Z</time>
      </trkpt>
      <trkpt lat="50.52552" lon="3.19162">
        <ele>36.8</ele>
        <time>2021-11-05T13:52:53Z</time>
      </trkpt>
      <trkpt lat="50.5256" lon="3.19194">
        <ele>36.2</ele>
        <time>2021-11-05T13:52:56Z</time>
      </trkpt>
      <trkpt lat="50.52567" lon="3.19226">
        <ele>36</ele>
        <time>2021-11-05T13:53:00Z</time>
      </trkpt>
      <trkpt lat="50.52575" lon="3.19258">
        <ele>35.6</ele>
        <time>2021-11-05T13:53:03Z</time>
      </trkpt>
      <trkpt lat="50.52587" lon="3.19293">
        <ele>35.2</ele>
        <time>2021-11-05T13:53:07Z</time>
      </trkpt>
      <trkpt lat="50.52598" lon="3.19327">
        <ele>34.8</ele>
        <time>2021-11-05T13:53:11Z</time>
      </trkpt>
      <trkpt lat="50.5261" lon="3.19362">
        <ele>34.6</ele>
        <time>2021-11-05T13:53:15Z</time>
      </trkpt>
      <trkpt lat="50.52622" lon="3.19396">
        <ele>34.4</ele>
        <time>2021-11-05T13:53:19Z</time>
      </trkpt>
      <trkpt lat="50.52629" lon="3.19429">
        <ele>34</ele>
        <time>2021-11-05T13:53:23Z</time>
      </trkpt>
      <trkpt lat="50.52632" lon="3.19443">
        <ele>33.8</ele>
        <time>2021-11-05T13:53:24Z</time>
      </trkpt>
      <trkpt lat="50.52634" lon="3.19484">
        <ele>33.4</ele>
        <time>2021-11-05T13:53:29Z</time>
      </trkpt>
      <trkpt lat="50.52636" lon="3.19526">
        <ele>33.4</ele>
        <time>2021-11-05T13:53:33Z</time>
      </trkpt>
      <trkpt lat="50.52639" lon="3.19563">
        <ele>33.4</ele>
        <time>2021-11-05T13:53:37Z</time>
      </trkpt>
      <trkpt lat="50.52646" lon="3.19598">
        <ele>33.4</ele>
        <time>2021-11-05T13:53:40Z</time>
      </trkpt>
      <trkpt lat="50.52658" lon="3.1964">
        <ele>33.4</ele>
        <time>2021-11-05T13:53:45Z</time>
      </trkpt>
      <trkpt lat="50.52671" lon="3.19682">
        <ele>33.4</ele>
        <time>2021-11-05T13:53:50Z</time>
      </trkpt>
      <trkpt lat="50.52683" lon="3.19725">
        <ele>33.4</ele>
        <time>2021-11-05T13:53:55Z</time>
      </trkpt>
      <trkpt lat="50.52696" lon="3.19767">
        <ele>33.4</ele>
        <time>2021-11-05T13:53:59Z</time>
      </trkpt>
      <trkpt lat="50.52707" lon="3.19804">
        <ele>33.4</ele>
        <time>2021-11-05T13:54:04Z</time>
      </trkpt>
      <trkpt lat="50.52719" lon="3.19842">
        <ele>33.6</ele>
        <time>2021-11-05T13:54:08Z</time>
      </trkpt>
      <trkpt lat="50.5273" lon="3.19879">
        <ele>33.4</ele>
        <time>2021-11-05T13:54:12Z</time>
      </trkpt>
      <trkpt lat="50.52738" lon="3.19903">
        <ele>33.4</ele>
        <time>2021-11-05T13:54:15Z</time>
      </trkpt>
      <trkpt lat="50.52745" lon="3.19926">
        <ele>33.2</ele>
        <time>2021-11-05T13:54:17Z</time>
      </trkpt>
      <trkpt lat="50.52746" lon="3.1993">
        <ele>33.2</ele>
        <time>2021-11-05T13:54:18Z</time>
      </trkpt>
      <trkpt lat="50.52757" lon="3.19965">
        <ele>33.2</ele>
        <time>2021-11-05T13:54:22Z</time>
      </trkpt>
      <trkpt lat="50.52768" lon="3.2">
        <ele>33.2</ele>
        <time>2021-11-05T13:54:26Z</time>
      </trkpt>
      <trkpt lat="50.52775" lon="3.20032">
        <ele>33.4</ele>
        <time>2021-11-05T13:54:29Z</time>
      </trkpt>
      <trkpt lat="50.52776" lon="3.20043">
        <ele>33.4</ele>
        <time>2021-11-05T13:54:30Z</time>
      </trkpt>
      <trkpt lat="50.52775" lon="3.20062">
        <ele>33.6</ele>
        <time>2021-11-05T13:54:32Z</time>
      </trkpt>
      <trkpt lat="50.52767" lon="3.20088">
        <ele>33.8</ele>
        <time>2021-11-05T13:54:35Z</time>
      </trkpt>
      <trkpt lat="50.5276" lon="3.20098">
        <ele>34.2</ele>
        <time>2021-11-05T13:54:37Z</time>
      </trkpt>
      <trkpt lat="50.52739" lon="3.20124">
        <ele>34.4</ele>
        <time>2021-11-05T13:54:41Z</time>
      </trkpt>
      <trkpt lat="50.52717" lon="3.2015">
        <ele>34.8</ele>
        <time>2021-11-05T13:54:45Z</time>
      </trkpt>
      <trkpt lat="50.52711" lon="3.20163">
        <ele>35.2</ele>
        <time>2021-11-05T13:54:47Z</time>
      </trkpt>
      <trkpt lat="50.52708" lon="3.20191">
        <ele>35.6</ele>
        <time>2021-11-05T13:54:50Z</time>
      </trkpt>
      <trkpt lat="50.5271" lon="3.20219">
        <ele>36.2</ele>
        <time>2021-11-05T13:54:53Z</time>
      </trkpt>
      <trkpt lat="50.52712" lon="3.20246">
        <ele>36.4</ele>
        <time>2021-11-05T13:54:56Z</time>
      </trkpt>
      <trkpt lat="50.52717" lon="3.20272">
        <ele>37</ele>
        <time>2021-11-05T13:54:59Z</time>
      </trkpt>
      <trkpt lat="50.52723" lon="3.20299">
        <ele>37.2</ele>
        <time>2021-11-05T13:55:01Z</time>
      </trkpt>
      <trkpt lat="50.5273" lon="3.20325">
        <ele>37.8</ele>
        <time>2021-11-05T13:55:04Z</time>
      </trkpt>
      <trkpt lat="50.52738" lon="3.20351">
        <ele>38</ele>
        <time>2021-11-05T13:55:07Z</time>
      </trkpt>
      <trkpt lat="50.52749" lon="3.20386">
        <ele>38.4</ele>
        <time>2021-11-05T13:55:11Z</time>
      </trkpt>
      <trkpt lat="50.52761" lon="3.20421">
        <ele>38.6</ele>
        <time>2021-11-05T13:55:15Z</time>
      </trkpt>
      <trkpt lat="50.52772" lon="3.20456">
        <ele>39</ele>
        <time>2021-11-05T13:55:19Z</time>
      </trkpt>
      <trkpt lat="50.52783" lon="3.20495">
        <ele>39.2</ele>
        <time>2021-11-05T13:55:24Z</time>
      </trkpt>
      <trkpt lat="50.52794" lon="3.20534">
        <ele>39.4</ele>
        <time>2021-11-05T13:55:28Z</time>
      </trkpt>
      <trkpt lat="50.52798" lon="3.20549">
        <ele>39.8</ele>
        <time>2021-11-05T13:55:30Z</time>
      </trkpt>
      <trkpt lat="50.52801" lon="3.20563">
        <ele>39.8</ele>
        <time>2021-11-05T13:55:31Z</time>
      </trkpt>
      <trkpt lat="50.52806" lon="3.20579">
        <ele>40</ele>
        <time>2021-11-05T13:55:33Z</time>
      </trkpt>
      <trkpt lat="50.5281" lon="3.2059">
        <ele>40.2</ele>
        <time>2021-11-05T13:55:34Z</time>
      </trkpt>
      <trkpt lat="50.5282" lon="3.20624">
        <ele>40.2</ele>
        <time>2021-11-05T13:55:38Z</time>
      </trkpt>
      <trkpt lat="50.52831" lon="3.20657">
        <ele>40.4</ele>
        <time>2021-11-05T13:55:42Z</time>
      </trkpt>
      <trkpt lat="50.52841" lon="3.20691">
        <ele>40.4</ele>
        <time>2021-11-05T13:55:46Z</time>
      </trkpt>
      <trkpt lat="50.52852" lon="3.20724">
        <ele>40.4</ele>
        <time>2021-11-05T13:55:49Z</time>
      </trkpt>
      <trkpt lat="50.52863" lon="3.2076">
        <ele>40.4</ele>
        <time>2021-11-05T13:55:54Z</time>
      </trkpt>
      <trkpt lat="50.52874" lon="3.20796">
        <ele>40.6</ele>
        <time>2021-11-05T13:55:58Z</time>
      </trkpt>
      <trkpt lat="50.52887" lon="3.20835">
        <ele>40.6</ele>
        <time>2021-11-05T13:56:02Z</time>
      </trkpt>
      <trkpt lat="50.52899" lon="3.20873">
        <ele>40.8</ele>
        <time>2021-11-05T13:56:07Z</time>
      </trkpt>
      <trkpt lat="50.52912" lon="3.20912">
        <ele>41</ele>
        <time>2021-11-05T13:56:11Z</time>
      </trkpt>
      <trkpt lat="50.52924" lon="3.2095">
        <ele>41</ele>
        <time>2021-11-05T13:56:15Z</time>
      </trkpt>
      <trkpt lat="50.52936" lon="3.20989">
        <ele>41.2</ele>
        <time>2021-11-05T13:56:20Z</time>
      </trkpt>
      <trkpt lat="50.52942" lon="3.21002">
        <ele>41.4</ele>
        <time>2021-11-05T13:56:21Z</time>
      </trkpt>
      <trkpt lat="50.52956" lon="3.21029">
        <ele>41.8</ele>
        <time>2021-11-05T13:56:25Z</time>
      </trkpt>
      <trkpt lat="50.52971" lon="3.21055">
        <ele>42</ele>
        <time>2021-11-05T13:56:28Z</time>
      </trkpt>
      <trkpt lat="50.52986" lon="3.21081">
        <ele>42.2</ele>
        <time>2021-11-05T13:56:32Z</time>
      </trkpt>
      <trkpt lat="50.52994" lon="3.21112">
        <ele>42.6</ele>
        <time>2021-11-05T13:56:35Z</time>
      </trkpt>
      <trkpt lat="50.53002" lon="3.21143">
        <ele>42.8</ele>
        <time>2021-11-05T13:56:39Z</time>
      </trkpt>
      <trkpt lat="50.5301" lon="3.21174">
        <ele>43</ele>
        <time>2021-11-05T13:56:42Z</time>
      </trkpt>
      <trkpt lat="50.53021" lon="3.21212">
        <ele>43.4</ele>
        <time>2021-11-05T13:56:47Z</time>
      </trkpt>
      <trkpt lat="50.53031" lon="3.2125">
        <ele>43.6</ele>
        <time>2021-11-05T13:56:51Z</time>
      </trkpt>
      <trkpt lat="50.53034" lon="3.21258">
        <ele>44</ele>
        <time>2021-11-05T13:56:52Z</time>
      </trkpt>
      <trkpt lat="50.53038" lon="3.21262">
        <ele>44.2</ele>
        <time>2021-11-05T13:56:53Z</time>
      </trkpt>
      <trkpt lat="50.53039" lon="3.21276">
        <ele>44.6</ele>
        <time>2021-11-05T13:56:54Z</time>
      </trkpt>
      <trkpt lat="50.53045" lon="3.21301">
        <ele>44.8</ele>
        <time>2021-11-05T13:56:57Z</time>
      </trkpt>
      <trkpt lat="50.53049" lon="3.21328">
        <ele>44.8</ele>
        <time>2021-11-05T13:56:59Z</time>
      </trkpt>
      <trkpt lat="50.53052" lon="3.21353">
        <ele>45</ele>
        <time>2021-11-05T13:57:02Z</time>
      </trkpt>
      <trkpt lat="50.53054" lon="3.21372">
        <ele>45</ele>
        <time>2021-11-05T13:57:04Z</time>
      </trkpt>
      <trkpt lat="50.53054" lon="3.21402">
        <ele>45</ele>
        <time>2021-11-05T13:57:07Z</time>
      </trkpt>
      <trkpt lat="50.53054" lon="3.21433">
        <ele>45.2</ele>
        <time>2021-11-05T13:57:10Z</time>
      </trkpt>
      <trkpt lat="50.5306" lon="3.21463">
        <ele>45.2</ele>
        <time>2021-11-05T13:57:13Z</time>
      </trkpt>
      <trkpt lat="50.53068" lon="3.21503">
        <ele>45.4</ele>
        <time>2021-11-05T13:57:18Z</time>
      </trkpt>
      <trkpt lat="50.53075" lon="3.21544">
        <ele>45.4</ele>
        <time>2021-11-05T13:57:22Z</time>
      </trkpt>
      <trkpt lat="50.53083" lon="3.21584">
        <ele>45.4</ele>
        <time>2021-11-05T13:57:26Z</time>
      </trkpt>
      <trkpt lat="50.53087" lon="3.21601">
        <ele>45.4</ele>
        <time>2021-11-05T13:57:28Z</time>
      </trkpt>
      <trkpt lat="50.53091" lon="3.2162">
        <ele>45.6</ele>
        <time>2021-11-05T13:57:30Z</time>
      </trkpt>
      <trkpt lat="50.53093" lon="3.21663">
        <ele>45.6</ele>
        <time>2021-11-05T13:57:35Z</time>
      </trkpt>
      <trkpt lat="50.53096" lon="3.21705">
        <ele>45.6</ele>
        <time>2021-11-05T13:57:39Z</time>
      </trkpt>
      <trkpt lat="50.53098" lon="3.21747">
        <ele>46</ele>
        <time>2021-11-05T13:57:43Z</time>
      </trkpt>
      <trkpt lat="50.53097" lon="3.21757">
        <ele>46</ele>
        <time>2021-11-05T13:57:44Z</time>
      </trkpt>
      <trkpt lat="50.53095" lon="3.21802">
        <ele>46.2</ele>
        <time>2021-11-05T13:57:49Z</time>
      </trkpt>
      <trkpt lat="50.53092" lon="3.21847">
        <ele>46.4</ele>
        <time>2021-11-05T13:57:54Z</time>
      </trkpt>
      <trkpt lat="50.5309" lon="3.21892">
        <ele>46.4</ele>
        <time>2021-11-05T13:57:58Z</time>
      </trkpt>
      <trkpt lat="50.53088" lon="3.21937">
        <ele>46.4</ele>
        <time>2021-11-05T13:58:03Z</time>
      </trkpt>
      <trkpt lat="50.53086" lon="3.21976">
        <ele>46.6</ele>
        <time>2021-11-05T13:58:07Z</time>
      </trkpt>
      <trkpt lat="50.53084" lon="3.22015">
        <ele>46.6</ele>
        <time>2021-11-05T13:58:11Z</time>
      </trkpt>
      <trkpt lat="50.53083" lon="3.22054">
        <ele>46.6</ele>
        <time>2021-11-05T13:58:15Z</time>
      </trkpt>
      <trkpt lat="50.53083" lon="3.22089">
        <ele>46.8</ele>
        <time>2021-11-05T13:58:18Z</time>
      </trkpt>
      <trkpt lat="50.53083" lon="3.22124">
        <ele>46.8</ele>
        <time>2021-11-05T13:58:22Z</time>
      </trkpt>
      <trkpt lat="50.53083" lon="3.22159">
        <ele>46.8</ele>
        <time>2021-11-05T13:58:25Z</time>
      </trkpt>
      <trkpt lat="50.53082" lon="3.222">
        <ele>46.8</ele>
        <time>2021-11-05T13:58:30Z</time>
      </trkpt>
      <trkpt lat="50.53083" lon="3.22243">
        <ele>47</ele>
        <time>2021-11-05T13:58:34Z</time>
      </trkpt>
      <trkpt lat="50.53088" lon="3.22251">
        <ele>47.2</ele>
        <time>2021-11-05T13:58:35Z</time>
      </trkpt>
      <trkpt lat="50.53087" lon="3.22259">
        <ele>47.2</ele>
        <time>2021-11-05T13:58:36Z</time>
      </trkpt>
      <trkpt lat="50.53084" lon="3.22262">
        <ele>47.4</ele>
        <time>2021-11-05T13:58:37Z</time>
      </trkpt>
      <trkpt lat="50.53085" lon="3.22309">
        <ele>47.4</ele>
        <time>2021-11-05T13:58:41Z</time>
      </trkpt>
      <trkpt lat="50.53087" lon="3.22356">
        <ele>47.6</ele>
        <time>2021-11-05T13:58:46Z</time>
      </trkpt>
      <trkpt lat="50.53088" lon="3.22403">
        <ele>47.6</ele>
        <time>2021-11-05T13:58:51Z</time>
      </trkpt>
      <trkpt lat="50.53092" lon="3.22428">
        <ele>47.6</ele>
        <time>2021-11-05T13:58:54Z</time>
      </trkpt>
      <trkpt lat="50.53097" lon="3.22462">
        <ele>47.6</ele>
        <time>2021-11-05T13:58:57Z</time>
      </trkpt>
      <trkpt lat="50.53103" lon="3.22496">
        <ele>47.4</ele>
        <time>2021-11-05T13:59:01Z</time>
      </trkpt>
      <trkpt lat="50.53108" lon="3.22538">
        <ele>47.2</ele>
        <time>2021-11-05T13:59:05Z</time>
      </trkpt>
      <trkpt lat="50.53114" lon="3.2258">
        <ele>47.2</ele>
        <time>2021-11-05T13:59:09Z</time>
      </trkpt>
      <trkpt lat="50.5312" lon="3.22621">
        <ele>47</ele>
        <time>2021-11-05T13:59:14Z</time>
      </trkpt>
      <trkpt lat="50.53125" lon="3.22641">
        <ele>46.8</ele>
        <time>2021-11-05T13:59:16Z</time>
      </trkpt>
      <trkpt lat="50.53139" lon="3.22658">
        <ele>46.6</ele>
        <time>2021-11-05T13:59:19Z</time>
      </trkpt>
      <trkpt lat="50.53152" lon="3.22676">
        <ele>46.4</ele>
        <time>2021-11-05T13:59:22Z</time>
      </trkpt>
      <trkpt lat="50.53158" lon="3.2271">
        <ele>46.4</ele>
        <time>2021-11-05T13:59:25Z</time>
      </trkpt>
      <trkpt lat="50.53165" lon="3.22743">
        <ele>46.2</ele>
        <time>2021-11-05T13:59:29Z</time>
      </trkpt>
      <trkpt lat="50.53168" lon="3.22761">
        <ele>46</ele>
        <time>2021-11-05T13:59:31Z</time>
      </trkpt>
      <trkpt lat="50.53172" lon="3.22808">
        <ele>45.8</ele>
        <time>2021-11-05T13:59:36Z</time>
      </trkpt>
      <trkpt lat="50.53172" lon="3.22837">
        <ele>45.6</ele>
        <time>2021-11-05T13:59:38Z</time>
      </trkpt>
      <trkpt lat="50.53171" lon="3.22865">
        <ele>45.2</ele>
        <time>2021-11-05T13:59:41Z</time>
      </trkpt>
      <trkpt lat="50.53148" lon="3.22873">
        <ele>45</ele>
        <time>2021-11-05T13:59:45Z</time>
      </trkpt>
      <trkpt lat="50.53139" lon="3.22889">
        <ele>44.8</ele>
        <time>2021-11-05T13:59:47Z</time>
      </trkpt>
      <trkpt lat="50.53132" lon="3.22929">
        <ele>44.6</ele>
        <time>2021-11-05T13:59:52Z</time>
      </trkpt>
      <trkpt lat="50.53124" lon="3.22969">
        <ele>44.6</ele>
        <time>2021-11-05T13:59:56Z</time>
      </trkpt>
      <trkpt lat="50.53124" lon="3.22985">
        <ele>44.6</ele>
        <time>2021-11-05T13:59:58Z</time>
      </trkpt>
      <trkpt lat="50.53124" lon="3.23029">
        <ele>44.6</ele>
        <time>2021-11-05T14:00:02Z</time>
      </trkpt>
      <trkpt lat="50.53123" lon="3.23073">
        <ele>44.6</ele>
        <time>2021-11-05T14:00:07Z</time>
      </trkpt>
      <trkpt lat="50.53123" lon="3.23118">
        <ele>44.6</ele>
        <time>2021-11-05T14:00:11Z</time>
      </trkpt>
      <trkpt lat="50.53122" lon="3.23162">
        <ele>44.6</ele>
        <time>2021-11-05T14:00:15Z</time>
      </trkpt>
      <trkpt lat="50.53122" lon="3.23205">
        <ele>44.8</ele>
        <time>2021-11-05T14:00:20Z</time>
      </trkpt>
      <trkpt lat="50.53112" lon="3.2325">
        <ele>44.8</ele>
        <time>2021-11-05T14:00:25Z</time>
      </trkpt>
      <trkpt lat="50.53103" lon="3.23281">
        <ele>45</ele>
        <time>2021-11-05T14:00:28Z</time>
      </trkpt>
      <trkpt lat="50.53098" lon="3.23318">
        <ele>45</ele>
        <time>2021-11-05T14:00:32Z</time>
      </trkpt>
      <trkpt lat="50.53093" lon="3.23354">
        <ele>45.2</ele>
        <time>2021-11-05T14:00:36Z</time>
      </trkpt>
      <trkpt lat="50.53088" lon="3.2339">
        <ele>45.2</ele>
        <time>2021-11-05T14:00:40Z</time>
      </trkpt>
      <trkpt lat="50.5309" lon="3.23438">
        <ele>45.4</ele>
        <time>2021-11-05T14:00:45Z</time>
      </trkpt>
      <trkpt lat="50.53092" lon="3.23487">
        <ele>45.6</ele>
        <time>2021-11-05T14:00:50Z</time>
      </trkpt>
      <trkpt lat="50.53094" lon="3.23536">
        <ele>45.6</ele>
        <time>2021-11-05T14:00:55Z</time>
      </trkpt>
      <trkpt lat="50.53097" lon="3.23563">
        <ele>45.8</ele>
        <time>2021-11-05T14:00:58Z</time>
      </trkpt>
      <trkpt lat="50.53105" lon="3.23586">
        <ele>45.8</ele>
        <time>2021-11-05T14:01:00Z</time>
      </trkpt>
      <trkpt lat="50.53113" lon="3.23607">
        <ele>46</ele>
        <time>2021-11-05T14:01:03Z</time>
      </trkpt>
      <trkpt lat="50.53121" lon="3.23629">
        <ele>46</ele>
        <time>2021-11-05T14:01:05Z</time>
      </trkpt>
      <trkpt lat="50.53129" lon="3.23657">
        <ele>46</ele>
        <time>2021-11-05T14:01:08Z</time>
      </trkpt>
      <trkpt lat="50.53137" lon="3.23686">
        <ele>46</ele>
        <time>2021-11-05T14:01:12Z</time>
      </trkpt>
      <trkpt lat="50.53142" lon="3.23714">
        <ele>45.8</ele>
        <time>2021-11-05T14:01:15Z</time>
      </trkpt>
      <trkpt lat="50.53142" lon="3.23729">
        <ele>45.8</ele>
        <time>2021-11-05T14:01:16Z</time>
      </trkpt>
      <trkpt lat="50.53139" lon="3.23739">
        <ele>46.2</ele>
        <time>2021-11-05T14:01:17Z</time>
      </trkpt>
      <trkpt lat="50.53118" lon="3.23762">
        <ele>46.4</ele>
        <time>2021-11-05T14:01:21Z</time>
      </trkpt>
      <trkpt lat="50.5311" lon="3.23773">
        <ele>46.6</ele>
        <time>2021-11-05T14:01:23Z</time>
      </trkpt>
      <trkpt lat="50.53103" lon="3.23799">
        <ele>47</ele>
        <time>2021-11-05T14:01:26Z</time>
      </trkpt>
      <trkpt lat="50.53096" lon="3.23825">
        <ele>47.2</ele>
        <time>2021-11-05T14:01:29Z</time>
      </trkpt>
      <trkpt lat="50.53091" lon="3.2386">
        <ele>47.4</ele>
        <time>2021-11-05T14:01:32Z</time>
      </trkpt>
      <trkpt lat="50.53085" lon="3.23895">
        <ele>47.6</ele>
        <time>2021-11-05T14:01:36Z</time>
      </trkpt>
      <trkpt lat="50.53079" lon="3.23923">
        <ele>48</ele>
        <time>2021-11-05T14:01:39Z</time>
      </trkpt>
      <trkpt lat="50.53073" lon="3.23952">
        <ele>48.2</ele>
        <time>2021-11-05T14:01:42Z</time>
      </trkpt>
      <trkpt lat="50.53064" lon="3.23981">
        <ele>48.8</ele>
        <time>2021-11-05T14:01:46Z</time>
      </trkpt>
      <trkpt lat="50.53051" lon="3.24015">
        <ele>49.2</ele>
        <time>2021-11-05T14:01:50Z</time>
      </trkpt>
      <trkpt lat="50.53033" lon="3.24042">
        <ele>49.6</ele>
        <time>2021-11-05T14:01:54Z</time>
      </trkpt>
      <trkpt lat="50.53015" lon="3.24069">
        <ele>49.8</ele>
        <time>2021-11-05T14:01:58Z</time>
      </trkpt>
      <trkpt lat="50.52998" lon="3.24088">
        <ele>50.4</ele>
        <time>2021-11-05T14:02:01Z</time>
      </trkpt>
      <trkpt lat="50.52981" lon="3.24107">
        <ele>50.6</ele>
        <time>2021-11-05T14:02:04Z</time>
      </trkpt>
      <trkpt lat="50.52961" lon="3.24129">
        <ele>51</ele>
        <time>2021-11-05T14:02:08Z</time>
      </trkpt>
      <trkpt lat="50.5294" lon="3.2415">
        <ele>51.2</ele>
        <time>2021-11-05T14:02:12Z</time>
      </trkpt>
      <trkpt lat="50.52919" lon="3.24171">
        <ele>51.6</ele>
        <time>2021-11-05T14:02:16Z</time>
      </trkpt>
      <trkpt lat="50.52915" lon="3.24179">
        <ele>51.8</ele>
        <time>2021-11-05T14:02:17Z</time>
      </trkpt>
      <trkpt lat="50.52904" lon="3.24196">
        <ele>52</ele>
        <time>2021-11-05T14:02:20Z</time>
      </trkpt>
      <trkpt lat="50.52897" lon="3.24218">
        <ele>52.2</ele>
        <time>2021-11-05T14:02:22Z</time>
      </trkpt>
      <trkpt lat="50.52889" lon="3.2424">
        <ele>52.2</ele>
        <time>2021-11-05T14:02:25Z</time>
      </trkpt>
      <trkpt lat="50.52879" lon="3.24274">
        <ele>52.4</ele>
        <time>2021-11-05T14:02:29Z</time>
      </trkpt>
      <trkpt lat="50.52875" lon="3.24298">
        <ele>52.4</ele>
        <time>2021-11-05T14:02:31Z</time>
      </trkpt>
      <trkpt lat="50.52874" lon="3.24316">
        <ele>51.8</ele>
        <time>2021-11-05T14:02:33Z</time>
      </trkpt>
      <trkpt lat="50.52874" lon="3.24322">
        <ele>51.8</ele>
        <time>2021-11-05T14:02:34Z</time>
      </trkpt>
      <trkpt lat="50.52878" lon="3.24345">
        <ele>51.6</ele>
        <time>2021-11-05T14:02:36Z</time>
      </trkpt>
      <trkpt lat="50.5289" lon="3.24369">
        <ele>51.4</ele>
        <time>2021-11-05T14:02:39Z</time>
      </trkpt>
      <trkpt lat="50.52911" lon="3.24398">
        <ele>51.2</ele>
        <time>2021-11-05T14:02:44Z</time>
      </trkpt>
      <trkpt lat="50.52931" lon="3.24426">
        <ele>51</ele>
        <time>2021-11-05T14:02:48Z</time>
      </trkpt>
      <trkpt lat="50.52937" lon="3.24437">
        <ele>51</ele>
        <time>2021-11-05T14:02:49Z</time>
      </trkpt>
      <trkpt lat="50.52941" lon="3.24474">
        <ele>50.8</ele>
        <time>2021-11-05T14:02:53Z</time>
      </trkpt>
      <trkpt lat="50.52944" lon="3.2451">
        <ele>50.8</ele>
        <time>2021-11-05T14:02:57Z</time>
      </trkpt>
      <trkpt lat="50.52947" lon="3.24547">
        <ele>50.6</ele>
        <time>2021-11-05T14:03:01Z</time>
      </trkpt>
      <trkpt lat="50.5295" lon="3.24584">
        <ele>50.6</ele>
        <time>2021-11-05T14:03:05Z</time>
      </trkpt>
      <trkpt lat="50.52955" lon="3.24629">
        <ele>50.8</ele>
        <time>2021-11-05T14:03:09Z</time>
      </trkpt>
      <trkpt lat="50.52952" lon="3.24652">
        <ele>50.8</ele>
        <time>2021-11-05T14:03:12Z</time>
      </trkpt>
      <trkpt lat="50.52941" lon="3.24697">
        <ele>51</ele>
        <time>2021-11-05T14:03:16Z</time>
      </trkpt>
      <trkpt lat="50.5293" lon="3.24741">
        <ele>51</ele>
        <time>2021-11-05T14:03:21Z</time>
      </trkpt>
      <trkpt lat="50.5292" lon="3.24766">
        <ele>51.2</ele>
        <time>2021-11-05T14:03:24Z</time>
      </trkpt>
      <trkpt lat="50.52914" lon="3.24814">
        <ele>51.4</ele>
        <time>2021-11-05T14:03:29Z</time>
      </trkpt>
      <trkpt lat="50.52907" lon="3.24861">
        <ele>51.6</ele>
        <time>2021-11-05T14:03:34Z</time>
      </trkpt>
      <trkpt lat="50.52901" lon="3.24909">
        <ele>51.8</ele>
        <time>2021-11-05T14:03:39Z</time>
      </trkpt>
      <trkpt lat="50.52894" lon="3.24956">
        <ele>51.8</ele>
        <time>2021-11-05T14:03:44Z</time>
      </trkpt>
      <trkpt lat="50.52887" lon="3.25004">
        <ele>52</ele>
        <time>2021-11-05T14:03:49Z</time>
      </trkpt>
      <trkpt lat="50.52881" lon="3.25051">
        <ele>52.2</ele>
        <time>2021-11-05T14:03:54Z</time>
      </trkpt>
      <trkpt lat="50.52874" lon="3.25099">
        <ele>52.2</ele>
        <time>2021-11-05T14:03:59Z</time>
      </trkpt>
      <trkpt lat="50.52868" lon="3.25147">
        <ele>52.4</ele>
        <time>2021-11-05T14:04:04Z</time>
      </trkpt>
      <trkpt lat="50.52861" lon="3.25194">
        <ele>52.4</ele>
        <time>2021-11-05T14:04:09Z</time>
      </trkpt>
      <trkpt lat="50.52855" lon="3.2524">
        <ele>52.6</ele>
        <time>2021-11-05T14:04:14Z</time>
      </trkpt>
      <trkpt lat="50.52859" lon="3.25242">
        <ele>53.4</ele>
        <time>2021-11-05T14:04:15Z</time>
      </trkpt>
      <trkpt lat="50.5288" lon="3.25247">
        <ele>53.6</ele>
        <time>2021-11-05T14:04:18Z</time>
      </trkpt>
      <trkpt lat="50.52901" lon="3.25252">
        <ele>53.8</ele>
        <time>2021-11-05T14:04:21Z</time>
      </trkpt>
      <trkpt lat="50.52922" lon="3.25258">
        <ele>54</ele>
        <time>2021-11-05T14:04:25Z</time>
      </trkpt>
      <trkpt lat="50.52953" lon="3.25266">
        <ele>54.2</ele>
        <time>2021-11-05T14:04:30Z</time>
      </trkpt>
      <trkpt lat="50.52984" lon="3.25275">
        <ele>54.2</ele>
        <time>2021-11-05T14:04:35Z</time>
      </trkpt>
      <trkpt lat="50.53015" lon="3.25283">
        <ele>54.4</ele>
        <time>2021-11-05T14:04:40Z</time>
      </trkpt>
      <trkpt lat="50.53043" lon="3.25302">
        <ele>54.6</ele>
        <time>2021-11-05T14:04:45Z</time>
      </trkpt>
      <trkpt lat="50.5307" lon="3.25321">
        <ele>54.8</ele>
        <time>2021-11-05T14:04:50Z</time>
      </trkpt>
      <trkpt lat="50.53094" lon="3.25323">
        <ele>55</ele>
        <time>2021-11-05T14:04:53Z</time>
      </trkpt>
      <trkpt lat="50.53118" lon="3.25321">
        <ele>55.2</ele>
        <time>2021-11-05T14:04:57Z</time>
      </trkpt>
      <trkpt lat="50.53141" lon="3.25319">
        <ele>55.2</ele>
        <time>2021-11-05T14:05:01Z</time>
      </trkpt>
      <trkpt lat="50.53163" lon="3.2531">
        <ele>55.2</ele>
        <time>2021-11-05T14:05:05Z</time>
      </trkpt>
      <trkpt lat="50.53185" lon="3.253">
        <ele>55.2</ele>
        <time>2021-11-05T14:05:08Z</time>
      </trkpt>
      <trkpt lat="50.53201" lon="3.25298">
        <ele>55.2</ele>
        <time>2021-11-05T14:05:11Z</time>
      </trkpt>
      <trkpt lat="50.53228" lon="3.25304">
        <ele>55.2</ele>
        <time>2021-11-05T14:05:15Z</time>
      </trkpt>
      <trkpt lat="50.53244" lon="3.2532">
        <ele>55</ele>
        <time>2021-11-05T14:05:18Z</time>
      </trkpt>
      <trkpt lat="50.53259" lon="3.25337">
        <ele>55</ele>
        <time>2021-11-05T14:05:21Z</time>
      </trkpt>
      <trkpt lat="50.53276" lon="3.25359">
        <ele>54.8</ele>
        <time>2021-11-05T14:05:25Z</time>
      </trkpt>
      <trkpt lat="50.53292" lon="3.25382">
        <ele>54.6</ele>
        <time>2021-11-05T14:05:28Z</time>
      </trkpt>
      <trkpt lat="50.53309" lon="3.25405">
        <ele>54.4</ele>
        <time>2021-11-05T14:05:32Z</time>
      </trkpt>
      <trkpt lat="50.53321" lon="3.25424">
        <ele>54.2</ele>
        <time>2021-11-05T14:05:34Z</time>
      </trkpt>
      <trkpt lat="50.53333" lon="3.25443">
        <ele>54</ele>
        <time>2021-11-05T14:05:37Z</time>
      </trkpt>
      <trkpt lat="50.53348" lon="3.25477">
        <ele>53.8</ele>
        <time>2021-11-05T14:05:42Z</time>
      </trkpt>
      <trkpt lat="50.53358" lon="3.25517">
        <ele>53.6</ele>
        <time>2021-11-05T14:05:46Z</time>
      </trkpt>
      <trkpt lat="50.53368" lon="3.25556">
        <ele>53.4</ele>
        <time>2021-11-05T14:05:50Z</time>
      </trkpt>
      <trkpt lat="50.53377" lon="3.25595">
        <ele>53.2</ele>
        <time>2021-11-05T14:05:54Z</time>
      </trkpt>
      <trkpt lat="50.53391" lon="3.25633">
        <ele>53</ele>
        <time>2021-11-05T14:05:59Z</time>
      </trkpt>
      <trkpt lat="50.53405" lon="3.25671">
        <ele>53</ele>
        <time>2021-11-05T14:06:03Z</time>
      </trkpt>
      <trkpt lat="50.53419" lon="3.25708">
        <ele>53</ele>
        <time>2021-11-05T14:06:08Z</time>
      </trkpt>
      <trkpt lat="50.53433" lon="3.25746">
        <ele>52.8</ele>
        <time>2021-11-05T14:06:12Z</time>
      </trkpt>
      <trkpt lat="50.53447" lon="3.25784">
        <ele>52.8</ele>
        <time>2021-11-05T14:06:17Z</time>
      </trkpt>
      <trkpt lat="50.53461" lon="3.25821">
        <ele>52.8</ele>
        <time>2021-11-05T14:06:21Z</time>
      </trkpt>
      <trkpt lat="50.53471" lon="3.25846">
        <ele>52.8</ele>
        <time>2021-11-05T14:06:24Z</time>
      </trkpt>
      <trkpt lat="50.53481" lon="3.2587">
        <ele>52.8</ele>
        <time>2021-11-05T14:06:27Z</time>
      </trkpt>
      <trkpt lat="50.53505" lon="3.25885">
        <ele>53</ele>
        <time>2021-11-05T14:06:31Z</time>
      </trkpt>
      <trkpt lat="50.53523" lon="3.25885">
        <ele>53.4</ele>
        <time>2021-11-05T14:06:34Z</time>
      </trkpt>
      <trkpt lat="50.53551" lon="3.25883">
        <ele>53.8</ele>
        <time>2021-11-05T14:06:39Z</time>
      </trkpt>
      <trkpt lat="50.53576" lon="3.25875">
        <ele>54</ele>
        <time>2021-11-05T14:06:43Z</time>
      </trkpt>
      <trkpt lat="50.53602" lon="3.25867">
        <ele>54.2</ele>
        <time>2021-11-05T14:06:47Z</time>
      </trkpt>
      <trkpt lat="50.53627" lon="3.25858">
        <ele>54.4</ele>
        <time>2021-11-05T14:06:51Z</time>
      </trkpt>
      <trkpt lat="50.53635" lon="3.25859">
        <ele>54.6</ele>
        <time>2021-11-05T14:06:52Z</time>
      </trkpt>
      <trkpt lat="50.53641" lon="3.25863">
        <ele>55</ele>
        <time>2021-11-05T14:06:53Z</time>
      </trkpt>
      <trkpt lat="50.5365" lon="3.25873">
        <ele>55.4</ele>
        <time>2021-11-05T14:06:55Z</time>
      </trkpt>
      <trkpt lat="50.53652" lon="3.25908">
        <ele>55.6</ele>
        <time>2021-11-05T14:06:59Z</time>
      </trkpt>
      <trkpt lat="50.53655" lon="3.25942">
        <ele>55.8</ele>
        <time>2021-11-05T14:07:02Z</time>
      </trkpt>
      <trkpt lat="50.53664" lon="3.2598">
        <ele>56</ele>
        <time>2021-11-05T14:07:06Z</time>
      </trkpt>
      <trkpt lat="50.53681" lon="3.26016">
        <ele>56.2</ele>
        <time>2021-11-05T14:07:11Z</time>
      </trkpt>
      <trkpt lat="50.53699" lon="3.26053">
        <ele>56.4</ele>
        <time>2021-11-05T14:07:16Z</time>
      </trkpt>
      <trkpt lat="50.53716" lon="3.2609">
        <ele>56.4</ele>
        <time>2021-11-05T14:07:20Z</time>
      </trkpt>
      <trkpt lat="50.53733" lon="3.26127">
        <ele>56.4</ele>
        <time>2021-11-05T14:07:25Z</time>
      </trkpt>
      <trkpt lat="50.53747" lon="3.26158">
        <ele>56.2</ele>
        <time>2021-11-05T14:07:29Z</time>
      </trkpt>
      <trkpt lat="50.5376" lon="3.26189">
        <ele>56.2</ele>
        <time>2021-11-05T14:07:33Z</time>
      </trkpt>
      <trkpt lat="50.53774" lon="3.2622">
        <ele>56.2</ele>
        <time>2021-11-05T14:07:36Z</time>
      </trkpt>
      <trkpt lat="50.53787" lon="3.26251">
        <ele>56</ele>
        <time>2021-11-05T14:07:40Z</time>
      </trkpt>
      <trkpt lat="50.53805" lon="3.26289">
        <ele>55.6</ele>
        <time>2021-11-05T14:07:45Z</time>
      </trkpt>
      <trkpt lat="50.53823" lon="3.26327">
        <ele>55.4</ele>
        <time>2021-11-05T14:07:50Z</time>
      </trkpt>
      <trkpt lat="50.53833" lon="3.26358">
        <ele>55</ele>
        <time>2021-11-05T14:07:53Z</time>
      </trkpt>
      <trkpt lat="50.53838" lon="3.26398">
        <ele>54.6</ele>
        <time>2021-11-05T14:07:58Z</time>
      </trkpt>
      <trkpt lat="50.53843" lon="3.26437">
        <ele>54.2</ele>
        <time>2021-11-05T14:08:02Z</time>
      </trkpt>
      <trkpt lat="50.53847" lon="3.26474">
        <ele>53.8</ele>
        <time>2021-11-05T14:08:05Z</time>
      </trkpt>
      <trkpt lat="50.53851" lon="3.26512">
        <ele>53.6</ele>
        <time>2021-11-05T14:08:09Z</time>
      </trkpt>
      <trkpt lat="50.53855" lon="3.26528">
        <ele>51.8</ele>
        <time>2021-11-05T14:08:12Z</time>
      </trkpt>
      <trkpt lat="50.5385" lon="3.26533">
        <ele>51.4</ele>
        <time>2021-11-05T14:08:13Z</time>
      </trkpt>
      <trkpt lat="50.53854" lon="3.26568">
        <ele>51.2</ele>
        <time>2021-11-05T14:08:17Z</time>
      </trkpt>
      <trkpt lat="50.53857" lon="3.26602">
        <ele>51</ele>
        <time>2021-11-05T14:08:20Z</time>
      </trkpt>
      <trkpt lat="50.53857" lon="3.26644">
        <ele>50.6</ele>
        <time>2021-11-05T14:08:25Z</time>
      </trkpt>
      <trkpt lat="50.53858" lon="3.26686">
        <ele>50.4</ele>
        <time>2021-11-05T14:08:29Z</time>
      </trkpt>
      <trkpt lat="50.53858" lon="3.26728">
        <ele>50.2</ele>
        <time>2021-11-05T14:08:33Z</time>
      </trkpt>
      <trkpt lat="50.53871" lon="3.26756">
        <ele>49.8</ele>
        <time>2021-11-05T14:08:37Z</time>
      </trkpt>
      <trkpt lat="50.53885" lon="3.26783">
        <ele>49.8</ele>
        <time>2021-11-05T14:08:40Z</time>
      </trkpt>
      <trkpt lat="50.539" lon="3.26807">
        <ele>49.4</ele>
        <time>2021-11-05T14:08:44Z</time>
      </trkpt>
      <trkpt lat="50.53915" lon="3.26831">
        <ele>49.4</ele>
        <time>2021-11-05T14:08:47Z</time>
      </trkpt>
      <trkpt lat="50.53936" lon="3.26856">
        <ele>49.2</ele>
        <time>2021-11-05T14:08:52Z</time>
      </trkpt>
      <trkpt lat="50.53958" lon="3.2688">
        <ele>49.2</ele>
        <time>2021-11-05T14:08:56Z</time>
      </trkpt>
      <trkpt lat="50.53979" lon="3.26905">
        <ele>49.2</ele>
        <time>2021-11-05T14:09:00Z</time>
      </trkpt>
      <trkpt lat="50.54001" lon="3.26929">
        <ele>49.2</ele>
        <time>2021-11-05T14:09:04Z</time>
      </trkpt>
      <trkpt lat="50.54013" lon="3.26936">
        <ele>49.2</ele>
        <time>2021-11-05T14:09:06Z</time>
      </trkpt>
      <trkpt lat="50.54045" lon="3.26942">
        <ele>49.2</ele>
        <time>2021-11-05T14:09:11Z</time>
      </trkpt>
      <trkpt lat="50.54076" lon="3.26947">
        <ele>49.2</ele>
        <time>2021-11-05T14:09:16Z</time>
      </trkpt>
      <trkpt lat="50.54107" lon="3.26953">
        <ele>49.2</ele>
        <time>2021-11-05T14:09:21Z</time>
      </trkpt>
      <trkpt lat="50.54138" lon="3.26959">
        <ele>49.2</ele>
        <time>2021-11-05T14:09:27Z</time>
      </trkpt>
      <trkpt lat="50.54169" lon="3.26965">
        <ele>49.4</ele>
        <time>2021-11-05T14:09:32Z</time>
      </trkpt>
      <trkpt lat="50.542" lon="3.26971">
        <ele>49.6</ele>
        <time>2021-11-05T14:09:37Z</time>
      </trkpt>
      <trkpt lat="50.54231" lon="3.26977">
        <ele>49.8</ele>
        <time>2021-11-05T14:09:42Z</time>
      </trkpt>
      <trkpt lat="50.54253" lon="3.26971">
        <ele>50.2</ele>
        <time>2021-11-05T14:09:45Z</time>
      </trkpt>
      <trkpt lat="50.54275" lon="3.26957">
        <ele>50.8</ele>
        <time>2021-11-05T14:09:49Z</time>
      </trkpt>
      <trkpt lat="50.54298" lon="3.26943">
        <ele>51.2</ele>
        <time>2021-11-05T14:09:53Z</time>
      </trkpt>
      <trkpt lat="50.5432" lon="3.26929">
        <ele>51.4</ele>
        <time>2021-11-05T14:09:57Z</time>
      </trkpt>
      <trkpt lat="50.54347" lon="3.26912">
        <ele>52.2</ele>
        <time>2021-11-05T14:10:01Z</time>
      </trkpt>
      <trkpt lat="50.54374" lon="3.26894">
        <ele>52.8</ele>
        <time>2021-11-05T14:10:06Z</time>
      </trkpt>
      <trkpt lat="50.54401" lon="3.26877">
        <ele>53.2</ele>
        <time>2021-11-05T14:10:11Z</time>
      </trkpt>
      <trkpt lat="50.54416" lon="3.26847">
        <ele>54</ele>
        <time>2021-11-05T14:10:14Z</time>
      </trkpt>
      <trkpt lat="50.5443" lon="3.26817">
        <ele>54.4</ele>
        <time>2021-11-05T14:10:18Z</time>
      </trkpt>
      <trkpt lat="50.54445" lon="3.26788">
        <ele>54.8</ele>
        <time>2021-11-05T14:10:22Z</time>
      </trkpt>
      <trkpt lat="50.5446" lon="3.26759">
        <ele>55.2</ele>
        <time>2021-11-05T14:10:26Z</time>
      </trkpt>
      <trkpt lat="50.54471" lon="3.26729">
        <ele>56</ele>
        <time>2021-11-05T14:10:29Z</time>
      </trkpt>
      <trkpt lat="50.54483" lon="3.267">
        <ele>56.4</ele>
        <time>2021-11-05T14:10:33Z</time>
      </trkpt>
      <trkpt lat="50.54494" lon="3.26672">
        <ele>56.6</ele>
        <time>2021-11-05T14:10:36Z</time>
      </trkpt>
      <trkpt lat="50.54511" lon="3.26642">
        <ele>57.8</ele>
        <time>2021-11-05T14:10:41Z</time>
      </trkpt>
      <trkpt lat="50.54522" lon="3.26627">
        <ele>59.2</ele>
        <time>2021-11-05T14:10:43Z</time>
      </trkpt>
      <trkpt lat="50.54532" lon="3.26615">
        <ele>59.2</ele>
        <time>2021-11-05T14:10:45Z</time>
      </trkpt>
      <trkpt lat="50.54537" lon="3.26657">
        <ele>59.2</ele>
        <time>2021-11-05T14:10:49Z</time>
      </trkpt>
      <trkpt lat="50.54542" lon="3.26699">
        <ele>59.2</ele>
        <time>2021-11-05T14:10:53Z</time>
      </trkpt>
      <trkpt lat="50.54547" lon="3.26741">
        <ele>59.2</ele>
        <time>2021-11-05T14:10:58Z</time>
      </trkpt>
      <trkpt lat="50.54552" lon="3.26782">
        <ele>59.2</ele>
        <time>2021-11-05T14:11:02Z</time>
      </trkpt>
      <trkpt lat="50.54559" lon="3.2683">
        <ele>59.2</ele>
        <time>2021-11-05T14:11:07Z</time>
      </trkpt>
      <trkpt lat="50.54565" lon="3.26877">
        <ele>59.2</ele>
        <time>2021-11-05T14:11:12Z</time>
      </trkpt>
      <trkpt lat="50.54572" lon="3.26925">
        <ele>59.2</ele>
        <time>2021-11-05T14:11:17Z</time>
      </trkpt>
      <trkpt lat="50.54579" lon="3.26972">
        <ele>59.2</ele>
        <time>2021-11-05T14:11:22Z</time>
      </trkpt>
      <trkpt lat="50.54585" lon="3.27019">
        <ele>59.2</ele>
        <time>2021-11-05T14:11:27Z</time>
      </trkpt>
      <trkpt lat="50.54591" lon="3.27052">
        <ele>59</ele>
        <time>2021-11-05T14:11:30Z</time>
      </trkpt>
      <trkpt lat="50.54596" lon="3.27085">
        <ele>59</ele>
        <time>2021-11-05T14:11:34Z</time>
      </trkpt>
      <trkpt lat="50.54601" lon="3.27118">
        <ele>58.8</ele>
        <time>2021-11-05T14:11:37Z</time>
      </trkpt>
      <trkpt lat="50.54609" lon="3.27163">
        <ele>58.6</ele>
        <time>2021-11-05T14:11:42Z</time>
      </trkpt>
      <trkpt lat="50.54616" lon="3.27183">
        <ele>58.6</ele>
        <time>2021-11-05T14:11:45Z</time>
      </trkpt>
      <trkpt lat="50.54627" lon="3.27204">
        <ele>58.4</ele>
        <time>2021-11-05T14:11:47Z</time>
      </trkpt>
      <trkpt lat="50.54633" lon="3.27222">
        <ele>58.2</ele>
        <time>2021-11-05T14:11:49Z</time>
      </trkpt>
      <trkpt lat="50.54642" lon="3.2726">
        <ele>58.2</ele>
        <time>2021-11-05T14:11:53Z</time>
      </trkpt>
      <trkpt lat="50.54651" lon="3.27297">
        <ele>58</ele>
        <time>2021-11-05T14:11:57Z</time>
      </trkpt>
      <trkpt lat="50.54646" lon="3.27316">
        <ele>57.8</ele>
        <time>2021-11-05T14:12:00Z</time>
      </trkpt>
      <trkpt lat="50.54634" lon="3.2734">
        <ele>57.6</ele>
        <time>2021-11-05T14:12:03Z</time>
      </trkpt>
      <trkpt lat="50.54615" lon="3.27368">
        <ele>57.2</ele>
        <time>2021-11-05T14:12:07Z</time>
      </trkpt>
      <trkpt lat="50.54593" lon="3.27387">
        <ele>57</ele>
        <time>2021-11-05T14:12:11Z</time>
      </trkpt>
      <trkpt lat="50.54571" lon="3.27407">
        <ele>56.8</ele>
        <time>2021-11-05T14:12:15Z</time>
      </trkpt>
      <trkpt lat="50.54571" lon="3.2742">
        <ele>56.6</ele>
        <time>2021-11-05T14:12:16Z</time>
      </trkpt>
      <trkpt lat="50.54575" lon="3.27433">
        <ele>56.4</ele>
        <time>2021-11-05T14:12:18Z</time>
      </trkpt>
      <trkpt lat="50.54586" lon="3.27472">
        <ele>56.4</ele>
        <time>2021-11-05T14:12:22Z</time>
      </trkpt>
      <trkpt lat="50.54598" lon="3.27511">
        <ele>56.2</ele>
        <time>2021-11-05T14:12:26Z</time>
      </trkpt>
      <trkpt lat="50.54609" lon="3.27549">
        <ele>56.4</ele>
        <time>2021-11-05T14:12:31Z</time>
      </trkpt>
      <trkpt lat="50.54618" lon="3.2759">
        <ele>56.2</ele>
        <time>2021-11-05T14:12:35Z</time>
      </trkpt>
      <trkpt lat="50.54627" lon="3.2763">
        <ele>56.2</ele>
        <time>2021-11-05T14:12:39Z</time>
      </trkpt>
      <trkpt lat="50.54629" lon="3.27652">
        <ele>56.2</ele>
        <time>2021-11-05T14:12:42Z</time>
      </trkpt>
      <trkpt lat="50.54632" lon="3.27695">
        <ele>56.4</ele>
        <time>2021-11-05T14:12:46Z</time>
      </trkpt>
      <trkpt lat="50.54635" lon="3.27738">
        <ele>56.4</ele>
        <time>2021-11-05T14:12:51Z</time>
      </trkpt>
      <trkpt lat="50.5464" lon="3.27774">
        <ele>56.6</ele>
        <time>2021-11-05T14:12:54Z</time>
      </trkpt>
      <trkpt lat="50.54645" lon="3.2781">
        <ele>56.6</ele>
        <time>2021-11-05T14:12:58Z</time>
      </trkpt>
      <trkpt lat="50.54651" lon="3.27836">
        <ele>56.6</ele>
        <time>2021-11-05T14:13:01Z</time>
      </trkpt>
      <trkpt lat="50.54656" lon="3.27862">
        <ele>56.8</ele>
        <time>2021-11-05T14:13:04Z</time>
      </trkpt>
      <trkpt lat="50.54675" lon="3.27899">
        <ele>56.8</ele>
        <time>2021-11-05T14:13:09Z</time>
      </trkpt>
      <trkpt lat="50.54695" lon="3.27934">
        <ele>57</ele>
        <time>2021-11-05T14:13:13Z</time>
      </trkpt>
      <trkpt lat="50.54696" lon="3.27934">
        <ele>57.2</ele>
        <time>2021-11-05T14:13:14Z</time>
      </trkpt>
      <trkpt lat="50.54714" lon="3.2797">
        <ele>57.2</ele>
        <time>2021-11-05T14:13:18Z</time>
      </trkpt>
      <trkpt lat="50.54721" lon="3.27994">
        <ele>57.4</ele>
        <time>2021-11-05T14:13:21Z</time>
      </trkpt>
      <trkpt lat="50.54723" lon="3.28034">
        <ele>57.4</ele>
        <time>2021-11-05T14:13:25Z</time>
      </trkpt>
      <trkpt lat="50.54726" lon="3.28074">
        <ele>57.4</ele>
        <time>2021-11-05T14:13:29Z</time>
      </trkpt>
      <trkpt lat="50.54729" lon="3.28113">
        <ele>57.6</ele>
        <time>2021-11-05T14:13:33Z</time>
      </trkpt>
      <trkpt lat="50.54732" lon="3.28152">
        <ele>57.6</ele>
        <time>2021-11-05T14:13:37Z</time>
      </trkpt>
      <trkpt lat="50.54741" lon="3.28198">
        <ele>57.6</ele>
        <time>2021-11-05T14:13:42Z</time>
      </trkpt>
      <trkpt lat="50.54749" lon="3.28244">
        <ele>57.6</ele>
        <time>2021-11-05T14:13:47Z</time>
      </trkpt>
      <trkpt lat="50.54759" lon="3.28291">
        <ele>57.6</ele>
        <time>2021-11-05T14:13:52Z</time>
      </trkpt>
      <trkpt lat="50.54769" lon="3.28337">
        <ele>57.4</ele>
        <time>2021-11-05T14:13:57Z</time>
      </trkpt>
      <trkpt lat="50.54775" lon="3.28361">
        <ele>57.2</ele>
        <time>2021-11-05T14:13:59Z</time>
      </trkpt>
      <trkpt lat="50.54781" lon="3.28385">
        <ele>57.2</ele>
        <time>2021-11-05T14:14:02Z</time>
      </trkpt>
      <trkpt lat="50.54792" lon="3.28422">
        <ele>57.2</ele>
        <time>2021-11-05T14:14:06Z</time>
      </trkpt>
      <trkpt lat="50.54803" lon="3.28458">
        <ele>57</ele>
        <time>2021-11-05T14:14:10Z</time>
      </trkpt>
      <trkpt lat="50.5481" lon="3.28489">
        <ele>56.8</ele>
        <time>2021-11-05T14:14:14Z</time>
      </trkpt>
      <trkpt lat="50.54816" lon="3.2852">
        <ele>56.6</ele>
        <time>2021-11-05T14:14:17Z</time>
      </trkpt>
      <trkpt lat="50.54822" lon="3.28558">
        <ele>56.4</ele>
        <time>2021-11-05T14:14:21Z</time>
      </trkpt>
      <trkpt lat="50.54829" lon="3.28597">
        <ele>56.2</ele>
        <time>2021-11-05T14:14:25Z</time>
      </trkpt>
      <trkpt lat="50.54835" lon="3.28635">
        <ele>56</ele>
        <time>2021-11-05T14:14:29Z</time>
      </trkpt>
      <trkpt lat="50.54842" lon="3.28673">
        <ele>56</ele>
        <time>2021-11-05T14:14:33Z</time>
      </trkpt>
      <trkpt lat="50.54844" lon="3.28698">
        <ele>55.6</ele>
        <time>2021-11-05T14:14:36Z</time>
      </trkpt>
      <trkpt lat="50.54847" lon="3.28723">
        <ele>55.4</ele>
        <time>2021-11-05T14:14:38Z</time>
      </trkpt>
      <trkpt lat="50.54848" lon="3.28772">
        <ele>54.8</ele>
        <time>2021-11-05T14:14:43Z</time>
      </trkpt>
      <trkpt lat="50.54848" lon="3.2878">
        <ele>54.4</ele>
        <time>2021-11-05T14:14:44Z</time>
      </trkpt>
      <trkpt lat="50.54849" lon="3.28812">
        <ele>54.2</ele>
        <time>2021-11-05T14:14:47Z</time>
      </trkpt>
      <trkpt lat="50.5485" lon="3.28843">
        <ele>54</ele>
        <time>2021-11-05T14:14:51Z</time>
      </trkpt>
      <trkpt lat="50.54851" lon="3.28852">
        <ele>54</ele>
        <time>2021-11-05T14:14:52Z</time>
      </trkpt>
      <trkpt lat="50.54855" lon="3.28892">
        <ele>53.8</ele>
        <time>2021-11-05T14:14:56Z</time>
      </trkpt>
      <trkpt lat="50.54861" lon="3.28932">
        <ele>53.8</ele>
        <time>2021-11-05T14:15:00Z</time>
      </trkpt>
      <trkpt lat="50.54866" lon="3.28971">
        <ele>53.8</ele>
        <time>2021-11-05T14:15:04Z</time>
      </trkpt>
      <trkpt lat="50.54873" lon="3.29012">
        <ele>53.8</ele>
        <time>2021-11-05T14:15:08Z</time>
      </trkpt>
      <trkpt lat="50.5488" lon="3.29053">
        <ele>54</ele>
        <time>2021-11-05T14:15:13Z</time>
      </trkpt>
      <trkpt lat="50.54887" lon="3.29093">
        <ele>54</ele>
        <time>2021-11-05T14:15:17Z</time>
      </trkpt>
      <trkpt lat="50.54892" lon="3.29123">
        <ele>54.2</ele>
        <time>2021-11-05T14:15:20Z</time>
      </trkpt>
      <trkpt lat="50.54896" lon="3.29147">
        <ele>54.4</ele>
        <time>2021-11-05T14:15:23Z</time>
      </trkpt>
      <trkpt lat="50.54901" lon="3.29171">
        <ele>54.4</ele>
        <time>2021-11-05T14:15:25Z</time>
      </trkpt>
      <trkpt lat="50.54913" lon="3.29213">
        <ele>54.6</ele>
        <time>2021-11-05T14:15:30Z</time>
      </trkpt>
      <trkpt lat="50.54925" lon="3.2924">
        <ele>54.8</ele>
        <time>2021-11-05T14:15:33Z</time>
      </trkpt>
      <trkpt lat="50.54937" lon="3.29267">
        <ele>54.8</ele>
        <time>2021-11-05T14:15:37Z</time>
      </trkpt>
      <trkpt lat="50.54953" lon="3.29297">
        <ele>55.2</ele>
        <time>2021-11-05T14:15:40Z</time>
      </trkpt>
      <trkpt lat="50.54968" lon="3.29327">
        <ele>55.4</ele>
        <time>2021-11-05T14:15:44Z</time>
      </trkpt>
      <trkpt lat="50.54981" lon="3.2934">
        <ele>55.8</ele>
        <time>2021-11-05T14:15:47Z</time>
      </trkpt>
      <trkpt lat="50.54999" lon="3.29345">
        <ele>56</ele>
        <time>2021-11-05T14:15:50Z</time>
      </trkpt>
      <trkpt lat="50.55017" lon="3.29337">
        <ele>56.6</ele>
        <time>2021-11-05T14:15:53Z</time>
      </trkpt>
      <trkpt lat="50.55032" lon="3.29323">
        <ele>57</ele>
        <time>2021-11-05T14:15:56Z</time>
      </trkpt>
      <trkpt lat="50.55043" lon="3.29315">
        <ele>57.4</ele>
        <time>2021-11-05T14:15:58Z</time>
      </trkpt>
      <trkpt lat="50.5506" lon="3.2931">
        <ele>58</ele>
        <time>2021-11-05T14:16:00Z</time>
      </trkpt>
      <trkpt lat="50.55066" lon="3.29312">
        <ele>58.4</ele>
        <time>2021-11-05T14:16:01Z</time>
      </trkpt>
      <trkpt lat="50.55089" lon="3.29323">
        <ele>59</ele>
        <time>2021-11-05T14:16:05Z</time>
      </trkpt>
      <trkpt lat="50.55105" lon="3.29331">
        <ele>59.4</ele>
        <time>2021-11-05T14:16:08Z</time>
      </trkpt>
      <trkpt lat="50.55122" lon="3.29339">
        <ele>60</ele>
        <time>2021-11-05T14:16:11Z</time>
      </trkpt>
      <trkpt lat="50.55149" lon="3.29353">
        <ele>60.4</ele>
        <time>2021-11-05T14:16:15Z</time>
      </trkpt>
      <trkpt lat="50.55176" lon="3.29366">
        <ele>60.4</ele>
        <time>2021-11-05T14:16:20Z</time>
      </trkpt>
      <trkpt lat="50.55204" lon="3.2938">
        <ele>60.6</ele>
        <time>2021-11-05T14:16:24Z</time>
      </trkpt>
      <trkpt lat="50.55231" lon="3.29394">
        <ele>60.6</ele>
        <time>2021-11-05T14:16:29Z</time>
      </trkpt>
      <trkpt lat="50.55258" lon="3.29408">
        <ele>60.6</ele>
        <time>2021-11-05T14:16:34Z</time>
      </trkpt>
      <trkpt lat="50.55286" lon="3.29422">
        <ele>60.6</ele>
        <time>2021-11-05T14:16:38Z</time>
      </trkpt>
      <trkpt lat="50.55313" lon="3.29435">
        <ele>60.4</ele>
        <time>2021-11-05T14:16:43Z</time>
      </trkpt>
      <trkpt lat="50.55333" lon="3.2945">
        <ele>60.2</ele>
        <time>2021-11-05T14:16:46Z</time>
      </trkpt>
      <trkpt lat="50.55354" lon="3.29464">
        <ele>60</ele>
        <time>2021-11-05T14:16:50Z</time>
      </trkpt>
      <trkpt lat="50.55371" lon="3.29474">
        <ele>59.4</ele>
        <time>2021-11-05T14:16:53Z</time>
      </trkpt>
      <trkpt lat="50.55385" lon="3.29479">
        <ele>58.8</ele>
        <time>2021-11-05T14:16:55Z</time>
      </trkpt>
      <trkpt lat="50.55411" lon="3.29483">
        <ele>58.2</ele>
        <time>2021-11-05T14:16:59Z</time>
      </trkpt>
      <trkpt lat="50.55437" lon="3.29486">
        <ele>57.8</ele>
        <time>2021-11-05T14:17:04Z</time>
      </trkpt>
      <trkpt lat="50.55464" lon="3.29489">
        <ele>57.6</ele>
        <time>2021-11-05T14:17:08Z</time>
      </trkpt>
      <trkpt lat="50.5549" lon="3.29492">
        <ele>57.2</ele>
        <time>2021-11-05T14:17:12Z</time>
      </trkpt>
      <trkpt lat="50.55507" lon="3.295">
        <ele>56.6</ele>
        <time>2021-11-05T14:17:15Z</time>
      </trkpt>
      <trkpt lat="50.55525" lon="3.29507">
        <ele>56.2</ele>
        <time>2021-11-05T14:17:18Z</time>
      </trkpt>
      <trkpt lat="50.55544" lon="3.29522">
        <ele>55.8</ele>
        <time>2021-11-05T14:17:21Z</time>
      </trkpt>
      <trkpt lat="50.55563" lon="3.29537">
        <ele>55.6</ele>
        <time>2021-11-05T14:17:25Z</time>
      </trkpt>
      <trkpt lat="50.55583" lon="3.29563">
        <ele>55.2</ele>
        <time>2021-11-05T14:17:29Z</time>
      </trkpt>
      <trkpt lat="50.55595" lon="3.29592">
        <ele>54.6</ele>
        <time>2021-11-05T14:17:32Z</time>
      </trkpt>
      <trkpt lat="50.556" lon="3.29635">
        <ele>54.6</ele>
        <time>2021-11-05T14:17:37Z</time>
      </trkpt>
      <trkpt lat="50.55596" lon="3.2968">
        <ele>54.4</ele>
        <time>2021-11-05T14:17:41Z</time>
      </trkpt>
      <trkpt lat="50.55589" lon="3.29722">
        <ele>54.6</ele>
        <time>2021-11-05T14:17:46Z</time>
      </trkpt>
      <trkpt lat="50.55582" lon="3.29764">
        <ele>54.6</ele>
        <time>2021-11-05T14:17:50Z</time>
      </trkpt>
      <trkpt lat="50.55575" lon="3.29805">
        <ele>54.8</ele>
        <time>2021-11-05T14:17:55Z</time>
      </trkpt>
      <trkpt lat="50.55569" lon="3.29842">
        <ele>55</ele>
        <time>2021-11-05T14:17:59Z</time>
      </trkpt>
      <trkpt lat="50.55563" lon="3.29879">
        <ele>55.2</ele>
        <time>2021-11-05T14:18:02Z</time>
      </trkpt>
      <trkpt lat="50.55557" lon="3.29915">
        <ele>55.4</ele>
        <time>2021-11-05T14:18:06Z</time>
      </trkpt>
      <trkpt lat="50.55553" lon="3.2995">
        <ele>55.6</ele>
        <time>2021-11-05T14:18:10Z</time>
      </trkpt>
      <trkpt lat="50.55551" lon="3.29984">
        <ele>55.8</ele>
        <time>2021-11-05T14:18:13Z</time>
      </trkpt>
      <trkpt lat="50.55552" lon="3.30029">
        <ele>56</ele>
        <time>2021-11-05T14:18:18Z</time>
      </trkpt>
      <trkpt lat="50.55552" lon="3.30074">
        <ele>56</ele>
        <time>2021-11-05T14:18:23Z</time>
      </trkpt>
      <trkpt lat="50.55553" lon="3.30119">
        <ele>56</ele>
        <time>2021-11-05T14:18:27Z</time>
      </trkpt>
      <trkpt lat="50.55554" lon="3.30164">
        <ele>56.2</ele>
        <time>2021-11-05T14:18:32Z</time>
      </trkpt>
      <trkpt lat="50.55554" lon="3.30209">
        <ele>56.2</ele>
        <time>2021-11-05T14:18:36Z</time>
      </trkpt>
      <trkpt lat="50.55556" lon="3.30239">
        <ele>56.4</ele>
        <time>2021-11-05T14:18:39Z</time>
      </trkpt>
      <trkpt lat="50.55564" lon="3.3027">
        <ele>56.4</ele>
        <time>2021-11-05T14:18:43Z</time>
      </trkpt>
      <trkpt lat="50.55571" lon="3.30302">
        <ele>56.4</ele>
        <time>2021-11-05T14:18:46Z</time>
      </trkpt>
      <trkpt lat="50.55579" lon="3.30333">
        <ele>56.4</ele>
        <time>2021-11-05T14:18:50Z</time>
      </trkpt>
      <trkpt lat="50.55588" lon="3.30372">
        <ele>56.4</ele>
        <time>2021-11-05T14:18:54Z</time>
      </trkpt>
      <trkpt lat="50.55572" lon="3.30382">
        <ele>56.4</ele>
        <time>2021-11-05T14:18:57Z</time>
      </trkpt>
    </trkseg>
  </trk>
</gpx>